GFSSGP_prec_cloud_003.txt.gz
Cloud_Cover
100 100 100 100 100 96 66 14 100 100 100 100 100 100 100 100 100 92 33 3 3 4 0 0 0 93 1 0 0 0 0 0 0 0 100 48 35 19 0 51 75 100 90 0 5 0 54 100 100
100 100 100 100 100 100 100 77 68 100 100 100 100 100 100 100 100 100 90 40 98 1 0 2 0 0 40 42 1 0 0 0 0 0 96 100 100 100 100 11 52 0 0 1 1 40 100 100 36
100 100 100 100 100 100 98 100 100 69 10 82 100 100 100 100 100 92 11 5 0 0 0 0 0 100 98 79 0 0 0 0 0 0 15 100 82 100 100 100 94 15 0 0 4 95 100 44 7
100 100 100 100 100 100 100 100 100 32 69 79 59 91 11 85 100 95 48 1 2 1 0 0 11 1 4 0 85 0 0 0 0 0 0 100 100 78 100 33 12 2 0 6 100 100 66 2 5
100 100 100 100 100 100 80 100 100 100 97 20 74 100 88 100 100 95 2 5 5 4 0 0 0 0 0 0 10 0 0 0 0 0 0 45 90 96 74 86 0 2 0 54 96 0 38 100 100
100 100 100 100 100 100 100 96 100 100 100 100 100 100 100 100 100 100 7 5 0 1 0 0 0 0 0 0 60 3 65 3 0 0 0 0 14 12 85 75 0 0 1 100 95 64 100 100 100
100 100 100 100 88 100 100 100 53 94 100 100 100 100 100 100 100 36 4 5 55 11 0 0 0 0 0 0 31 25 10 51 0 0 0 0 0 0 0 1 0 0 32 70 77 44 100 100 100
8 100 100 100 58 99 100 100 91 26 100 100 100 96 100 54 3 5 5 49 45 0 0 0 0 0 10 25 0 0 0 0 0 0 0 0 0 0 0 0 0 0 0 76 100 100 100 51 98
0 51 100 100 100 92 96 100 70 88 99 100 75 5 14 5 5 5 0 0 3 0 0 0 0 0 0 1 4 0 0 0 1 2 1 0 0 0 0 0 0 0 0 76 100 100 100 100 100
0 0 4 64 100 86 19 42 5 82 100 100 20 5 5 5 5 5 5 3 0 0 0 0 0 3 5 1 0 12 9 11 2 0 0 0 4 0 0 0 0 0 0 99 100 100 100 100 89
4 0 0 4 28 100 70 69 5 6 84 42 25 71 22 5 5 57 5 5 5 5 0 0 0 2 8 5 3 2 0 0 0 0 1 1 3 1 0 0 0 0 6 79 100 100 100 100 100
30 0 3 10 28 12 100 92 26 9 76 5 33 5 17 5 5 71 25 5 5 5 5 0 5 1 5 4 4 5 0 0 5 2 0 21 45 16 20 22 24 15 28 100 100 100 100 100 100
100 2 1 1 9 1 90 100 100 39 5 23 16 39 4 5 4 5 5 4 1 5 5 5 1 5 60 95 12 6 5 5 5 1 12 20 31 88 51 28 36 45 84 89 100 100 100 100 58
86 51 11 19 5 0 0 5 79 94 98 96 86 39 5 0 0 0 0 0 1 2 1 5 0 0 0 5 34 85 12 3 8 17 22 25 25 29 31 48 98 100 100 100 100 100 100 100 98
100 100 85 26 54 2 0 0 2 6 92 56 100 25 5 5 5 0 0 0 0 3 0 5 5 3 13 35 23 16 23 7 36 32 23 30 30 43 66 96 100 100 100 100 100 34 18 7 2
100 100 99 63 49 6 19 0 0 2 5 5 34 16 5 5 0 0 0 0 0 5 0 5 77 59 42 5 10 6 30 30 37 17 36 48 49 38 47 100 88 100 74 11 5 29 14 10 5
100 84 99 97 76 10 42 0 0 2 3 8 54 5 0 0 0 0 2 0 5 5 39 88 25 48 95 62 17 25 5 26 59 64 50 12 0 3 5 5 7 37 5 5 5 2 0 0 0
63 100 94 92 72 22 25 2 0 1 3 5 8 0 0 0 0 0 2 2 1 1 4 5 98 60 5 5 17 49 23 1 1 1 0 0 0 0 0 4 5 4 0 1 2 0 0 0 2
92 94 40 27 72 100 35 4 0 2 1 4 0 0 0 0 0 0 0 0 1 4 80 91 43 13 38 26 58 86 88 34 57 5 5 0 0 0 0 0 0 0 0 0 1 3 6 28 5
100 99 100 100 100 40 8 4 0 4 0 0 0 0 0 0 0 0 0 0 1 14 17 69 39 63 65 94 100 98 92 41 60 7 5 0 0 0 0 0 4 5 5 5 28 47 20 5 5
100 100 100 79 95 3 19 2 0 1 0 0 0 0 0 0 1 0 0 0 5 100 91 41 99 100 96 55 5 5 5 5 5 5 4 5 2 0 0 0 2 4 5 1 0 0 0 2 5
100 100 100 100 100 16 36 3 3 4 0 0 0 0 4 5 5 0 0 5 8 29 21 5 53 43 32 63 39 93 20 5 5 0 0 0 1 0 0 0 0 0 0 0 0 0 3 0 3
100 100 95 100 100 91 69 12 0 25 0 0 0 0 5 0 0 0 5 5 5 5 8 50 71 95 100 95 38 5 5 5 4 5 5 5 6 5 1 1 0 0 0 0 0 2 5 3 0
100 100 100 100 97 20 18 22 5 22 0 0 3 5 1 0 0 5 5 95 100 99 82 55 90 48 4 0 4 5 0 2 4 4 0 0 4 5 5 5 59 52 48 26 5 5 5 0 5
100 100 100 100 82 28 57 52 2 5 0 2 5 5 0 0 0 5 57 95 100 95 84 9 5 5 4 0 4 1 0 0 0 0 0 5 5 8 5 5 7 40 41 5 5 25 54 15 5
97 100 97 71 47 7 5 2 5 2 0 5 5 5 4 4 4 5 84 8 5 5 5 5 5 0 0 0 4 0 0 4 0 5 32 58 30 11 5 5 5 6 18 68 72 17 24 5 0
100 100 100 54 5 86 5 11 0 0 0 5 5 4 4 2 4 2 4 5 5 0 0 0 0 2 0 0 4 1 2 4 20 100 99 100 83 7 5 32 58 88 44 14 60 12 5 5 5
100 95 34 7 12 91 32 87 94 0 0 0 0 3 5 4 0 0 0 0 4 0 0 0 0 0 2 5 0 1 8 100 100 89 84 90 32 23 77 100 100 100 89 93 22 5 4 5 4
100 100 80 90 6 99 97 64 35 0 0 0 0 5 5 2 0 0 0 0 0 0 0 0 0 0 5 5 5 82 99 95 10 5 28 19 99 100 100 100 69 97 78 5 4 1 3 0 0
100 98 66 52 32 1 7 77 2 0 0 0 0 0 0 0 0 0 0 0 4 0 0 0 0 0 5 5 7 13 5 30 65 55 100 83 63 72 100 100 100 95 5 5 5 3 0 0 0

GFSSGP_prec_cloud_006.txt.gz
Cloud_Cover
100 100 100 100 100 100 100 100 43 5 51 92 100 100 64 96 100 11 94 100 100 100 41 0 2 35 10 0 0 0 0 0 0 0 3 1 43 97 0 0 0 96 49 0 0 3 0 0 38
97 100 100 100 100 100 100 100 100 16 85 11 100 100 100 68 71 61 99 100 100 100 100 48 7 20 1 89 19 0 0 0 0 1 96 83 46 100 100 41 4 0 0 0 0 0 0 36 12
12 100 100 100 100 100 100 100 100 100 98 5 11 100 100 100 100 100 100 100 100 100 100 57 4 1 49 6 0 0 0 0 0 0 33 100 81 43 100 100 68 8 0 0 0 0 0 1 0
0 100 100 100 100 100 100 82 100 100 100 80 6 20 100 100 100 100 100 100 100 100 8 2 1 0 0 0 0 0 0 0 0 0 0 10 51 20 100 100 98 0 0 0 0 0 0 0 52
0 87 100 100 100 99 96 100 100 100 100 100 100 100 100 12 6 54 98 100 100 100 96 8 0 0 0 0 0 0 0 0 0 0 0 0 0 33 90 96 67 0 0 0 0 0 0 9 100
0 0 100 100 100 100 100 78 100 91 96 100 100 100 100 48 20 6 47 100 100 100 100 100 5 2 0 0 0 0 0 0 0 0 0 0 0 0 11 72 0 0 1 0 0 0 0 91 53
0 0 11 100 100 100 100 100 100 95 100 98 100 100 100 100 100 100 100 100 100 100 98 20 0 0 0 0 0 0 0 0 0 0 0 0 0 0 0 0 0 0 0 0 0 0 0 80 38
0 0 0 22 100 100 100 100 100 100 100 97 100 92 69 100 100 98 100 100 100 98 15 5 0 0 0 0 0 0 0 0 0 2 0 0 0 0 0 0 0 0 0 0 0 0 0 86 100
3 0 0 0 35 100 99 98 100 100 100 100 100 100 4 100 100 6 46 93 100 100 17 0 0 0 0 0 0 0 0 0 0 0 0 2 0 0 0 0 0 0 0 0 0 0 5 86 84
1 1 0 0 0 52 100 100 100 82 100 100 100 100 8 32 24 35 31 50 100 26 3 3 0 0 0 0 0 0 0 0 0 0 0 0 0 0 0 0 0 0 0 0 0 0 0 99 100
0 0 0 0 0 0 100 100 95 32 99 100 100 89 97 98 29 33 5 15 5 11 5 4 0 0 0 0 4 1 0 0 2 0 0 0 0 0 4 5 5 0 0 0 0 0 0 98 100
24 0 0 0 7 86 30 100 100 97 40 64 78 75 6 91 71 77 88 49 6 6 5 5 0 0 0 0 4 1 0 0 5 0 5 5 5 7 22 5 6 17 37 53 41 100 100 100 100
18 16 41 5 0 15 92 92 100 100 28 5 5 54 28 48 4 5 4 5 5 2 2 2 0 0 0 1 10 21 71 56 23 9 18 13 36 89 44 40 26 100 100 100 100 100 100 100 100
74 87 60 79 9 27 22 18 85 66 94 15 24 87 13 1 5 4 18 5 5 0 4 3 0 0 0 0 21 2 14 85 33 79 74 50 13 2 27 93 100 100 100 100 100 79 50 8 77
86 58 81 27 6 100 19 1 0 0 0 10 100 76 6 5 5 2 5 5 5 5 1 5 2 0 0 0 0 60 52 70 100 98 86 94 99 21 90 100 100 79 50 64 42 88 96 35 24
22 12 87 0 100 11 100 1 0 0 1 0 27 93 100 69 47 48 64 56 6 9 5 5 1 1 5 61 12 73 100 88 64 26 100 51 20 15 62 8 0 0 11 52 38 60 84 100 100
56 27 5 3 19 95 35 5 0 0 4 0 0 6 52 57 100 100 64 50 16 52 4 3 5 5 5 19 71 100 28 91 100 99 56 0 0 0 0 0 0 0 0 5 46 78 59 84 73
100 92 5 5 1 37 5 42 0 3 0 0 0 2 5 5 12 67 32 2 0 0 4 5 5 5 5 23 34 36 51 78 11 42 4 5 5 5 1 0 0 0 0 0 1 1 2 5 5
12 45 18 5 5 79 5 39 5 1 0 0 0 5 1 1 0 5 4 5 0 0 0 0 5 4 61 19 34 59 83 100 100 100 100 100 99 73 3 1 0 0 0 0 0 0 0 0 0
5 61 34 8 59 16 7 28 5 0 0 0 0 0 0 4 5 5 2 0 0 0 0 0 2 22 13 6 100 96 100 74 71 36 5 5 5 4 4 5 5 0 1 0 0 0 4 5 4
38 10 84 6 13 88 82 49 20 1 0 4 0 0 0 5 2 0 0 0 0 0 0 1 51 16 18 80 75 43 48 83 71 45 48 5 5 5 0 0 0 0 0 2 0 0 1 4 3
61 4 69 67 92 88 8 60 0 0 0 0 0 0 0 0 0 0 0 0 0 0 5 5 5 5 5 5 5 9 5 6 14 6 4 2 1 1 0 0 0 0 0 1 3 5 3 5 5
8 2 100 100 100 74 47 49 5 0 0 0 0 0 0 0 0 0 1 0 0 4 5 4 4 5 0 1 11 94 5 1 0 0 0 0 0 0 0 0 5 5 5 5 5 5 0 0 0
6 90 100 100 100 96 36 31 2 5 0 0 0 0 0 0 0 5 4 0 0 5 5 5 5 9 36 91 49 5 5 3 0 0 0 0 0 2 44 63 70 48 32 8 5 5 2 0 5
69 100 100 100 100 100 92 100 0 0 5 0 0 0 0 5 5 2 0 0 1 5 5 5 5 16 54 5 5 5 5 5 1 0 0 0 3 29 33 5 5 5 5 5 4 0 5 18 19
100 100 100 100 100 98 28 27 26 15 0 0 0 0 1 5 5 2 0 0 5 5 5 5 5 5 1 0 0 0 0 0 0 0 2 5 43 60 74 7 5 5 5 5 5 17 39 34 11
100 100 100 100 100 99 9 8 4 1 0 3 0 0 0 5 5 3 0 0 1 5 5 5 5 5 0 0 0 0 0 0 1 6 89 100 92 42 5 5 5 5 5 6 40 59 44 35 98
100 100 100 100 100 35 30 4 0 0 0 3 0 0 0 5 5 5 3 3 0 0 1 5 2 0 0 0 0 0 0 4 6 99 100 63 5 5 5 5 5 5 5 6 11 12 77 98 32
100 100 100 100 100 6 100 98 6 0 0 0 0 0 5 8 5 5 5 5 5 4 0 0 0 0 0 0 0 0 5 5 12 16 5 5 5 5 55 32 5 48 93 76 100 100 54 5 5
100 100 100 100 100 96 29 5 0 0 0 0 0 0 5 5 5 5 5 5 4 0 0 0 0 0 0 0 1 5 5 5 2 0 5 5 83 72 45 32 99 71 24 76 13 14 6 0 0

GFSSGP_prec_cloud_009.txt.gz
Cloud_Cover
2 100 100 100 100 100 100 99 100 100 100 100 11 5 5 0 3 2 64 100 92 7 25 53 100 100 80 12 0 0 0 0 0 0 0 0 82 98 0 0 0 0 0 0 0 1 0 0 0
0 19 100 100 100 100 92 99 100 100 100 100 22 5 2 0 5 5 77 100 100 100 100 100 100 100 100 5 1 0 0 0 0 0 98 66 57 100 100 74 14 0 0 0 0 0 0 0 0
0 0 60 100 100 100 100 32 88 100 100 100 100 80 6 5 5 58 100 100 100 100 100 100 100 100 100 91 5 3 0 0 0 0 3 4 69 100 100 100 9 0 0 0 0 0 0 0 0
0 0 0 0 100 100 100 100 100 100 100 100 100 100 83 5 5 11 100 100 100 100 88 100 100 100 50 39 5 4 0 0 0 0 0 0 0 33 100 100 0 0 0 0 0 0 0 0 0
0 0 0 0 2 87 100 100 100 100 100 100 100 100 100 100 6 5 86 100 100 100 100 100 100 100 100 99 80 4 0 0 0 0 0 0 0 10 89 58 0 0 0 0 0 0 0 0 3
0 0 0 0 0 5 100 100 100 100 99 100 100 100 100 100 100 46 52 100 77 88 97 100 100 100 100 70 92 2 0 0 0 0 0 0 0 0 0 65 0 0 0 1 0 0 0 0 0
0 0 0 0 0 0 27 100 100 100 100 100 100 98 52 100 100 100 100 100 100 51 45 100 100 100 100 63 19 0 0 0 0 0 0 0 0 0 0 0 0 0 0 1 0 4 5 0 5
0 0 0 0 0 0 2 92 100 100 100 100 100 100 8 96 100 60 100 100 100 100 100 100 100 100 100 62 7 0 0 0 0 0 0 0 0 0 0 0 0 0 0 0 0 0 5 1 5
0 0 0 0 0 0 0 72 100 100 100 100 100 100 15 68 14 8 66 100 100 96 98 88 100 99 94 76 44 4 0 0 0 0 0 0 0 0 0 0 0 0 0 0 0 0 0 1 5
0 0 0 0 0 0 0 2 100 100 100 100 100 100 21 63 55 37 99 68 87 96 94 37 5 5 38 29 17 0 0 0 0 0 0 3 0 0 0 0 0 0 0 0 0 0 0 0 9
0 0 0 0 0 0 0 4 5 100 100 100 100 100 44 92 100 98 5 16 100 74 80 47 14 7 6 5 1 3 5 0 0 0 0 0 1 5 4 0 5 5 5 5 3 9 60 92 100
20 0 0 0 0 0 0 3 1 27 97 100 100 100 78 17 100 100 100 100 100 94 100 47 52 6 10 5 4 0 0 4 8 4 16 0 1 5 11 67 60 100 100 100 100 100 100 100 87
0 0 0 0 0 0 0 1 0 0 0 43 100 100 82 28 90 100 100 99 93 99 67 64 41 17 3 1 0 0 16 3 0 0 58 10 6 89 72 98 71 96 98 99 75 21 30 51 11
28 1 0 0 0 0 1 5 5 0 0 0 12 100 100 23 54 42 71 36 89 44 7 5 5 5 0 0 3 3 66 100 54 100 100 100 17 7 83 100 100 100 100 92 5 5 5 51 85
28 13 0 0 0 0 0 3 5 0 0 0 0 97 100 99 33 7 9 39 5 20 13 5 1 0 5 5 47 81 55 99 100 100 100 100 100 100 100 100 100 64 1 0 0 0 5 42 38
4 16 5 3 1 0 68 1 0 0 0 0 0 83 100 88 5 6 30 5 5 56 5 5 5 5 22 5 62 100 100 100 100 100 100 100 76 76 87 39 0 0 0 0 0 0 0 3 12
32 58 51 6 1 5 12 1 0 0 0 0 0 0 100 86 100 20 8 12 100 21 5 5 5 21 92 23 68 100 100 100 100 100 100 56 64 39 20 5 4 2 0 0 0 0 0 0 0
100 28 36 49 5 8 5 3 4 0 0 0 0 0 22 26 65 13 2 90 100 14 75 23 98 100 100 5 55 100 100 80 52 75 72 100 91 100 100 98 45 5 2 0 0 0 0 0 0
10 5 51 5 2 3 4 4 0 0 5 0 0 0 0 0 0 0 0 11 5 8 34 5 49 84 5 0 1 32 66 82 97 85 100 84 91 63 16 13 2 5 2 0 0 0 0 0 0
5 30 14 32 15 68 3 5 0 0 0 1 0 0 0 0 0 0 69 5 0 0 0 3 0 3 0 4 5 9 65 53 25 62 60 24 5 5 5 5 5 3 0 0 0 0 0 0 0
13 20 10 5 34 56 86 9 0 2 2 0 0 0 0 0 0 6 5 0 2 3 4 2 0 0 0 5 5 3 5 5 5 11 5 5 5 5 5 5 2 2 2 0 0 0 0 0 0
20 68 100 62 94 50 81 100 3 0 5 4 0 0 0 0 0 2 0 5 5 0 0 0 0 0 5 5 1 0 0 2 94 18 4 4 0 0 0 0 0 0 2 4 2 4 0 0 0
6 77 5 95 29 99 54 100 5 5 4 0 0 0 0 0 0 0 5 5 5 0 0 0 0 0 1 0 0 21 77 47 5 5 5 0 0 0 0 0 0 5 5 5 5 0 0 0 0
6 98 68 100 100 100 73 87 92 13 0 0 0 0 0 0 0 0 5 4 1 0 0 0 0 3 5 4 60 91 10 3 0 0 0 0 0 0 0 5 5 5 5 5 2 1 1 0 0
35 99 99 100 93 99 43 100 98 31 5 0 0 0 0 0 0 5 5 4 0 0 0 0 2 1 5 78 10 5 4 0 0 0 0 0 0 3 5 5 5 5 5 5 5 5 5 5 0
98 99 84 74 5 100 100 100 100 27 1 0 0 0 0 0 0 5 0 0 0 0 0 0 5 0 5 5 5 5 0 5 0 0 0 0 1 5 5 5 5 5 5 5 5 5 5 5 5
34 58 9 100 100 100 100 100 100 91 92 1 0 0 0 0 0 0 0 0 0 0 0 0 5 5 5 5 4 1 0 0 0 0 0 5 5 5 5 5 5 5 5 5 5 5 5 5 9
88 38 100 100 100 100 95 100 100 48 97 21 0 0 0 0 0 1 0 0 0 0 0 0 0 0 2 3 5 0 0 0 0 0 6 5 5 5 5 2 4 5 5 5 5 5 5 9 5
100 100 100 100 100 100 100 100 100 99 65 6 0 0 0 0 1 0 0 0 0 3 5 0 0 0 4 5 2 0 0 0 0 5 89 5 5 5 5 5 5 5 11 35 7 8 56 15 5
100 100 100 100 100 100 100 100 100 92 4 4 0 0 0 0 0 0 0 0 4 5 5 5 2 5 5 4 0 0 0 5 5 5 5 5 5 77 10 7 74 75 60 71 98 68 5 5 0

GFSSGP_prec_cloud_012.txt.gz
Cloud_Cover
0 0 19 100 100 100 100 99 75 96 74 98 92 100 5 5 6 44 28 7 5 13 43 70 100 24 6 20 22 33 28 3 3 0 0 3 89 98 0 58 13 0 0 0 0 0 0 0 0
0 0 0 5 100 100 100 100 100 100 100 74 12 46 56 14 1 26 99 96 26 5 5 5 70 8 50 95 100 100 94 10 0 0 0 0 0 67 100 73 0 0 0 0 0 0 0 0 0
0 0 0 0 29 100 100 100 100 100 100 100 67 83 72 100 96 1 11 92 50 7 5 5 60 94 100 100 100 100 100 31 30 4 0 76 11 91 96 93 0 0 0 0 0 0 0 0 0
0 0 0 0 0 33 100 100 100 100 100 100 100 86 90 100 100 98 5 5 5 83 96 52 58 96 100 100 100 100 100 100 99 68 5 0 16 74 89 12 0 0 0 0 0 0 0 0 0
0 0 0 0 0 0 17 99 100 100 100 100 91 100 99 99 100 100 100 23 5 5 80 100 100 100 100 100 100 100 76 24 14 7 5 0 2 10 49 0 0 0 0 0 0 0 0 5 4
0 0 0 0 0 0 0 0 100 100 100 100 100 83 100 100 100 100 100 100 10 6 24 100 100 100 100 100 100 100 100 85 81 68 5 5 0 0 4 5 0 0 0 0 1 2 0 5 5
0 0 0 0 0 0 0 0 79 100 95 100 100 100 100 92 91 95 100 100 100 95 9 48 32 97 100 100 100 100 100 99 78 83 5 5 0 0 0 0 0 0 0 0 1 0 0 72 4
0 0 0 0 0 0 0 0 0 13 100 100 100 99 98 94 28 18 84 100 100 100 100 100 100 100 100 100 100 67 100 100 84 6 3 0 1 0 1 0 0 0 0 0 0 0 0 0 0
0 0 1 0 0 0 0 0 0 0 0 68 100 97 91 39 72 92 100 100 100 100 100 100 100 100 100 100 100 97 100 99 57 5 2 5 2 0 0 3 4 4 2 0 1 0 0 0 0
0 4 0 0 0 0 0 0 0 0 0 0 10 100 46 97 96 100 57 12 100 100 75 70 99 85 100 64 43 5 34 5 5 8 0 0 0 0 3 2 5 2 2 3 1 3 10 24 25
0 9 0 0 0 0 0 0 0 0 0 0 2 98 100 100 100 100 80 19 5 48 100 65 92 91 87 84 9 24 8 11 5 5 5 0 0 0 0 0 9 30 4 5 58 69 92 66 8
0 0 0 0 0 0 0 0 0 0 0 0 0 0 83 100 100 100 85 9 100 100 99 100 31 41 21 77 33 77 33 7 9 55 4 3 3 4 14 93 100 100 100 100 100 100 96 100 100
0 0 0 0 0 0 0 0 0 0 0 0 0 0 12 100 100 100 100 60 29 69 89 66 9 5 23 66 10 9 21 5 5 5 4 2 4 33 100 90 95 70 100 100 99 38 7 5 41
0 0 0 0 0 0 0 0 0 0 0 0 0 0 0 34 100 100 100 100 100 87 95 73 99 100 100 59 14 6 27 68 92 57 87 100 100 62 100 100 100 100 100 69 36 5 18 88 44
0 0 1 0 0 0 0 0 0 0 0 0 0 0 0 0 29 100 100 100 100 44 100 83 100 100 100 68 79 89 100 100 100 100 100 100 100 100 100 100 100 65 8 0 0 5 32 8 0
10 3 6 0 0 0 2 3 0 0 0 0 0 0 0 0 0 4 99 100 100 100 70 39 5 57 37 26 87 100 100 100 100 100 100 100 100 100 94 20 19 16 6 5 5 0 0 0 0
36 48 9 6 0 0 0 0 0 0 0 0 0 0 0 0 0 0 0 18 100 100 58 32 28 5 5 19 70 100 100 100 100 100 100 100 59 96 71 27 63 31 16 5 5 5 2 0 0
66 14 2 1 4 2 0 0 0 0 0 0 0 0 0 0 0 0 0 24 99 100 100 53 80 37 22 64 57 100 100 100 100 96 35 50 20 23 85 69 15 5 5 5 5 5 5 11 5
5 9 31 5 39 5 6 0 5 2 0 0 0 0 0 0 0 0 0 3 100 99 27 85 92 100 99 64 100 100 100 100 32 43 18 5 5 8 87 79 7 5 5 12 14 26 4 1 0
5 8 11 5 28 59 5 2 0 0 0 0 0 0 0 0 0 0 0 0 1 10 55 38 40 18 14 82 80 38 29 100 63 5 5 5 5 5 5 5 2 0 0 0 0 0 0 0 0
6 6 5 25 5 4 82 7 3 0 0 0 0 0 0 0 0 0 0 0 0 0 1 5 4 0 5 30 100 100 100 45 2 0 0 0 0 0 0 0 0 0 0 0 0 0 0 0 0
44 5 5 5 56 64 4 35 3 0 0 0 0 2 0 0 0 0 0 0 0 0 5 0 0 5 40 44 16 5 5 2 0 4 5 0 0 0 0 0 0 0 0 0 0 0 0 0 0
15 5 5 5 33 11 4 61 6 0 0 0 0 0 0 0 0 0 0 0 0 2 1 0 5 5 5 0 0 0 0 0 3 5 1 0 0 0 0 0 0 0 0 0 0 0 0 0 0
54 35 41 51 26 78 4 22 0 0 0 0 0 0 0 0 0 0 0 0 0 0 0 5 9 11 0 0 0 0 0 5 5 5 5 0 0 0 1 0 0 0 0 0 0 0 0 0 0
100 100 97 90 88 37 3 4 3 0 5 0 0 0 0 0 0 0 0 0 0 0 3 5 5 3 0 5 4 1 5 5 5 5 0 0 0 4 5 0 0 0 0 0 2 5 0 4 3
100 100 100 96 68 3 24 5 12 75 37 0 0 0 0 0 0 0 0 0 0 0 0 5 5 0 0 1 5 5 5 51 5 2 0 0 0 0 0 0 0 0 5 5 4 4 5 5 5
100 100 100 100 100 100 10 4 99 100 3 5 0 0 0 1 0 0 0 0 0 0 5 5 0 0 0 0 5 10 29 5 4 0 0 0 0 0 0 5 5 5 5 5 5 5 5 44 5
100 100 96 74 93 5 4 57 34 19 16 60 69 66 0 3 0 0 0 0 0 0 1 0 0 0 0 0 1 0 5 5 0 0 0 0 0 4 5 5 5 3 4 5 5 5 5 5 5
94 100 63 3 8 86 97 100 100 100 100 100 100 71 31 1 0 0 0 0 0 0 0 0 0 0 0 0 1 5 5 5 0 0 0 5 5 1 1 5 5 5 5 5 5 5 5 5 5
100 7 11 97 100 100 100 100 100 100 100 100 100 100 90 5 0 0 0 0 0 0 0 0 0 5 5 5 5 5 5 1 0 0 5 0 0 4 4 5 5 15 5 5 14 5 5 5 5

GFSSGP_prec_cloud_015.txt.gz
Cloud_Cover
0 0 0 0 0 1 98 100 100 100 100 100 66 58 49 5 5 20 39 46 2 2 15 0 3 27 11 27 75 5 4 3 5 5 81 64 98 100 5 59 0 0 0 0 0 0 0 0 0
0 0 0 0 0 0 15 99 100 100 100 100 100 59 64 78 53 50 43 99 95 21 18 0 0 5 2 38 93 40 14 96 81 5 84 6 43 90 100 10 0 0 0 0 0 0 0 0 0
0 0 0 0 0 0 0 0 98 100 100 100 100 92 50 81 5 57 100 98 99 98 19 4 0 0 3 22 4 100 100 100 76 5 17 100 73 100 81 0 0 0 0 0 0 0 0 0 0
0 0 0 0 0 0 0 0 0 100 100 100 100 100 100 100 99 95 100 100 50 95 100 84 5 4 5 5 5 100 91 100 37 75 100 100 97 100 22 0 0 0 0 0 0 0 0 0 0
0 0 0 0 0 0 0 0 0 63 100 100 100 100 100 100 100 34 9 98 100 100 100 100 98 7 5 10 68 100 100 100 80 100 96 9 85 100 90 29 0 0 0 0 0 0 0 0 0
0 0 0 0 0 0 0 0 0 0 84 100 100 100 100 100 100 100 100 100 100 100 100 100 100 40 8 5 100 100 97 100 100 100 100 100 100 89 24 5 5 1 0 0 0 0 0 0 1
0 0 0 0 0 0 0 0 0 0 0 100 100 100 100 100 100 100 93 48 100 100 100 100 100 100 55 7 23 100 100 100 100 100 100 100 38 5 55 5 5 1 0 0 0 0 0 0 0
0 0 0 0 0 0 0 0 0 0 0 0 100 100 100 100 100 100 100 96 94 100 100 100 100 100 100 100 30 18 100 100 100 100 100 32 39 13 5 0 0 0 0 0 0 0 0 0 0
0 0 4 0 0 0 0 0 0 0 0 0 0 86 100 100 100 100 100 100 100 100 100 100 84 99 100 100 100 100 100 100 100 100 100 29 3 1 2 0 1 5 2 4 2 5 4 9 76
0 21 0 0 0 0 0 0 0 0 0 0 0 0 1 92 100 100 100 100 100 79 50 35 48 63 93 100 92 92 38 93 100 100 10 5 4 5 0 0 2 4 4 5 5 14 94 73 5
0 4 0 0 0 0 0 0 2 0 0 0 0 0 0 5 100 100 100 100 100 86 20 71 92 52 67 61 81 37 25 55 39 38 21 6 20 5 4 0 13 7 0 91 82 89 100 34 5
0 0 0 0 0 0 0 0 0 0 0 0 0 0 0 0 0 99 100 100 100 100 100 100 98 13 17 96 42 82 35 18 18 26 5 28 5 15 5 36 99 100 100 100 100 84 47 71 64
0 0 0 0 0 0 0 0 0 0 0 0 0 0 0 0 0 0 0 67 100 92 83 93 62 6 5 58 24 18 11 8 32 6 24 63 8 85 78 100 100 100 100 95 51 11 3 4 5
1 0 0 0 0 0 0 0 0 0 0 0 0 0 0 0 0 0 0 0 15 98 100 100 100 44 40 22 79 35 26 18 29 78 78 100 100 100 100 100 100 100 100 50 7 5 5 3 0
2 0 0 1 0 0 0 0 0 0 0 0 0 0 0 0 0 0 0 0 0 83 100 100 100 98 14 35 23 81 77 64 68 100 100 100 100 100 100 100 100 75 12 3 5 5 5 5 5
100 45 17 0 0 0 0 0 0 0 0 0 0 0 0 0 0 0 0 0 0 1 90 100 100 100 100 100 100 100 100 100 100 100 100 100 100 100 100 77 18 8 5 5 5 5 5 5 5
100 46 21 16 1 0 0 0 0 0 0 0 0 0 0 0 0 0 0 0 0 0 0 90 100 97 100 100 88 100 100 100 100 100 100 100 100 100 100 91 5 5 53 61 79 67 28 5 5
70 95 20 5 2 1 2 0 0 0 0 0 0 0 0 0 0 0 0 0 0 0 0 0 17 33 96 100 100 100 100 100 100 100 100 85 99 67 57 7 6 5 5 5 6 5 5 4 0
51 5 56 40 45 4 0 0 0 0 0 0 0 0 0 0 0 0 0 0 0 0 0 0 0 5 41 60 100 100 100 100 100 100 96 100 15 44 3 5 5 0 0 1 4 0 0 0 0
5 17 49 10 5 5 4 0 0 0 0 0 1 3 0 0 0 0 0 0 0 0 0 0 0 6 64 58 42 84 100 100 100 94 82 45 5 0 0 0 0 0 0 0 0 0 0 0 0
24 47 22 17 5 1 3 0 0 0 0 0 0 0 0 0 0 0 0 0 0 0 0 0 0 0 34 55 77 94 89 98 100 75 35 5 0 0 0 0 0 0 0 0 0 0 0 0 0
100 15 5 5 14 42 2 1 0 0 0 1 0 5 0 0 0 0 0 0 0 0 0 0 0 0 2 23 74 100 64 84 98 5 54 0 0 0 0 0 0 0 0 0 0 0 0 0 0
62 9 7 21 5 22 4 65 1 0 0 0 0 0 0 0 0 0 0 0 0 0 0 0 0 0 7 7 100 100 100 80 5 5 1 0 5 0 0 0 0 0 0 0 0 0 0 0 0
48 92 92 100 92 100 6 16 0 3 0 2 0 0 0 0 0 0 0 0 0 0 0 0 0 0 37 92 70 42 19 5 5 5 5 7 5 4 0 0 0 0 0 0 0 0 0 0 0
100 100 100 100 100 95 66 4 6 28 3 4 0 0 0 0 0 0 0 0 0 0 0 0 0 18 22 5 5 5 3 5 7 17 59 99 70 1 0 5 0 0 0 0 0 0 0 0 0
100 100 100 100 46 11 7 1 9 50 78 29 5 0 0 0 0 0 0 0 0 0 0 0 0 0 0 0 0 0 0 5 34 61 90 91 5 0 0 0 0 0 0 0 0 0 0 1 3
100 100 96 100 100 100 12 0 0 1 89 41 5 2 0 0 0 0 0 0 0 4 5 5 0 5 0 0 1 0 0 5 5 44 61 5 1 0 0 0 0 0 0 0 0 5 5 5 5
97 100 100 100 100 99 4 4 0 0 42 32 5 5 2 0 0 0 0 2 0 5 65 5 0 0 2 4 5 4 3 4 5 5 5 5 0 0 0 0 0 0 0 0 5 5 5 5 5
83 100 96 93 75 5 12 0 0 5 37 4 5 5 12 4 0 0 0 0 4 36 17 5 2 0 0 4 5 5 4 5 5 5 5 1 0 0 1 5 1 0 5 5 5 5 5 5 5
100 100 91 99 8 6 26 66 98 78 4 0 0 30 91 72 28 0 5 5 5 4 0 0 0 0 0 5 5 5 5 5 5 5 2 0 5 5 5 0 5 5 5 25 5 5 51 5 5

GFSSGP_prec_cloud_018.txt.gz
Cloud_Cover
0 0 0 0 0 0 0 0 0 22 100 98 70 96 80 41 5 6 68 39 5 1 0 3 0 0 5 17 0 1 4 5 31 55 99 100 100 99 66 22 0 0 0 0 0 0 0 0 0
0 0 0 0 0 0 0 0 0 0 53 100 100 99 100 100 100 86 84 98 66 6 18 1 0 1 5 20 6 0 0 5 3 23 63 26 65 100 47 2 5 0 0 0 0 0 0 0 0
0 0 0 0 0 0 0 0 0 0 0 97 100 100 100 100 100 100 100 100 98 58 19 5 44 19 8 22 0 0 0 3 3 3 34 80 82 33 79 72 5 0 0 0 0 0 0 0 0
0 0 0 0 0 0 0 0 0 0 0 2 100 100 100 100 100 100 100 100 100 100 100 32 5 5 5 20 1 0 0 4 5 5 5 73 100 97 100 39 5 0 0 0 0 0 0 0 0
0 0 0 0 0 0 0 0 0 0 0 0 12 100 100 100 100 100 100 100 96 80 100 100 100 70 33 18 5 5 5 3 4 0 21 99 100 100 100 80 34 26 4 2 2 5 0 0 0
0 0 0 0 0 0 0 0 0 0 0 0 3 10 100 100 100 100 100 100 100 100 100 100 100 100 62 17 35 5 5 5 5 5 5 44 100 100 100 100 100 100 4 1 0 0 1 16 6
0 0 0 0 0 0 0 0 0 0 0 0 0 0 4 96 100 100 100 100 100 100 100 100 100 100 100 100 100 95 5 5 5 5 2 10 100 100 100 100 99 40 5 3 0 0 0 0 0
0 0 0 0 0 0 0 0 0 0 0 0 0 0 0 89 100 100 100 100 100 100 100 100 100 100 100 100 100 100 100 30 6 40 82 98 100 100 100 100 100 93 4 5 5 0 0 0 0
0 0 0 0 0 0 0 0 0 0 0 0 0 0 0 0 81 100 100 100 100 100 100 100 100 50 86 100 100 100 100 100 100 100 100 79 90 82 32 63 58 5 4 1 0 0 6 0 49
0 14 0 0 0 0 0 0 0 0 0 0 0 0 0 0 0 37 100 100 100 100 100 100 87 53 87 100 100 100 100 100 87 66 78 100 75 46 18 54 64 21 5 7 0 2 69 81 5
0 7 0 0 0 0 0 0 0 0 0 0 0 0 0 0 0 0 98 100 100 100 100 100 96 85 86 82 64 67 29 84 69 30 100 88 72 13 45 13 42 5 5 75 100 90 57 15 7
0 0 0 0 0 0 0 0 0 0 0 0 0 0 0 0 0 0 0 34 99 100 100 100 100 90 90 100 100 98 59 29 30 5 65 60 79 7 52 7 28 100 100 100 100 5 0 0 0
0 0 0 0 0 0 0 0 0 0 0 0 0 0 0 0 0 0 0 0 0 43 90 68 95 99 91 92 72 100 90 22 11 6 5 43 57 60 100 71 100 100 100 100 32 5 0 4 0
0 0 0 0 0 0 0 0 0 0 0 0 0 0 0 0 0 0 0 0 0 0 0 0 71 100 100 68 46 86 76 20 6 54 88 100 100 100 100 100 100 100 100 100 46 4 4 1 0
0 5 0 0 0 0 0 0 0 0 0 0 0 0 0 0 0 0 0 0 0 0 0 0 0 10 80 100 99 99 84 98 58 99 100 100 100 100 100 100 100 100 99 16 5 5 1 2 5
43 74 42 1 0 0 0 0 0 0 0 0 0 0 0 0 0 0 0 0 0 0 0 0 0 0 0 69 100 91 100 100 100 100 100 100 100 100 100 100 100 97 7 5 7 5 4 2 0
5 28 45 81 5 4 1 0 0 0 0 0 0 0 0 0 0 0 0 0 0 0 0 0 0 0 0 4 18 54 100 100 100 100 100 100 100 100 100 100 67 79 54 28 5 0 0 0 0
13 8 36 92 58 4 2 3 0 0 0 0 0 0 0 0 0 0 0 0 0 0 0 0 0 0 0 0 0 92 100 100 100 100 100 100 100 97 100 15 68 59 38 36 4 0 0 0 0
97 48 25 53 33 8 5 0 0 0 0 0 0 0 0 0 0 0 0 0 0 0 0 1 0 0 0 0 0 52 100 100 100 100 100 100 100 67 14 66 80 5 5 5 0 0 0 0 0
98 100 100 27 4 1 0 0 0 0 0 0 0 0 0 0 0 0 0 0 0 0 0 0 0 0 0 0 0 4 69 100 100 100 100 100 91 18 68 45 4 5 5 0 0 0 0 0 0
44 47 65 14 4 0 1 0 0 0 0 0 0 0 0 0 0 0 0 0 0 0 0 0 0 0 0 0 18 39 100 100 100 100 100 43 10 5 13 5 5 5 3 0 0 0 0 0 0
40 81 85 80 63 68 0 5 0 0 0 0 0 0 0 0 5 0 0 0 0 0 0 0 0 0 0 6 24 16 100 100 100 100 100 7 5 14 56 5 5 5 5 0 0 0 0 0 0
61 9 8 5 51 94 54 66 0 0 0 0 5 0 0 0 33 5 0 0 0 4 3 0 0 0 0 17 20 100 100 100 100 100 64 1 5 14 5 5 68 74 23 0 4 0 0 0 0
76 86 100 93 88 93 34 63 0 4 33 4 11 5 0 0 23 7 6 0 0 6 0 0 0 0 0 29 95 100 100 100 100 82 0 5 46 50 5 22 82 73 5 0 0 0 0 0 0
99 100 99 100 100 54 20 35 0 0 98 29 33 17 5 5 5 5 2 0 0 1 0 0 0 0 23 100 100 100 100 100 68 2 1 13 94 80 43 39 52 6 0 0 0 0 0 0 0
71 100 100 100 30 13 8 7 0 0 4 78 73 20 9 5 5 2 0 0 0 0 0 0 0 0 100 100 100 100 61 47 1 0 0 6 7 14 10 5 1 0 0 0 0 0 0 0 0
99 99 42 100 100 100 5 0 0 0 0 0 47 10 30 5 5 5 0 2 0 0 0 2 0 36 100 100 67 5 5 4 0 0 0 4 5 41 5 0 0 0 0 0 2 2 0 5 5
50 64 100 100 100 91 5 1 1 0 1 0 7 37 5 5 5 3 1 1 5 5 1 5 26 66 79 70 5 5 5 5 5 5 5 5 4 2 5 0 0 0 5 0 0 5 5 5 11
96 100 94 63 90 78 11 0 0 0 0 5 20 5 5 5 5 5 5 5 1 59 5 8 66 100 85 0 4 4 5 5 5 5 5 5 5 5 5 5 5 5 2 0 5 5 18 68 33
100 100 100 100 100 100 38 1 0 7 34 5 34 4 0 5 8 5 5 5 1 5 6 39 97 100 61 5 5 5 5 17 20 5 5 5 5 5 5 5 5 5 5 5 5 6 5 5 4

GFSSGP_prec_cloud_021.txt.gz
Cloud_Cover
0 0 0 0 0 0 0 0 0 0 0 0 5 3 24 53 39 12 5 16 6 2 0 0 19 32 0 0 0 0 0 0 0 11 98 100 84 84 93 78 30 5 3 2 0 0 0 7 0
0 0 0 0 0 0 0 0 0 0 0 0 0 11 50 86 25 85 52 88 70 14 5 1 0 4 2 3 0 0 0 0 0 11 97 100 90 50 0 19 80 14 5 3 1 1 0 0 0
0 0 0 0 0 0 0 0 0 0 0 0 1 4 74 8 97 79 92 77 100 96 88 24 6 5 7 16 1 0 0 0 0 90 9 0 0 0 0 5 100 100 5 5 5 3 0 0 0
0 0 0 0 0 0 0 0 0 0 0 0 0 5 5 66 93 100 100 100 100 100 100 100 59 40 5 6 6 0 0 0 0 1 0 95 9 1 0 0 9 100 49 8 6 5 5 4 4
0 0 0 0 0 0 0 0 0 0 0 0 0 5 4 5 26 93 100 100 100 100 100 100 100 99 53 18 38 48 10 5 0 0 4 100 97 100 5 31 5 50 100 100 88 100 100 100 39
0 0 0 0 0 0 0 0 0 0 0 0 3 3 2 2 5 41 100 100 100 100 100 100 100 100 100 61 49 93 94 6 5 4 5 33 82 88 31 5 2 10 99 100 100 100 94 5 6
0 0 0 0 0 0 0 0 0 0 0 0 0 5 4 0 5 5 43 100 100 100 100 100 100 100 100 100 31 57 100 99 34 8 5 5 5 4 4 19 7 60 100 100 100 89 9 47 12
0 0 0 0 0 0 0 0 0 0 0 0 0 0 1 2 0 0 0 66 100 100 100 100 100 100 100 100 100 98 88 100 100 98 100 88 97 29 80 100 100 17 58 99 5 5 10 28 5
0 0 0 0 0 0 0 0 0 0 0 0 0 0 0 0 0 0 3 1 74 98 89 100 100 100 100 100 100 100 99 100 100 100 100 100 56 78 100 90 53 21 8 48 54 5 5 5 10
0 3 0 0 0 0 0 0 0 0 0 0 0 0 0 0 0 0 0 0 0 57 74 78 93 100 100 100 100 100 100 100 100 100 100 90 9 45 5 37 93 100 90 22 5 5 98 5 6
0 0 0 0 0 0 0 0 0 0 0 0 0 0 0 0 0 0 0 0 0 5 92 100 100 97 79 86 40 39 95 100 100 99 98 100 100 42 16 76 76 77 47 69 100 97 5 5 30
0 0 0 0 0 0 0 0 0 0 0 0 0 0 0 0 0 0 0 0 0 5 100 100 100 93 100 96 27 29 41 87 80 17 21 19 35 42 31 42 32 66 100 100 100 16 5 7 25
0 0 0 0 0 0 0 0 0 0 0 0 0 0 0 0 0 0 0 0 0 0 21 78 93 76 100 97 90 22 21 28 89 7 5 5 7 58 100 94 99 100 96 79 74 36 30 14 9
3 0 0 0 0 0 0 0 0 0 0 0 0 0 0 0 0 0 0 0 0 0 0 0 1 23 41 93 99 100 26 5 5 11 12 41 100 100 100 100 100 100 100 100 67 7 17 38 12
5 5 1 1 0 0 0 0 0 0 0 0 0 0 0 0 0 0 0 0 0 0 0 0 0 8 26 28 6 18 53 5 5 21 97 100 100 100 100 100 100 100 100 100 51 10 27 5 5
35 78 35 0 0 0 0 0 0 0 0 0 0 0 0 0 0 0 0 0 0 0 0 0 0 0 14 8 1 0 17 42 100 100 100 100 100 100 100 100 100 100 100 100 72 99 5 5 5
100 100 46 5 4 2 1 0 0 0 0 0 0 0 0 0 0 0 0 0 0 0 3 0 0 0 17 17 0 0 90 100 100 100 100 100 100 100 100 100 100 100 100 88 99 100 46 5 5
41 100 99 85 84 5 4 1 0 0 0 0 0 0 0 0 0 0 0 0 0 0 0 0 0 4 41 8 0 0 24 100 100 100 100 100 100 100 100 100 100 100 100 100 100 94 77 6 5
7 100 100 100 100 90 3 0 0 0 0 0 0 0 0 0 0 0 0 0 0 0 0 0 0 45 9 0 5 50 45 44 100 100 100 100 100 100 100 100 100 100 100 100 97 100 66 5 5
100 100 91 100 100 14 2 0 0 0 0 0 0 0 0 0 0 0 0 0 0 0 0 0 14 0 0 0 0 15 40 30 98 100 100 100 53 99 97 100 100 100 100 86 71 5 32 5 5
100 100 97 62 29 5 2 0 1 5 4 0 0 0 0 0 0 0 0 0 0 0 0 1 0 0 0 0 0 19 14 72 100 100 100 100 100 57 80 87 83 100 82 89 4 5 5 5 5
96 99 14 5 68 99 5 3 0 0 2 5 0 0 0 0 0 0 0 0 0 0 0 0 0 0 0 0 0 0 0 32 100 100 100 100 97 10 36 56 5 90 84 33 5 5 35 80 8
47 53 46 86 28 100 92 100 0 99 89 100 39 0 0 0 0 0 0 0 0 5 4 0 0 0 0 0 19 27 5 100 100 100 100 100 68 5 5 5 5 52 86 53 5 5 21 48 2
47 22 56 50 80 95 22 32 0 4 93 100 100 74 4 0 0 0 0 0 0 5 4 0 0 0 0 36 100 45 3 60 100 100 90 100 10 5 5 4 41 93 94 33 5 5 54 2 0
98 100 99 98 100 41 27 46 0 0 5 63 100 66 13 2 0 0 0 0 0 6 6 2 0 0 0 72 100 93 40 100 100 99 60 81 2 5 0 5 56 92 74 14 5 5 0 0 0
68 17 17 29 24 5 5 14 0 0 0 0 28 100 20 0 0 0 0 0 0 20 10 7 0 0 0 45 100 100 100 98 99 94 100 1 5 5 0 5 5 15 5 5 3 0 0 0 0
100 100 14 93 10 100 20 0 0 0 0 0 4 100 100 1 4 2 0 0 0 4 5 5 0 0 0 6 84 100 100 100 100 100 45 0 5 5 0 5 5 5 5 5 5 5 0 0 0
100 100 94 100 95 100 5 4 0 0 0 3 27 100 100 5 1 3 5 4 0 0 0 2 4 4 0 47 100 100 100 100 100 42 10 5 5 5 5 5 5 5 5 5 5 5 1 3 5
100 100 100 100 100 96 53 5 0 0 0 0 54 100 100 10 0 6 5 19 22 5 1 5 5 5 81 100 100 100 100 81 9 14 95 78 28 5 5 45 5 5 5 5 5 5 5 5 4
100 100 100 100 100 100 100 10 91 3 5 1 0 100 98 10 0 5 5 35 11 5 5 5 5 80 100 100 100 92 5 5 23 65 100 100 83 28 86 30 49 5 5 5 5 5 5 5 5

GFSSGP_prec_cloud_024.txt.gz
Cloud_Cover
0 0 0 0 0 5 5 0 0 0 0 0 0 0 0 2 5 38 1 5 5 5 5 4 0 21 2 0 0 0 0 0 0 2 0 4 31 83 89 53 4 0 3 3 5 5 55 42 1
0 0 0 0 0 0 0 0 0 0 0 0 0 0 1 5 5 56 32 5 17 78 15 10 89 96 0 0 0 0 0 0 0 16 18 55 13 0 0 0 0 0 0 5 100 25 0 0 0
0 0 0 0 0 0 0 0 0 0 0 0 0 0 4 5 14 18 18 5 16 66 59 9 7 28 4 0 0 3 2 0 0 3 0 0 0 0 0 0 0 0 0 1 45 98 32 6 5
0 0 0 0 0 0 0 0 0 0 0 0 0 0 4 24 8 75 100 57 97 95 9 32 70 5 5 6 5 5 5 1 0 72 1 4 0 0 0 0 0 0 0 0 0 5 5 99 100
0 0 0 0 0 0 0 0 0 0 0 0 0 0 1 8 57 7 74 62 98 100 100 94 52 82 41 12 5 60 44 47 4 0 5 5 0 23 7 0 0 1 3 4 5 7 3 27 94
0 3 1 2 0 0 0 0 0 0 0 0 0 0 0 5 5 28 14 73 84 75 100 100 100 98 100 100 99 100 100 100 49 6 5 8 33 9 5 0 0 0 40 37 14 13 88 92 87
1 0 5 5 3 0 0 0 0 0 0 0 0 0 0 2 5 5 37 74 10 55 45 88 100 100 100 100 95 99 98 100 100 79 6 5 5 5 5 5 3 35 61 44 100 100 100 79 7
5 0 4 5 0 0 0 0 0 0 0 0 0 0 3 2 5 5 5 5 5 4 12 99 100 100 100 100 100 100 100 100 100 100 100 90 100 20 5 6 100 100 95 71 95 100 65 26 9
5 5 5 1 0 0 0 0 0 0 0 0 0 0 0 0 2 5 5 5 4 0 5 98 100 95 97 100 100 100 100 100 100 100 100 100 100 84 14 100 100 100 88 20 69 24 58 84 86
5 10 20 0 0 0 0 0 0 0 0 0 0 0 0 0 0 0 0 0 0 0 2 7 79 79 100 96 100 100 100 100 100 100 100 100 100 100 100 100 100 100 96 39 32 98 60 10 30
5 5 0 0 0 0 0 0 0 0 0 0 0 0 0 0 0 0 0 0 0 0 0 4 14 98 98 100 100 61 99 100 100 99 87 91 100 100 100 100 97 82 86 100 64 51 37 60 36
5 5 5 0 0 0 0 0 0 0 0 0 0 0 0 0 0 0 0 0 0 0 0 0 5 87 77 94 100 100 100 91 100 99 47 42 49 15 5 61 22 5 12 65 92 32 90 35 33
20 5 5 5 0 0 0 0 0 0 0 0 0 0 0 0 0 0 0 0 0 0 0 1 5 51 26 32 29 87 100 100 98 11 5 16 9 58 21 30 8 46 100 85 38 62 87 63 37
21 51 58 6 1 0 0 0 0 0 0 0 0 0 0 0 0 0 0 0 0 0 0 0 0 5 49 23 90 47 91 100 100 20 5 6 6 5 27 58 56 100 100 98 66 6 56 46 48
90 36 5 5 5 10 0 0 0 0 0 0 0 0 0 0 0 0 0 0 0 0 0 0 0 2 5 6 33 23 2 56 61 99 54 8 31 92 100 100 100 100 100 82 98 77 75 49 93
10 52 50 5 5 17 17 15 0 0 0 0 0 0 0 0 0 0 0 0 0 0 0 0 0 0 0 0 22 49 24 50 56 39 4 30 99 68 100 100 100 100 100 100 100 100 100 100 100
6 58 27 5 5 5 21 88 7 1 0 0 0 0 0 0 0 0 0 0 0 0 0 0 0 0 0 0 11 57 43 76 25 5 99 93 97 100 100 100 94 76 60 100 100 100 100 100 100
6 15 55 21 5 5 5 64 81 4 0 0 0 0 0 0 0 0 0 0 0 0 0 0 0 0 0 0 32 98 99 84 0 8 69 100 93 100 100 100 12 5 5 38 100 100 100 100 100
33 6 51 100 57 5 5 5 87 96 26 5 0 0 0 0 0 0 0 0 0 0 0 0 0 0 0 0 61 81 8 0 6 0 100 100 91 77 100 100 7 59 5 42 53 60 100 100 100
82 92 83 100 88 5 13 51 100 100 95 44 57 5 0 0 0 0 0 0 0 0 0 0 0 0 0 0 4 62 53 73 96 58 14 100 82 56 100 91 5 17 55 61 65 99 100 100 99
100 91 100 91 27 45 5 4 100 100 100 100 100 56 4 0 0 0 0 0 0 0 0 0 0 0 0 0 50 69 79 100 100 100 40 100 99 99 16 35 5 42 82 83 100 57 100 97 91
72 71 62 70 99 74 45 11 8 76 100 100 100 100 73 5 5 4 0 0 0 0 0 0 0 0 0 0 0 0 1 51 99 39 46 97 100 100 100 0 0 6 8 60 83 20 77 98 30
29 26 18 71 98 99 30 100 12 90 53 100 93 5 4 5 5 5 0 0 0 0 0 0 0 0 0 0 0 6 43 66 3 53 98 100 100 100 92 0 0 0 3 5 5 63 96 32 5
63 80 92 94 99 89 14 81 0 0 5 5 7 5 2 1 2 0 0 0 0 0 0 0 0 0 0 0 0 22 57 0 2 96 98 100 100 100 11 0 3 3 0 4 5 5 38 5 5
100 100 97 100 100 22 3 70 0 15 0 0 0 0 4 5 3 0 0 0 5 0 0 0 0 0 0 0 1 49 42 21 85 65 100 99 75 64 0 0 0 4 4 5 5 5 5 5 5
100 100 72 5 9 11 49 15 0 0 0 0 0 0 0 0 0 4 58 10 9 31 3 0 0 0 0 0 14 20 97 100 70 42 100 26 5 40 5 5 5 5 4 4 5 5 5 0 2
75 94 14 99 71 94 5 0 0 0 0 0 0 0 0 0 0 0 3 5 5 30 5 0 0 0 5 6 22 68 100 100 70 100 78 5 83 11 5 5 5 5 5 5 5 5 5 5 5
75 51 90 98 100 100 14 49 5 1 1 0 0 1 34 4 0 0 0 5 32 100 8 0 0 5 5 9 41 98 100 43 100 87 100 19 94 44 33 53 90 37 28 68 6 5 5 5 5
100 100 96 100 100 100 94 29 45 5 5 0 0 0 0 0 0 0 0 5 5 100 1 5 0 5 5 5 25 100 100 100 100 66 94 100 97 86 100 89 91 87 91 64 41 5 5 5 5
7 69 100 100 100 100 100 88 100 100 89 55 0 0 0 5 4 0 0 3 60 40 5 5 0 4 21 25 69 100 100 100 90 98 84 100 99 99 96 84 78 92 91 87 58 5 5 5 5

GFSSGP_prec_cloud_027.txt.gz
Cloud_Cover
0 5 5 5 33 4 5 5 0 0 0 0 0 0 0 4 91 84 27 2 1 5 10 5 0 0 0 0 0 0 0 0 0 0 25 0 0 0 30 0 0 0 0 0 0 98 100 96 93
0 4 5 5 5 5 0 0 0 0 0 0 0 0 0 0 0 0 20 5 2 5 9 12 5 1 0 0 0 0 0 0 0 19 0 0 0 0 0 0 0 0 0 0 0 0 2 1 0
5 5 4 5 7 5 2 3 0 0 0 0 0 0 0 0 0 2 4 5 5 5 5 5 4 61 3 0 0 0 0 0 6 1 0 0 0 0 0 0 0 0 0 0 0 0 0 0 0
0 0 4 2 0 0 0 4 0 0 0 0 0 0 0 0 0 1 5 5 5 5 5 5 25 21 10 0 1 2 1 3 4 0 4 2 3 0 0 0 0 0 0 0 0 0 0 0 0
5 1 2 1 0 0 0 0 0 0 0 0 0 0 0 0 1 5 13 77 90 48 19 7 76 33 60 7 5 5 9 28 19 5 5 5 5 7 12 1 2 3 0 0 0 0 0 0 57
5 5 4 5 0 0 0 0 0 0 0 0 0 0 0 0 0 3 4 5 8 44 69 15 10 100 100 100 72 37 96 61 81 99 82 44 20 50 77 11 5 5 0 0 0 15 2 1 5
5 5 4 3 4 0 0 0 0 0 0 0 0 0 3 0 0 5 5 5 13 18 6 10 50 10 26 100 100 100 100 77 77 100 100 99 87 67 32 7 28 5 5 3 9 31 5 100 100
5 5 5 6 5 0 0 0 0 0 0 5 0 0 13 0 0 0 5 5 5 5 5 5 100 77 89 40 20 100 100 100 100 100 100 100 100 100 100 100 100 80 96 6 75 6 99 98 24
7 5 18 29 1 2 0 0 0 0 0 0 0 0 0 0 0 0 5 5 5 5 5 5 12 84 32 79 98 61 94 100 100 100 100 100 100 100 100 100 100 100 100 96 76 93 100 100 100
5 20 73 5 4 3 5 1 0 0 0 0 0 0 0 0 0 0 3 5 5 5 1 0 0 16 96 100 94 92 81 100 100 100 100 100 100 100 100 100 100 100 100 100 100 100 100 100 96
11 100 19 5 5 3 5 1 0 0 0 0 0 0 0 0 0 0 0 0 0 0 0 8 11 18 44 100 100 59 50 90 100 100 100 100 100 100 100 100 100 100 100 100 100 100 100 14 5
7 26 78 5 5 5 0 0 0 0 0 0 0 0 0 0 0 0 0 0 0 0 0 0 0 14 43 100 86 61 33 22 39 100 72 53 86 99 100 100 100 78 100 74 32 29 21 77 95
64 10 56 100 11 5 3 0 0 0 0 0 0 0 0 0 0 0 0 0 0 0 0 0 0 0 9 48 42 12 51 43 24 30 100 63 7 73 97 87 100 72 25 5 5 8 43 24 28
25 5 47 89 89 5 2 0 0 1 0 0 0 0 0 0 0 0 0 0 0 0 0 0 0 0 1 5 36 9 30 29 84 71 10 35 100 85 88 56 27 22 28 60 7 5 18 5 33
94 35 19 11 18 93 8 4 5 2 0 0 0 0 0 0 0 0 0 0 0 0 0 0 0 0 0 5 5 16 27 59 99 39 34 17 23 96 100 100 96 65 99 5 0 5 14 5 31
20 45 82 9 9 100 13 6 5 5 5 1 0 0 0 0 0 0 0 0 0 0 0 0 0 0 0 2 14 30 20 44 100 100 59 47 11 0 0 7 28 98 99 60 5 3 5 5 5
60 100 100 100 91 56 38 64 5 5 5 34 4 5 0 0 0 0 0 0 0 0 0 0 0 0 0 0 0 0 24 99 100 100 100 85 2 0 0 26 86 14 5 5 5 5 5 5 5
46 77 100 100 100 79 26 19 9 5 5 31 91 25 3 2 0 0 0 0 0 0 0 0 0 0 0 0 0 11 100 100 100 100 57 9 0 2 40 85 100 55 33 5 5 39 42 5 5
82 45 24 81 22 5 5 7 73 9 23 5 17 99 96 4 0 0 0 0 0 0 0 0 0 0 0 0 0 0 0 73 100 71 0 0 0 82 49 31 73 18 63 5 5 78 80 5 17
73 29 10 7 5 5 4 10 45 87 5 5 5 6 24 18 5 2 0 0 0 0 0 0 0 0 0 0 0 0 62 100 100 15 0 6 93 68 29 56 84 0 5 5 5 5 72 59 74
100 39 28 8 5 5 5 5 5 82 63 66 74 100 100 100 80 27 1 1 5 2 0 0 0 0 0 0 0 77 100 100 98 65 20 0 33 100 100 82 80 5 5 5 3 5 6 60 5
100 82 52 55 52 38 32 5 5 5 17 93 100 100 100 100 100 98 34 21 17 5 1 0 0 0 0 0 0 1 0 26 52 79 60 2 4 98 100 100 98 9 5 4 1 0 3 5 5
100 100 100 99 100 83 60 49 5 51 97 82 96 19 3 67 100 100 100 36 8 6 16 5 0 0 0 0 0 15 0 15 49 100 100 45 36 94 100 100 92 5 5 5 2 0 5 0 0
100 100 100 100 100 66 58 11 0 24 5 5 9 3 5 0 0 3 31 60 5 5 11 100 14 5 0 0 0 0 0 0 27 100 100 47 59 84 73 100 98 6 6 8 5 0 4 5 4
100 100 100 100 100 34 4 4 4 68 0 0 0 1 2 5 3 0 0 0 5 5 4 5 38 24 0 0 0 0 8 0 0 36 13 8 51 59 100 99 100 42 6 32 32 4 4 5 5
100 100 99 23 7 4 4 1 0 0 0 0 0 0 0 0 0 0 0 0 0 2 5 5 5 1 5 4 5 28 60 0 1 5 43 12 47 80 91 100 100 100 38 34 46 5 5 5 5
76 97 16 94 28 48 2 5 0 4 0 0 5 0 0 3 0 0 0 0 0 0 0 0 0 0 4 37 6 100 20 38 92 19 20 76 100 98 52 46 10 80 90 34 35 5 5 7 28
76 41 83 99 81 82 5 14 29 71 100 85 32 5 75 58 1 0 0 0 0 0 0 1 5 2 7 38 80 52 45 100 99 85 100 96 92 80 24 15 5 58 78 30 5 5 12 56 5
96 99 68 70 90 97 85 6 83 15 3 2 57 62 100 28 5 0 0 0 0 0 0 0 3 5 57 100 81 41 66 100 100 100 98 100 59 91 92 64 77 84 58 67 6 14 77 24 5
67 38 60 100 84 98 100 88 97 100 100 97 41 92 74 5 5 0 0 1 3 23 24 56 22 0 54 100 94 92 70 100 100 74 100 100 80 82 100 55 90 58 22 5 5 81 74 19 5

GFSSGP_prec_cloud_030.txt.gz
Cloud_Cover
5 5 7 5 60 89 7 4 0 0 0 0 0 0 0 0 14 4 5 5 4 0 1 2 4 0 0 0 0 0 0 0 0 11 35 20 1 0 0 0 0 0 0 0 11 97 100 100 84
5 4 5 5 6 7 6 1 5 0 5 4 0 0 0 0 0 4 1 5 5 4 0 1 0 0 0 0 0 0 0 0 4 6 0 0 0 0 0 0 0 0 0 0 0 0 2 0 0
5 5 1 5 5 67 5 36 88 2 5 1 0 0 0 0 0 1 5 4 5 5 4 2 0 0 0 0 0 0 0 3 4 0 0 0 0 0 0 0 0 0 0 0 0 0 0 0 0
5 4 0 3 3 0 5 5 9 13 4 1 0 0 0 0 0 0 0 0 0 0 0 0 2 2 0 0 0 3 5 1 5 5 5 0 5 4 0 0 0 0 2 0 0 0 0 0 0
5 5 3 5 5 0 0 3 63 5 5 4 0 0 0 0 0 0 0 4 0 1 5 5 5 5 4 0 0 5 5 11 5 5 5 5 5 5 11 12 5 5 5 5 4 0 1 0 0
2 31 37 98 6 4 0 0 0 1 0 0 0 0 4 0 0 0 0 3 5 5 5 5 5 5 4 0 2 5 28 29 82 100 72 12 5 28 60 86 47 10 6 62 14 5 5 3 3
5 4 24 12 5 3 5 0 4 0 0 0 0 0 0 0 0 0 1 5 5 3 4 5 15 5 5 0 5 1 59 100 100 100 100 98 96 100 86 42 81 87 6 71 67 39 20 68 53
6 5 5 99 63 5 4 1 3 1 0 0 0 0 3 5 0 0 0 0 5 0 4 1 2 5 5 0 2 5 1 3 95 100 100 100 100 100 100 100 100 100 100 90 100 100 100 100 72
17 5 5 5 5 3 0 0 4 0 2 0 0 0 0 5 0 0 0 1 4 4 2 1 5 9 3 0 4 5 5 0 2 5 40 100 100 100 100 100 98 42 94 100 100 100 100 88 93
14 49 98 30 3 0 0 0 5 0 1 0 0 0 0 0 0 0 0 0 0 2 5 0 0 0 77 62 2 5 5 5 5 4 35 68 34 76 100 100 100 100 100 100 100 100 100 100 100
65 86 96 86 6 5 4 0 0 3 3 0 5 5 5 0 0 0 0 0 1 3 0 1 54 64 24 100 52 4 5 5 5 5 5 6 35 64 14 53 100 100 100 100 100 100 100 100 100
100 100 100 99 7 17 8 5 0 0 0 0 3 0 0 4 0 0 0 0 0 0 0 0 3 96 4 3 100 2 0 5 5 5 4 5 0 11 92 69 31 17 99 95 70 67 89 84 100
100 100 100 100 10 80 5 8 5 9 2 0 0 0 0 2 0 0 0 0 0 0 0 0 8 38 54 0 94 0 33 0 2 5 14 5 5 4 0 13 96 95 8 5 23 99 100 6 64
100 100 100 100 100 11 4 35 5 8 1 0 0 0 0 0 0 0 0 0 0 0 0 0 0 31 4 15 12 0 36 40 86 65 5 5 40 27 5 22 0 78 100 90 36 41 22 34 68
100 100 100 100 100 93 9 4 35 30 5 5 0 0 0 0 0 0 0 0 0 0 0 0 0 0 0 15 0 3 100 96 46 99 55 64 74 4 3 1 5 0 3 5 24 92 96 41 5
100 100 100 100 100 95 5 81 7 60 30 5 3 0 0 0 0 0 0 0 0 0 0 0 0 0 0 0 0 0 0 0 5 93 100 5 5 4 0 3 5 0 52 32 5 5 5 5 5
100 100 100 100 100 93 5 5 5 11 16 5 37 1 1 5 2 0 0 0 0 0 0 0 0 0 0 0 0 0 0 99 27 56 100 81 50 0 0 0 1 0 0 0 4 5 5 5 5
95 100 100 89 32 10 5 5 5 5 5 7 93 5 4 5 5 5 2 0 0 0 0 0 0 0 0 0 0 0 20 66 66 99 86 74 92 0 0 0 0 1 0 0 0 4 5 5 5
91 76 5 41 29 37 5 5 5 5 5 38 13 5 5 14 60 80 35 46 4 0 0 0 0 0 0 0 0 0 0 42 100 100 75 74 24 0 0 0 0 14 0 0 0 0 5 5 5
71 36 5 5 5 3 5 5 5 5 5 17 33 49 35 5 5 9 57 48 100 82 8 2 0 0 0 0 0 0 0 0 0 52 76 73 6 4 0 0 39 87 43 6 0 0 0 5 5
82 34 25 5 5 5 5 5 5 13 56 5 58 10 5 12 5 5 5 6 19 98 100 87 4 1 0 0 0 0 1 0 0 33 42 73 10 5 0 0 0 32 64 92 100 73 6 5 0
100 100 100 84 15 5 4 5 5 6 96 32 46 5 5 5 5 5 5 5 5 26 100 100 99 25 1 0 0 0 0 0 0 0 19 68 19 3 8 1 7 10 81 61 97 100 100 67 4
98 100 100 100 90 55 8 5 95 84 68 71 5 5 5 5 5 0 0 0 4 5 75 100 100 100 88 5 2 0 0 4 0 0 80 100 57 65 43 55 100 52 64 92 98 58 98 99 13
9 5 80 100 82 87 100 83 95 9 100 100 37 5 5 5 5 2 0 0 3 5 19 99 100 100 100 100 40 15 6 1 0 11 99 100 100 100 100 100 100 88 100 100 97 100 100 84 12
96 99 100 100 100 89 96 83 100 100 96 65 32 5 5 3 3 3 0 0 0 0 5 5 94 100 100 100 92 88 45 8 5 6 24 86 100 100 100 100 56 38 56 41 80 100 100 100 100
100 100 100 36 60 86 93 69 100 100 100 81 5 5 5 0 0 0 0 4 4 0 0 5 15 47 20 5 8 6 5 61 5 5 0 100 100 100 100 98 82 99 98 0 9 84 100 100 100
100 100 85 83 92 12 83 100 100 98 75 4 0 0 0 0 0 0 0 0 0 0 0 0 0 1 1 0 4 31 100 64 21 0 62 100 100 100 100 94 92 53 50 5 5 90 93 52 21
98 100 96 100 79 100 98 77 31 2 0 0 0 0 0 4 1 0 0 0 0 0 0 0 0 0 0 9 28 100 72 21 6 5 86 100 100 100 100 100 91 92 12 5 5 5 39 52 20
44 81 93 75 81 5 5 1 0 48 40 6 23 2 1 4 8 20 1 5 5 0 0 0 0 0 43 98 100 100 100 100 64 79 100 100 100 65 100 100 93 88 5 5 35 5 73 74 5
96 97 98 70 5 59 5 23 100 100 70 65 97 91 94 34 97 9 64 100 99 4 0 0 0 3 100 100 100 100 100 97 98 71 100 100 100 100 100 38 50 37 6 49 45 76 61 47 56

GFSSGP_prec_cloud_033.txt.gz
Cloud_Cover
100 94 6 18 5 17 16 6 5 5 5 37 5 4 1 0 0 2 0 4 5 24 18 0 0 2 5 0 0 0 0 0 0 0 0 10 5 0 0 0 0 0 48 1 49 94 80 44 0
5 52 100 69 77 99 82 6 5 5 5 5 2 0 0 0 0 0 0 0 4 5 12 4 0 0 0 0 0 0 0 0 18 2 2 1 2 0 0 0 0 0 5 0 0 0 0 0 0
5 5 89 96 100 100 26 6 5 5 5 2 2 1 0 0 0 0 0 0 4 5 8 4 0 0 0 0 0 0 0 14 2 0 0 0 0 0 0 4 0 0 0 0 0 0 0 0 0
0 0 4 81 100 97 31 5 5 13 5 0 1 5 1 2 0 0 1 0 5 4 3 1 0 0 3 0 0 0 0 2 0 5 0 0 0 0 0 2 5 5 2 5 4 4 2 0 0
5 2 1 44 100 49 12 1 5 5 5 3 5 2 1 5 5 4 1 4 0 0 0 0 5 5 5 5 0 0 4 2 0 0 1 3 5 2 0 5 5 5 5 5 10 7 14 5 5
5 1 5 94 9 5 5 1 5 4 2 1 5 2 5 5 14 5 5 5 5 1 3 5 5 5 5 5 0 0 4 0 0 0 0 0 4 30 6 5 5 11 5 5 8 5 48 15 5
6 5 13 5 4 5 4 0 0 3 0 2 0 0 15 13 5 5 1 0 0 1 2 6 5 1 3 1 0 0 0 0 0 0 4 2 2 7 47 50 80 18 14 6 8 14 19 73 99
5 7 8 98 93 76 0 0 0 0 3 0 1 0 0 5 10 3 0 0 0 0 1 5 3 0 0 0 0 0 0 0 0 0 0 0 4 5 84 99 100 100 100 100 100 100 100 100 100
13 10 57 100 100 79 3 0 4 5 1 3 5 0 0 0 3 0 0 0 0 0 1 1 8 0 0 0 0 0 0 0 5 0 4 0 0 0 4 91 100 98 55 66 92 100 100 100 100
5 11 100 100 96 34 3 0 0 4 2 0 5 2 0 0 0 1 0 0 0 0 0 2 0 0 0 1 0 0 0 5 2 5 1 4 0 0 2 41 24 63 22 42 47 88 100 94 100
22 81 100 100 100 6 5 5 0 0 0 4 3 0 4 0 1 0 0 0 0 0 0 0 0 4 5 5 4 0 0 0 3 4 5 4 3 0 0 4 3 2 5 5 8 12 97 98 100
86 60 100 100 75 5 12 5 0 0 0 0 0 0 0 0 4 0 0 0 0 0 0 0 0 0 0 5 1 0 0 0 0 0 5 5 5 2 0 3 2 0 0 0 8 7 14 20 96
100 99 87 99 41 22 87 20 5 5 2 5 0 0 0 0 0 0 0 0 0 0 0 0 0 0 0 0 0 0 0 0 0 0 0 0 5 5 0 5 1 0 0 0 0 0 3 5 82
100 100 100 100 100 100 99 91 9 5 5 4 4 0 0 2 2 0 0 0 0 0 0 0 0 0 0 0 0 0 0 0 0 0 0 0 4 5 5 29 5 0 0 0 0 0 0 0 1
100 100 100 100 100 100 47 57 13 12 5 5 5 67 32 0 0 0 0 0 0 0 0 0 0 0 0 0 0 0 0 0 0 0 5 1 0 5 53 4 0 0 0 0 0 0 0 0 0
100 100 100 100 99 100 28 100 100 60 5 11 5 6 5 5 2 0 0 0 0 0 0 0 0 0 0 0 0 0 0 0 0 0 0 0 1 0 0 0 0 0 0 0 0 0 0 0 0
100 100 100 100 100 100 100 100 100 94 5 10 5 36 31 26 5 3 5 0 0 0 0 0 0 0 0 0 0 0 0 0 0 0 0 0 0 0 0 0 0 0 0 0 0 0 0 0 0
100 100 100 100 100 100 100 100 100 100 94 98 79 5 5 17 7 5 5 4 0 0 0 0 0 0 0 0 0 0 0 26 0 71 0 0 0 0 0 0 0 0 0 0 0 0 0 0 0
100 100 100 100 100 100 100 100 100 100 100 100 100 6 0 5 5 5 13 6 5 4 0 0 0 0 0 0 0 0 0 0 100 100 31 0 0 0 0 0 0 0 0 0 0 2 5 4 0
100 100 100 100 100 100 100 100 100 100 100 97 33 5 5 5 5 5 5 35 6 5 5 0 0 1 3 4 1 0 2 32 9 90 100 26 2 0 0 0 0 0 1 0 0 0 8 98 70
99 25 54 97 76 56 97 99 97 98 54 5 6 5 5 6 5 5 5 5 5 5 5 5 0 5 6 6 20 14 1 57 96 100 28 14 6 4 39 4 0 1 4 3 0 1 0 24 93
42 26 17 5 3 1 4 5 31 9 42 8 5 5 24 5 5 2 0 5 22 51 5 5 5 0 5 6 5 7 5 5 3 0 2 79 11 16 93 70 12 5 27 10 0 0 21 5 11
100 67 58 58 5 5 5 2 74 60 38 6 5 5 5 3 0 0 2 5 5 6 44 9 5 5 4 0 5 5 5 5 21 5 2 37 54 18 91 95 41 68 99 77 9 4 99 10 87
100 99 9 5 27 49 56 5 6 90 100 82 6 6 5 6 5 5 1 3 5 4 5 6 5 5 0 1 5 5 60 92 10 5 4 1 26 13 87 97 88 100 100 100 86 75 56 89 8
90 25 33 6 94 22 6 5 7 98 46 100 100 64 19 9 5 5 29 62 9 5 5 3 1 3 1 0 2 5 98 100 100 34 5 26 51 11 35 64 100 100 100 100 89 100 100 20 2
100 72 13 15 54 5 1 0 5 95 96 28 100 100 100 100 97 15 26 54 68 63 34 5 0 0 1 4 0 2 81 100 85 78 100 93 28 5 80 100 100 100 100 100 100 45 66 0 5
51 83 23 32 5 25 4 39 100 100 100 100 45 5 5 5 5 5 5 1 5 4 4 5 5 1 0 0 0 3 5 97 99 56 25 41 79 85 95 100 100 100 100 99 98 37 65 5 5
37 5 73 64 48 30 91 100 100 100 97 41 62 5 5 5 24 3 2 0 0 0 0 0 0 0 0 0 0 0 4 16 100 100 44 33 95 100 98 100 100 100 100 86 89 90 5 5 5
81 99 72 86 98 91 86 90 86 8 5 6 28 69 73 72 25 67 7 4 2 0 0 0 0 0 0 0 0 0 4 51 16 9 40 5 54 100 100 100 100 100 100 96 100 100 40 5 5
100 74 78 62 85 99 13 61 5 5 5 5 5 5 81 100 100 100 50 99 100 88 42 0 0 0 0 0 0 0 4 50 98 100 64 65 100 100 100 100 100 100 100 100 100 61 42 72 66

GFSSGP_prec_cloud_036.txt.gz
Cloud_Cover
6 20 12 5 40 100 100 9 5 5 5 12 5 88 32 6 2 3 4 5 7 30 12 4 1 0 5 8 5 0 0 3 9 10 81 13 0 0 0 0 1 22 100 100 100 86 63 0 0
100 88 66 94 84 100 100 66 5 5 4 4 5 5 12 5 4 5 5 4 0 7 12 4 0 0 2 4 0 0 0 0 0 0 7 21 0 0 0 0 33 98 11 25 17 14 0 0 0
100 100 100 100 100 100 100 42 6 5 5 5 5 4 5 5 5 3 5 6 5 18 0 5 5 0 0 0 0 0 0 1 2 2 8 1 1 0 0 0 0 1 3 0 4 4 3 2 0
96 100 100 100 100 100 100 48 64 46 9 15 5 5 5 19 5 5 5 5 14 24 0 5 5 0 0 0 0 0 0 12 0 0 0 0 0 0 0 0 0 0 0 0 0 0 5 1 3
91 50 8 100 100 100 79 5 53 58 90 24 4 4 13 84 9 5 0 0 7 26 2 3 0 2 0 0 0 0 14 0 0 0 0 0 0 0 0 0 0 0 0 5 4 3 5 5 5
74 99 86 99 38 5 5 5 33 85 95 33 2 0 5 96 90 5 5 3 4 15 16 14 5 1 2 5 0 0 0 0 0 0 0 0 2 5 0 0 0 0 0 6 10 5 5 6 5
5 5 5 5 5 6 8 0 0 6 63 100 5 5 57 54 84 32 6 3 5 4 18 34 9 5 5 5 0 0 3 0 0 0 0 0 0 0 7 0 0 0 9 6 6 7 32 15 73
5 2 5 34 69 100 53 0 0 4 0 5 5 5 43 6 7 42 12 9 7 16 11 33 21 5 5 0 4 0 0 0 0 0 0 0 0 0 0 0 0 4 14 2 0 5 6 8 48
5 1 4 30 33 100 69 0 0 0 4 4 3 5 1 4 1 1 5 72 44 38 45 77 42 9 5 4 4 5 0 0 0 0 5 0 0 0 0 0 0 0 0 1 2 93 100 99 100
5 5 93 100 100 100 19 5 0 0 5 5 0 2 0 0 4 2 4 46 68 53 93 70 46 21 4 5 2 5 1 0 0 0 0 3 3 0 0 0 0 0 0 0 8 57 26 53 59
7 43 100 100 100 15 9 5 5 0 5 24 0 0 0 0 0 0 0 0 10 10 31 46 37 16 0 2 6 16 10 12 5 0 0 0 5 6 14 19 9 2 0 0 0 4 4 35 28
55 98 100 100 100 91 100 14 5 5 5 11 3 0 0 0 4 2 0 0 0 5 0 4 8 20 3 1 5 5 1 5 8 1 0 0 0 16 21 26 23 6 0 0 0 0 0 0 0
100 100 100 100 79 8 37 95 71 54 61 5 5 0 2 0 0 0 0 0 0 0 0 0 0 6 4 3 2 2 1 0 0 0 0 0 0 0 0 8 29 5 5 2 0 0 0 0 0
100 96 61 93 100 100 100 100 100 80 5 5 5 0 2 2 0 0 0 0 0 0 0 0 0 0 0 0 1 3 3 0 0 0 0 0 0 0 5 5 5 5 3 0 0 0 0 0 0
100 100 100 100 100 100 84 100 99 88 5 18 5 5 1 5 5 7 0 0 0 0 0 0 0 0 0 2 0 0 0 0 0 0 0 0 0 1 5 4 5 3 0 0 0 0 0 0 0
100 100 99 100 98 100 9 100 100 100 16 43 54 19 35 34 8 5 3 0 0 4 1 0 5 2 0 0 0 0 0 0 0 0 0 0 0 1 4 0 0 0 0 0 0 0 0 0 0
100 100 100 100 100 100 86 100 100 100 100 100 100 100 91 48 21 77 51 5 5 2 5 5 0 1 0 0 0 1 3 0 0 0 0 0 0 0 0 0 0 0 0 0 0 0 0 0 0
100 100 100 100 100 100 100 100 100 100 100 100 100 100 100 100 92 19 37 5 4 4 4 0 0 3 0 3 5 5 5 5 5 5 5 0 1 2 0 0 0 0 0 0 0 0 0 0 0
100 100 100 100 100 100 100 98 100 100 100 95 100 100 100 100 100 100 25 5 5 5 5 5 2 0 2 0 2 0 76 98 16 10 48 5 3 0 5 0 0 0 0 0 0 0 0 0 0
100 100 100 100 100 100 100 100 100 100 100 100 100 100 100 100 100 100 100 94 37 5 4 3 5 4 5 5 5 4 10 16 44 96 100 40 26 55 93 100 43 5 0 0 0 0 0 0 0
100 100 100 100 100 100 100 100 100 100 100 100 100 100 100 100 100 100 100 100 60 5 5 5 5 5 5 5 5 42 17 54 100 100 100 95 34 84 100 74 53 14 5 0 0 0 0 0 2
27 84 100 100 100 100 100 100 100 100 100 100 100 100 100 100 100 97 40 16 5 5 5 5 5 5 5 5 5 5 11 12 56 8 74 96 81 95 100 100 100 90 34 4 1 4 0 4 4
75 5 10 74 100 100 100 98 100 100 100 100 100 100 100 96 58 30 7 16 15 5 5 5 5 5 1 5 5 5 5 5 12 12 5 5 12 93 100 100 100 100 75 72 98 88 63 30 18
68 57 46 22 6 58 84 94 100 100 100 97 92 70 15 5 5 5 3 4 4 0 0 0 3 5 4 1 4 5 5 8 15 5 5 5 5 53 100 100 100 100 100 87 100 100 100 94 97
100 81 41 75 98 97 31 5 43 98 100 100 86 31 66 88 20 5 5 5 3 3 5 4 1 0 1 5 5 5 13 12 7 43 19 5 5 5 89 100 100 100 83 97 100 100 100 97 82
100 96 100 100 100 61 90 20 6 31 79 77 100 61 5 0 2 5 5 7 93 100 86 35 5 6 5 5 5 2 0 5 5 70 43 5 28 57 73 100 100 100 91 66 100 100 100 99 99
100 100 100 100 31 34 15 28 38 94 34 3 0 0 0 0 4 7 99 100 100 100 100 100 100 56 9 5 5 31 5 0 4 5 5 5 5 14 5 82 100 100 83 100 100 100 100 100 100
100 100 100 100 57 53 99 97 80 15 2 0 0 4 7 34 58 76 76 61 46 28 22 3 6 6 16 5 5 5 3 0 0 0 5 5 5 15 95 100 100 100 100 100 100 100 100 100 100
100 98 100 100 16 32 67 40 5 5 22 35 8 5 5 4 4 9 50 10 5 9 5 4 3 0 0 8 2 4 2 0 0 2 5 5 5 92 100 100 100 100 100 100 100 100 100 100 100
48 44 40 5 66 12 50 94 13 5 16 90 72 6 52 9 5 78 62 100 66 98 59 10 100 64 1 0 0 0 0 0 0 5 5 5 96 100 100 100 100 100 100 100 100 100 100 100 100

GFSSGP_prec_cloud_039.txt.gz
Cloud_Cover
5 8 4 5 6 100 100 100 100 65 6 5 5 5 3 5 16 94 100 35 5 24 6 5 5 70 94 100 93 4 6 6 14 10 100 66 3 0 0 1 5 2 55 75 99 86 85 1 0
34 58 50 5 72 100 100 100 100 100 95 46 50 5 5 5 13 47 63 33 22 8 5 5 5 37 34 35 10 6 2 9 14 13 62 15 1 0 0 0 67 99 100 100 98 16 0 0 0
100 100 88 5 18 99 47 27 100 100 100 100 7 5 5 4 1 16 33 45 44 16 6 21 43 5 9 12 9 1 2 1 3 5 22 19 0 0 0 10 100 100 32 10 0 0 0 0 0
86 62 95 99 100 100 36 5 6 100 100 100 83 5 2 0 4 5 32 82 60 47 5 5 5 5 5 5 4 0 0 3 9 9 18 0 0 0 0 0 0 0 0 0 0 0 0 0 0
100 100 54 98 100 100 81 1 5 78 100 100 80 5 4 23 5 4 39 69 76 86 21 5 3 4 0 1 5 4 5 31 14 0 0 0 0 0 0 0 0 0 0 0 0 0 0 0 0
100 100 100 100 100 100 97 5 64 40 59 45 92 5 8 43 19 27 48 56 54 43 11 5 5 1 0 0 5 5 33 3 0 0 0 0 0 0 0 0 0 0 4 0 8 1 0 0 0
100 100 100 100 100 100 100 71 94 100 100 100 45 5 54 74 47 24 22 14 36 34 35 7 5 4 3 5 5 2 27 0 0 0 0 0 0 0 0 0 0 0 5 8 15 17 0 0 0
93 100 100 100 100 100 100 100 100 100 98 99 79 14 41 60 87 82 10 5 34 39 31 20 5 5 3 5 5 5 99 0 1 0 0 0 0 0 0 0 0 11 0 0 10 13 0 0 0
74 8 98 100 100 100 100 99 79 47 38 87 74 83 21 68 56 19 49 77 91 78 47 45 37 10 12 5 5 4 93 5 5 3 0 0 4 3 0 0 0 0 0 0 2 1 0 0 0
43 7 99 100 100 100 37 51 54 90 100 99 41 6 6 6 8 51 100 100 100 100 98 100 86 30 8 5 5 2 5 5 5 0 0 0 0 5 5 0 0 0 0 0 0 0 0 0 0
100 99 100 100 100 100 11 0 5 6 92 100 60 5 5 1 5 31 50 82 100 100 100 100 97 41 9 8 39 24 23 26 13 4 0 4 13 13 11 10 12 9 0 0 0 0 0 0 0
100 100 100 100 100 100 29 1 0 4 6 11 7 6 5 5 0 5 5 34 88 98 100 100 98 67 21 4 5 5 6 20 28 15 0 18 33 24 24 30 23 21 5 3 0 4 0 0 0
100 100 100 100 100 96 53 10 5 5 5 3 5 5 5 4 5 4 1 5 42 90 95 92 97 68 39 4 0 3 7 15 3 9 0 0 22 24 28 24 27 19 5 5 5 4 0 0 0
100 100 100 100 100 98 100 100 20 23 5 0 5 5 5 0 47 17 5 5 1 3 14 28 57 58 42 25 1 2 3 5 3 5 0 0 0 16 9 23 23 16 5 5 5 0 0 0 0
100 100 100 100 100 100 100 100 98 97 5 5 5 5 35 69 100 100 75 5 5 4 1 0 18 40 40 27 10 0 0 0 0 0 0 0 0 0 0 4 18 6 4 2 0 0 0 0 0
100 100 100 100 100 100 100 100 100 100 62 5 2 9 66 100 100 100 100 31 5 5 5 2 2 16 37 32 25 0 0 0 0 0 0 0 0 0 0 4 2 0 0 0 0 0 0 0 0
100 100 100 100 100 93 100 100 100 100 100 74 18 100 100 100 99 87 99 50 5 5 5 9 5 5 11 11 12 4 1 4 5 5 4 0 5 0 0 0 1 1 0 0 0 0 0 0 0
100 100 100 100 100 100 100 100 100 100 100 100 99 100 100 100 100 92 40 100 92 13 5 5 35 77 5 5 34 28 6 3 4 13 5 5 12 9 9 5 5 5 5 3 0 1 0 0 0
100 100 100 100 100 100 100 100 100 100 100 100 100 100 100 100 100 100 100 100 100 89 5 5 5 5 5 26 66 71 4 5 2 5 5 6 8 12 24 5 12 5 5 11 14 5 5 4 0
100 100 100 100 100 100 100 100 100 100 100 100 100 100 100 100 100 100 100 100 100 100 86 35 11 5 5 6 58 18 5 5 5 5 11 42 98 9 6 17 96 100 74 68 100 7 4 4 3
100 100 100 100 100 100 100 100 100 100 100 100 100 100 100 100 100 100 100 100 100 98 100 100 99 96 68 5 20 57 32 43 32 16 5 100 9 100 95 87 100 100 100 100 100 73 80 15 5
100 100 100 100 92 98 100 100 100 100 100 100 100 100 100 100 100 100 100 100 100 100 100 100 100 100 30 6 5 5 5 14 9 5 8 20 9 6 75 98 100 100 100 100 100 100 81 26 14
100 100 100 100 100 97 100 100 100 100 100 100 100 100 100 100 100 100 100 100 65 72 65 64 60 62 55 6 5 5 53 71 64 46 6 32 89 6 5 94 100 99 100 100 100 100 100 87 100
80 100 100 89 92 100 100 100 100 100 100 100 100 100 100 100 100 100 100 100 100 85 14 5 35 59 38 14 5 5 5 4 24 33 50 19 6 63 16 6 39 84 100 100 100 100 100 100 100
100 100 80 5 64 93 95 100 100 100 100 100 30 57 66 26 28 14 12 15 19 21 5 15 17 11 14 5 5 3 4 3 2 5 5 46 10 5 36 61 49 100 99 83 100 100 100 100 100
100 90 100 100 72 5 5 20 82 100 100 100 74 52 5 5 5 6 5 5 5 5 5 24 72 62 9 23 88 96 99 80 23 5 5 5 5 15 6 60 94 100 68 85 82 90 100 100 100
78 64 85 15 7 39 6 99 100 100 74 6 5 10 5 5 5 2 0 0 0 0 0 0 0 0 2 1 5 5 10 34 99 100 39 90 100 99 55 7 74 72 95 89 100 100 100 100 100
100 100 100 100 100 41 80 100 100 77 74 76 12 5 5 4 0 0 0 0 0 0 0 0 3 5 33 61 32 7 6 47 93 99 96 98 100 100 97 14 47 64 96 100 100 100 100 100 100
100 100 100 75 35 87 100 100 10 5 5 5 4 2 4 4 5 5 3 0 5 5 36 23 4 3 4 5 17 58 97 100 88 56 100 100 100 100 100 100 100 46 93 100 100 100 100 100 100
100 100 100 99 100 100 100 100 100 84 50 27 5 22 37 78 78 8 5 3 0 4 100 100 94 28 6 51 5 24 24 7 36 98 100 100 97 83 79 85 72 100 100 100 100 100 100 100 100

GFSSGP_prec_cloud_042.txt.gz
Cloud_Cover
100 100 100 57 26 6 5 4 0 0 0 0 0 1 18 1 5 5 5 5 5 5 49 8 5 5 47 100 19 5 5 5 6 61 85 18 5 5 3 0 1 26 32 47 92 63 49 0 0
92 97 100 100 100 100 90 7 5 4 0 3 4 1 3 5 5 30 24 8 5 5 24 36 19 5 91 100 100 12 16 12 5 58 100 64 0 0 0 0 0 90 85 99 89 4 0 0 0
5 32 77 98 100 100 82 46 35 19 3 1 5 5 40 55 15 5 5 5 28 6 5 9 17 68 89 100 4 4 11 17 18 61 98 15 0 0 0 20 64 94 34 37 15 3 0 0 0
50 49 36 99 100 24 7 5 32 45 5 31 100 97 100 52 18 27 100 34 34 28 2 0 32 21 86 77 12 6 7 12 10 49 30 0 0 0 0 94 100 11 0 0 0 0 0 0 0
75 39 23 88 100 39 5 5 5 39 48 95 100 100 100 100 100 70 67 91 84 33 3 5 37 11 5 9 17 12 5 5 6 7 16 4 0 0 0 1 0 0 0 0 0 0 0 0 0
97 70 48 100 100 100 42 0 5 6 20 81 93 86 100 100 100 100 95 100 100 40 7 6 60 5 5 5 0 5 5 93 12 6 5 0 0 0 0 0 0 1 0 0 3 1 2 10 10
52 100 100 100 100 100 84 4 5 100 71 5 8 80 98 64 22 100 100 100 100 39 20 3 1 5 5 0 1 5 62 5 5 4 4 5 1 0 0 4 1 0 1 3 5 10 6 2 0
72 91 100 100 100 100 82 6 5 100 80 53 66 28 32 19 93 100 100 100 100 51 28 22 7 5 25 4 4 3 98 0 0 0 0 16 4 3 0 5 4 17 0 0 0 8 0 0 0
21 63 100 100 100 100 100 50 5 99 100 100 100 100 99 54 100 100 100 100 100 98 69 40 26 14 5 5 2 5 100 5 0 1 0 0 0 2 5 4 1 2 0 0 3 9 0 0 0
70 47 100 100 100 100 93 89 80 97 100 100 100 100 100 100 100 100 100 100 100 100 100 99 47 34 17 5 21 76 56 36 5 5 2 0 5 2 0 5 5 1 3 0 4 0 0 0 0
100 100 100 99 100 100 90 34 89 75 100 100 100 100 100 75 100 100 100 100 100 100 100 46 69 50 17 5 10 26 81 43 13 41 5 4 6 10 14 6 4 6 2 5 6 0 0 0 0
100 100 100 100 100 100 95 100 100 100 100 100 100 100 100 100 63 86 100 100 100 100 100 100 100 98 35 4 14 13 58 24 51 83 6 16 41 43 31 27 20 26 20 5 5 4 3 0 0
100 100 100 100 100 100 84 40 96 100 100 100 100 100 96 95 44 20 5 45 100 100 100 100 100 100 92 11 8 12 27 30 90 81 8 13 35 45 30 26 31 31 8 2 5 5 5 0 0
100 100 100 100 100 100 94 13 5 98 44 41 28 90 93 97 39 28 15 39 17 70 100 100 100 100 100 50 7 0 0 8 19 20 10 5 21 27 25 30 31 30 6 0 4 5 3 0 0
100 100 100 100 100 100 100 100 71 79 5 5 5 19 6 49 98 100 100 100 100 83 23 94 100 100 100 87 30 1 0 1 0 5 10 4 5 17 13 22 32 23 7 5 5 2 0 0 0
100 98 100 100 100 100 100 100 100 100 66 46 23 94 40 30 100 100 100 100 100 5 5 8 52 93 100 100 77 20 2 2 4 4 2 2 1 1 16 23 23 20 2 4 2 0 0 3 0
100 100 100 100 100 100 100 100 100 100 100 100 100 97 100 100 100 100 100 76 100 70 12 7 5 16 64 100 89 63 30 8 13 10 5 2 0 1 4 9 8 5 4 2 3 2 5 4 2
100 100 100 100 100 100 100 100 100 100 100 100 100 100 100 100 100 100 100 100 100 100 100 95 37 5 15 47 100 100 72 47 14 3 5 0 2 0 4 1 6 5 5 0 3 5 43 14 5
100 100 100 100 100 100 100 100 100 100 100 100 100 97 83 100 100 100 100 100 100 100 100 100 90 100 100 100 100 100 100 100 69 16 9 14 97 13 0 0 5 5 0 2 5 5 5 11 8
100 100 100 100 100 98 100 96 100 100 100 100 98 100 98 100 100 100 100 100 100 100 100 100 100 83 100 100 100 100 100 100 73 63 63 20 5 5 5 5 2 8 5 9 96 100 100 98 100
100 100 100 100 100 100 100 100 100 100 100 100 100 99 100 100 100 100 100 98 40 68 100 100 100 100 96 100 100 100 100 100 100 100 66 5 1 5 5 6 41 76 86 100 99 100 100 100 94
100 100 100 100 100 100 100 100 100 100 100 100 100 100 100 100 100 100 75 99 100 100 100 100 100 100 100 43 97 100 100 100 100 100 51 18 6 5 5 5 74 100 79 98 100 100 100 100 99
100 100 100 100 100 100 100 100 100 100 100 100 100 100 100 100 100 100 100 44 27 68 100 100 100 100 100 100 98 100 85 100 100 100 62 41 17 19 15 59 100 100 97 100 100 100 100 100 100
100 100 100 100 100 100 100 100 100 100 88 97 100 100 98 92 99 100 100 100 100 96 72 99 100 100 100 100 100 100 90 42 97 100 86 68 65 68 78 100 49 45 77 68 86 100 100 100 100
100 100 100 100 100 100 100 100 100 100 100 94 23 32 32 39 52 69 65 34 43 67 36 5 5 6 18 12 37 86 65 9 6 23 100 98 100 100 61 20 51 29 7 8 54 90 100 100 100
100 100 97 100 100 100 100 97 100 100 99 100 97 5 5 5 5 11 12 7 5 5 53 33 8 18 39 38 6 5 5 34 98 45 13 67 96 100 100 100 56 96 86 98 100 100 100 100 100
99 77 96 100 100 100 83 96 85 10 7 5 32 39 5 5 5 5 5 5 5 5 5 20 13 5 5 8 4 4 5 4 3 3 57 97 93 84 50 100 100 100 80 100 100 100 100 100 100
100 100 100 100 75 51 100 100 76 5 5 5 5 5 4 5 8 12 33 29 17 5 8 4 3 5 0 0 0 0 0 0 0 4 20 16 4 27 57 90 100 100 100 76 98 100 100 100 100
49 32 8 5 35 86 100 98 6 5 2 2 0 5 24 96 25 12 5 5 5 4 1 0 0 4 4 3 1 0 0 3 14 28 32 44 45 32 91 100 100 100 100 100 100 100 100 100 100
100 100 100 74 32 100 100 76 37 5 5 5 5 32 91 100 40 5 5 5 24 0 0 0 0 5 69 94 100 93 60 49 70 74 72 32 49 63 100 100 100 100 100 100 100 100 100 100 100

GFSSGP_prec_cloud_045.txt.gz
Cloud_Cover
24 67 98 6 0 0 0 0 0 0 0 0 2 4 0 0 0 0 1 4 0 0 0 91 20 5 5 12 7 39 61 70 76 56 27 58 63 24 5 5 5 8 2 41 72 55 0 0 0
25 24 54 100 13 5 1 0 0 0 0 0 0 5 10 3 4 31 8 15 0 0 0 5 5 5 4 39 31 3 2 4 65 47 58 4 5 5 9 7 13 11 48 100 98 0 0 0 0
84 26 8 86 100 52 3 0 4 0 0 0 0 4 62 39 5 7 5 17 3 0 0 4 5 5 5 22 100 24 5 7 42 80 94 18 0 0 5 0 90 100 100 90 3 0 0 0 0
75 96 12 100 100 85 6 5 5 4 5 5 0 0 5 51 57 43 5 26 33 28 0 5 8 14 80 88 93 5 11 13 44 54 95 0 0 0 0 0 98 21 1 0 0 0 0 0 0
95 54 7 100 100 100 100 57 6 5 0 3 5 8 1 3 19 21 34 43 26 29 5 2 66 100 100 85 59 3 19 13 6 53 7 5 5 4 31 100 78 0 0 0 2 4 4 2 8
6 42 16 85 100 100 100 100 100 52 5 5 5 46 58 17 6 100 100 96 74 52 6 5 92 94 44 5 5 5 5 4 5 17 4 2 5 5 5 3 3 5 5 4 0 2 0 7 3
6 46 100 100 100 37 17 76 100 99 38 5 65 21 26 5 14 100 100 100 100 100 99 5 32 14 5 5 1 0 0 22 3 5 5 2 1 3 2 5 5 4 6 4 5 6 16 1 0
29 56 49 100 100 100 5 2 5 7 70 11 14 5 5 5 69 100 100 100 100 100 76 5 5 7 5 0 0 0 3 76 5 2 4 0 3 0 0 3 2 2 4 0 0 5 0 0 0
6 29 94 100 100 100 99 8 5 84 76 6 5 6 5 5 100 100 100 100 100 98 54 43 18 5 5 5 4 4 82 43 4 1 0 29 0 0 0 1 1 0 12 1 0 1 0 0 0
6 2 100 100 100 100 100 12 5 6 87 94 5 9 5 97 100 100 100 100 100 100 100 89 45 24 63 5 5 13 68 85 5 5 3 0 0 1 0 0 0 0 8 0 19 3 0 0 0
94 6 97 100 100 100 100 9 5 12 80 100 45 6 27 98 100 100 100 100 100 100 100 100 92 44 27 1 1 5 91 100 55 5 5 5 5 3 30 0 0 1 0 24 32 5 5 0 0
100 100 100 100 100 100 100 66 6 63 100 91 100 100 74 20 92 100 100 100 100 100 100 100 86 50 65 10 4 16 84 91 88 82 75 66 5 5 41 30 0 6 29 0 0 4 5 5 0
100 100 100 100 100 100 97 52 42 100 44 99 100 100 100 97 28 5 33 91 97 100 100 100 75 31 100 76 18 3 9 87 80 79 61 16 64 17 5 36 5 3 28 0 4 0 5 5 4
100 100 100 100 100 100 100 57 20 99 54 94 94 84 90 100 95 72 12 19 100 56 98 100 100 98 100 100 55 0 1 29 23 10 5 5 5 34 10 37 34 12 14 0 3 5 5 0 2
100 100 100 100 100 100 100 100 98 77 10 58 100 99 76 90 83 90 16 6 20 6 5 7 85 100 100 100 90 23 4 6 4 12 3 2 5 5 5 26 46 2 0 0 4 5 4 0 0
100 100 100 100 100 100 100 100 100 100 100 57 18 87 100 100 100 100 100 100 5 5 5 5 6 77 100 100 100 78 36 74 62 9 22 7 5 4 7 33 33 5 0 0 2 3 2 0 5
99 100 100 100 100 100 100 100 100 100 100 100 99 100 100 100 100 100 95 64 9 9 5 5 15 38 92 100 100 100 77 32 100 92 7 18 69 15 5 27 7 3 0 0 4 5 4 5 2
100 100 100 100 100 100 100 100 100 100 100 100 100 100 100 100 100 89 70 100 100 94 95 37 24 5 38 94 100 100 100 96 62 38 13 74 51 40 44 26 5 4 6 5 4 1 0 4 0
100 100 100 100 100 100 100 100 100 100 100 100 100 83 5 45 60 100 100 100 100 100 100 100 100 100 83 100 100 100 100 100 100 86 86 100 100 100 100 34 5 5 5 5 5 5 5 4 5
100 100 100 100 100 100 99 100 100 100 100 100 100 100 100 95 97 100 100 100 94 100 100 100 100 100 100 100 100 98 100 100 100 100 100 52 21 63 14 51 20 6 5 5 5 10 17 5 34
100 100 100 100 100 100 100 100 100 100 96 48 85 100 100 92 100 98 12 57 98 99 94 100 100 100 100 100 99 100 100 100 100 100 100 100 81 100 100 77 100 88 26 5 5 5 29 57 83
100 100 100 100 100 100 100 100 100 100 100 100 51 76 58 99 100 100 6 68 75 10 26 84 98 100 100 100 100 99 99 100 100 100 100 100 100 100 100 100 99 76 99 88 90 8 47 48 100
100 100 100 100 100 100 100 100 100 100 100 100 100 100 91 38 100 48 18 72 81 19 62 100 100 100 100 100 100 100 100 100 100 100 100 100 100 100 100 100 100 94 58 96 100 90 100 100 100
100 100 100 100 100 100 100 100 100 100 100 100 100 100 95 13 57 100 100 100 94 57 48 40 64 95 100 100 100 100 100 100 100 100 100 100 100 100 100 100 100 100 76 97 91 100 100 100 100
100 100 100 100 100 100 100 100 100 100 100 99 100 100 100 100 100 100 100 100 92 40 13 6 5 9 44 96 100 100 100 100 100 100 100 100 100 100 100 95 97 88 81 100 100 100 100 100 100
100 100 100 100 100 100 100 100 100 100 100 100 100 100 100 100 100 100 100 75 64 47 7 5 5 5 6 12 9 8 11 64 68 97 96 100 100 100 100 100 94 88 100 100 100 100 100 100 100
88 100 100 100 100 100 100 100 100 100 100 100 100 100 12 5 5 5 27 45 12 5 5 5 5 5 5 5 5 5 5 4 5 5 35 45 60 76 96 100 100 100 100 98 83 91 100 100 100
100 97 100 100 100 100 100 100 100 100 100 48 17 19 12 40 9 5 5 5 5 5 5 5 5 5 5 3 3 2 3 4 4 3 4 6 48 57 100 100 100 100 100 100 100 100 100 100 100
100 100 100 100 100 100 100 91 100 100 99 82 14 7 5 5 5 18 5 5 17 5 1 0 0 0 0 0 0 2 4 36 52 68 61 64 87 91 100 100 100 88 100 100 100 100 100 100 100
100 100 100 100 100 100 100 17 83 73 53 43 96 8 5 5 4 5 4 4 5 31 3 4 0 0 0 0 0 4 5 78 100 100 100 100 100 100 100 100 100 100 100 100 100 100 100 100 100

GFSSGP_prec_cloud_048.txt.gz
Cloud_Cover
5 2 0 0 0 5 2 0 0 0 0 5 0 0 0 0 0 2 0 5 0 0 4 0 51 0 3 23 7 5 10 26 18 16 5 5 5 5 5 5 5 9 6 30 35 8 5 0 0
5 5 5 3 1 5 5 1 0 0 0 0 0 0 0 0 0 0 0 0 0 0 5 25 4 5 5 5 54 5 12 6 83 52 5 5 5 5 5 12 8 18 35 62 32 0 0 0 0
5 5 3 5 47 14 1 0 4 2 0 0 0 0 0 0 0 0 0 0 0 0 0 7 0 0 3 4 39 2 5 8 100 67 23 2 0 8 14 22 72 85 100 100 29 0 0 0 0
50 5 0 3 99 30 3 0 0 0 0 0 0 3 4 0 0 0 0 0 0 0 0 29 3 0 3 78 100 21 14 2 10 46 34 5 5 14 5 6 100 100 99 5 0 0 0 0 1
95 5 5 0 90 98 4 0 0 3 4 0 0 4 5 5 1 0 0 0 0 0 1 22 2 8 53 100 80 76 7 13 92 48 36 2 1 7 5 5 14 54 2 3 5 5 5 5 8
98 12 5 22 5 39 6 23 1 0 0 0 0 0 0 5 0 0 3 1 0 3 4 5 67 100 100 100 100 18 12 9 14 49 0 2 5 3 27 15 3 0 0 0 0 0 3 10 3
100 90 47 83 99 89 5 17 100 24 0 0 0 0 0 0 1 66 64 5 15 12 0 2 38 100 100 97 8 5 5 14 5 9 4 0 0 5 5 4 4 0 0 1 0 0 11 0 0
23 100 82 70 94 77 0 3 21 100 76 5 5 5 5 5 7 81 100 100 84 22 6 5 90 100 100 77 6 5 6 27 97 1 0 0 1 5 0 0 0 1 0 0 0 0 0 0 0
100 100 100 100 100 91 18 0 4 22 99 100 40 5 5 0 70 100 100 100 100 46 18 7 65 100 100 100 54 5 5 92 3 4 1 0 0 0 0 0 0 1 22 8 15 0 0 0 0
98 98 100 100 100 100 100 5 1 5 14 98 100 100 100 92 100 100 100 100 100 99 62 13 82 80 82 88 17 5 10 100 60 5 5 0 1 0 0 0 0 2 93 11 23 0 4 2 0
11 65 100 100 100 100 100 7 5 5 5 17 61 99 98 8 93 100 100 99 100 98 100 96 18 43 86 76 59 27 9 5 5 5 5 5 5 14 0 0 0 0 61 11 25 0 2 5 5
66 100 100 100 100 100 100 98 5 21 8 29 6 49 8 5 6 91 100 87 100 100 100 100 95 14 11 21 6 5 5 5 9 67 5 5 5 17 19 5 0 0 12 50 68 1 0 1 5
64 100 100 100 100 100 100 100 91 42 77 95 94 93 56 9 5 5 6 19 57 76 100 100 100 55 18 5 5 5 5 5 72 68 75 5 5 5 16 25 12 1 0 3 2 0 5 0 0
100 100 100 100 100 100 100 100 97 46 15 100 100 100 88 54 50 5 5 5 5 5 28 98 100 100 56 97 14 9 5 5 15 75 77 60 5 5 6 17 41 27 3 0 0 0 0 5 5
100 100 100 100 100 100 100 100 100 38 5 79 100 100 95 89 23 5 15 12 5 5 15 5 30 25 53 100 81 29 47 18 5 47 64 42 5 5 5 5 12 47 28 1 0 0 0 1 5
100 100 100 100 100 100 100 100 100 48 6 65 100 78 98 100 89 24 5 5 5 5 58 50 46 20 22 98 100 100 64 34 18 5 5 8 5 61 63 8 5 37 58 11 5 5 5 0 1
100 100 100 100 100 100 100 100 100 100 99 91 100 100 100 100 92 75 70 61 5 39 85 78 55 11 5 16 100 100 100 93 19 44 9 10 5 37 9 11 48 83 64 32 5 5 4 10 5
100 100 100 100 100 100 100 100 100 100 100 100 100 100 100 100 100 100 96 12 6 9 5 5 5 5 6 52 95 100 100 100 50 27 20 40 24 34 51 30 46 6 32 47 87 69 33 8 8
100 100 100 100 100 100 100 100 100 100 100 98 96 98 100 100 100 100 100 100 100 100 100 100 45 5 10 37 100 100 100 100 100 100 79 94 100 100 69 28 5 5 28 46 100 100 63 5 8
100 100 100 100 100 100 100 100 100 100 100 100 100 85 74 40 94 89 91 100 98 90 20 68 91 100 100 92 20 8 60 100 100 100 100 100 100 100 53 34 60 73 18 12 41 41 55 100 35
100 100 100 100 100 100 100 100 100 100 100 100 100 100 99 74 65 95 100 100 100 100 100 100 100 98 100 100 100 82 37 71 100 100 100 100 100 100 100 100 100 100 100 99 100 100 100 100 100
100 100 100 100 100 100 100 100 100 100 100 100 100 100 100 100 99 69 37 35 95 84 97 71 100 100 100 100 100 100 100 100 100 61 100 100 100 100 100 100 100 100 100 100 100 91 99 100 100
100 100 100 100 100 100 100 100 100 100 100 100 100 100 100 100 100 84 68 44 48 52 7 5 10 10 57 100 100 100 100 100 100 100 100 100 100 100 100 100 100 100 100 100 100 100 100 100 100
100 100 100 100 100 100 100 100 100 100 100 100 100 100 100 84 86 82 54 60 6 5 5 5 5 33 63 69 94 100 100 100 100 100 100 100 100 100 100 100 100 100 100 100 100 100 100 100 100
100 100 100 100 100 100 100 100 98 92 39 67 55 99 99 92 60 62 19 6 5 5 5 8 5 5 5 17 61 94 92 82 83 100 100 100 100 100 100 100 100 100 100 100 100 100 100 100 100
100 100 100 100 100 100 100 100 68 84 73 8 8 66 100 80 7 5 36 32 54 42 39 27 5 5 11 9 6 30 30 25 31 67 75 87 73 100 100 100 100 100 100 100 100 100 100 100 100
91 100 100 100 100 100 100 100 100 100 100 99 81 64 84 100 71 100 100 100 93 49 54 50 46 30 19 5 5 5 5 5 5 5 4 5 6 72 52 77 100 100 100 100 100 100 100 100 100
100 97 96 100 100 100 100 100 100 100 100 100 100 100 100 100 100 100 100 97 100 95 51 22 5 5 4 2 3 0 0 0 0 0 0 1 2 3 15 100 100 100 100 100 100 100 100 100 100
53 5 8 50 100 100 100 100 100 100 100 100 100 100 100 100 93 100 92 51 5 5 5 5 5 5 3 0 0 0 0 0 0 0 5 42 94 100 100 100 100 100 100 100 100 100 100 100 100
5 70 100 98 100 100 100 100 100 100 100 100 100 100 100 100 100 80 26 5 54 48 6 5 5 1 0 0 0 0 0 6 8 16 33 76 100 100 100 100 100 100 100 100 100 100 100 100 100

GFSSGP_prec_cloud_051.txt.gz
Cloud_Cover
5 1 0 0 0 5 0 0 0 0 0 5 5 0 0 0 0 4 1 0 3 4 9 0 54 8 1 0 8 1 2 95 4 32 8 9 10 5 5 5 5 5 14 15 20 5 5 5 5
8 5 2 0 0 5 5 0 0 0 0 1 0 0 0 0 0 0 0 0 1 0 10 7 1 4 0 0 20 4 28 5 5 5 5 5 5 5 10 7 5 5 42 33 9 5 5 4 5
98 36 5 3 3 0 5 6 0 1 0 1 3 0 0 0 0 0 0 0 0 6 7 2 0 0 0 0 2 33 72 61 96 6 5 5 5 5 17 83 60 62 92 100 10 0 0 0 0
100 92 5 5 5 0 5 15 5 0 0 0 2 0 0 0 0 0 0 0 0 0 3 7 0 0 5 19 42 93 5 75 98 43 3 0 2 15 21 30 98 99 100 57 0 0 0 0 0
98 100 28 21 3 5 2 4 5 3 4 5 5 5 2 0 0 0 0 0 0 0 12 2 0 0 2 100 100 78 7 21 89 1 4 0 3 14 23 0 62 83 5 2 4 5 2 0 3
99 74 99 66 5 5 5 0 5 5 5 1 2 5 4 1 0 0 0 0 0 0 12 17 0 0 4 100 100 95 38 64 97 25 1 2 3 0 1 0 0 8 0 0 0 1 7 15 0
99 63 76 80 97 70 5 2 0 0 5 5 3 5 11 5 2 0 0 0 8 7 0 15 14 100 97 100 100 40 0 56 5 5 5 5 5 5 5 3 0 0 0 0 3 3 0 0 0
70 99 100 100 98 100 47 2 5 0 3 5 5 0 4 19 5 4 2 1 8 15 0 0 2 94 100 97 99 34 5 5 6 6 5 5 0 5 5 5 5 4 2 0 0 0 0 0 0
69 88 96 92 100 100 90 3 5 5 1 2 2 4 5 0 0 52 98 81 18 12 12 3 8 11 2 5 8 4 6 94 100 100 16 5 4 1 5 4 1 0 0 0 0 0 0 0 0
100 54 100 100 100 100 76 81 5 5 11 5 0 0 0 0 0 9 100 100 97 11 12 10 12 11 1 1 0 4 5 79 100 100 99 38 5 3 5 0 0 0 28 0 0 0 0 0 0
95 24 100 100 100 100 90 50 0 5 26 18 5 59 21 0 0 0 7 2 100 98 7 9 21 7 5 2 0 0 0 16 70 12 12 49 10 5 4 3 0 0 0 3 0 0 0 0 0
100 100 100 99 100 100 100 73 4 4 5 5 5 48 53 100 100 36 1 1 17 51 100 44 6 23 22 5 5 5 9 21 62 60 60 6 12 36 6 0 4 0 0 11 10 25 0 0 0
100 100 100 51 100 100 100 62 5 5 5 9 5 5 5 5 47 100 100 100 100 100 99 100 93 35 26 5 5 5 22 28 14 5 5 84 15 10 18 22 18 5 7 8 11 21 4 0 0
100 100 100 100 100 100 100 90 5 8 6 6 5 5 5 5 5 11 29 72 75 37 42 43 100 90 29 20 5 26 24 33 28 14 5 6 55 6 8 21 22 17 5 9 19 6 0 0 0
100 99 100 100 100 100 100 100 99 7 51 100 100 100 74 10 5 5 5 5 5 5 5 5 5 11 14 6 9 7 16 18 28 39 40 5 5 49 18 89 26 8 19 25 29 23 5 5 5
100 100 100 100 100 100 100 100 100 94 68 100 100 100 100 100 100 100 100 87 26 5 5 49 65 20 29 16 29 58 24 46 28 17 33 68 12 5 5 11 5 6 5 35 35 20 5 5 5
100 99 100 100 100 100 100 100 100 100 100 100 100 100 100 100 100 100 100 93 38 6 5 5 29 16 5 8 40 99 100 56 31 65 23 100 90 36 5 96 100 29 5 69 22 25 5 5 63
100 100 100 100 100 100 100 100 100 100 100 100 100 100 100 100 100 100 62 94 77 73 36 6 5 14 5 5 60 80 100 100 92 70 82 100 74 77 16 14 6 5 5 5 60 47 81 64 44
100 100 100 100 100 100 100 100 100 100 100 100 97 100 100 100 100 94 100 100 100 98 85 99 86 76 19 87 100 80 31 82 100 43 71 45 47 37 44 12 5 22 44 72 84 97 83 86 11
100 100 100 100 100 100 100 100 100 100 100 100 98 99 100 100 100 100 100 100 100 100 100 100 100 100 66 19 5 97 67 81 100 100 96 11 19 7 10 100 100 100 100 73 100 100 100 100 86
100 100 100 100 100 100 100 100 100 100 100 100 100 100 100 100 100 100 100 100 100 100 100 100 96 71 69 98 98 26 5 5 1 29 79 100 96 66 91 100 84 92 82 100 100 100 100 55 98
100 100 100 100 100 100 88 100 100 100 100 100 100 100 100 100 99 75 100 100 100 100 100 100 100 100 100 98 25 5 5 5 73 96 96 73 7 58 83 100 98 100 100 100 100 100 100 100 100
97 100 100 100 100 100 100 94 100 100 100 100 100 100 100 100 100 97 100 100 100 100 100 100 100 100 100 100 100 79 54 19 13 16 94 100 99 52 92 100 100 100 100 100 100 100 100 100 100
96 100 100 100 100 100 100 100 100 100 100 100 100 100 100 100 98 91 86 100 100 100 100 100 100 100 100 100 92 38 30 5 5 48 98 100 97 100 100 100 100 100 100 100 100 100 100 100 100
89 100 100 100 100 100 100 85 22 100 94 100 100 100 100 86 86 100 100 97 73 80 68 81 75 75 55 6 5 5 8 62 26 40 22 5 25 46 36 100 100 100 100 100 100 100 100 100 100
100 98 96 100 100 100 100 100 85 98 99 96 74 98 100 100 100 98 98 98 100 100 93 10 6 6 5 6 22 7 5 5 5 5 6 30 84 100 100 100 100 100 100 100 100 100 100 100 100
99 92 95 100 100 100 100 100 100 100 100 75 70 72 57 76 36 83 88 73 28 8 29 70 72 53 39 6 5 5 5 5 40 32 5 5 6 5 13 2 92 93 100 100 100 100 100 100 100
100 94 88 51 98 100 100 100 100 100 100 100 74 62 86 71 43 50 68 55 72 94 93 100 75 6 21 9 5 5 42 10 5 4 3 0 0 0 0 23 29 99 100 100 100 100 100 100 100
91 70 80 98 51 100 100 100 100 100 100 100 100 100 95 91 99 89 44 98 100 100 100 100 61 10 10 5 37 5 5 0 0 0 0 0 5 15 18 20 81 100 100 100 100 100 100 100 100
100 81 73 66 100 100 100 100 100 100 100 100 100 100 100 99 100 100 100 100 100 100 100 78 12 44 13 5 5 5 4 3 0 0 0 5 28 93 100 100 100 100 100 100 100 100 100 100 100

GFSSGP_prec_cloud_057.txt.gz
Cloud_Cover
100 100 100 100 100 100 17 0 0 0 0 0 0 0 0 0 0 0 0 0 0 0 6 0 0 0 0 0 0 0 79 51 16 44 57 79 95 100 97 88 29 86 31 39 5 1 0 5 1
100 100 99 100 100 100 94 1 0 5 0 0 0 0 0 0 0 0 0 0 0 0 0 0 26 0 0 2 0 4 83 33 1 5 5 5 5 5 5 5 58 33 16 0 1 2 2 4 3
91 85 91 100 100 100 61 1 0 0 0 0 2 0 4 4 0 0 0 0 0 0 0 0 97 0 0 2 5 16 82 2 0 4 5 5 91 44 78 11 8 11 5 5 5 4 0 4 4
100 48 5 66 100 100 47 5 5 3 1 4 0 0 5 0 0 0 0 0 0 0 0 0 15 0 0 0 0 0 3 5 5 5 5 11 100 28 74 98 15 55 3 0 2 0 0 0 0
100 99 14 38 100 100 36 8 5 5 5 5 0 2 5 0 0 0 0 0 0 0 0 0 0 0 8 23 96 42 0 0 1 0 0 16 79 100 68 25 70 0 4 3 1 0 0 0 0
100 100 94 100 100 100 70 48 47 5 3 18 5 5 5 5 0 0 14 19 0 0 0 0 0 4 99 100 100 63 9 0 0 0 0 19 29 18 13 4 4 5 4 3 2 0 0 0 0
100 100 100 100 100 100 99 14 18 52 17 5 5 5 17 5 0 0 24 7 0 0 0 1 0 4 87 100 100 35 1 0 0 0 0 0 2 6 1 0 0 0 1 4 5 5 5 5 5
100 100 100 100 100 100 100 93 5 36 53 0 2 7 16 5 5 0 0 0 0 0 0 0 0 0 0 26 72 94 0 0 0 0 0 0 0 0 0 0 0 0 0 0 5 99 100 98 13
100 100 98 100 100 100 99 53 99 27 4 0 0 94 79 20 5 2 0 0 0 0 0 0 0 0 0 10 78 72 0 0 0 0 0 0 0 0 0 0 0 0 0 0 4 0 0 0 5
100 100 100 99 100 100 100 100 100 16 4 0 0 18 57 5 3 2 1 0 0 0 0 0 0 0 1 4 5 0 0 0 0 0 0 0 0 0 0 0 0 0 0 0 0 3 0 0 0
100 100 100 100 100 100 100 100 100 49 4 0 0 5 20 5 0 0 0 0 0 0 0 0 0 1 0 0 2 1 18 24 0 0 0 0 3 5 5 5 1 3 0 11 5 1 0 0 0
100 100 100 100 100 100 100 100 100 98 11 0 0 5 48 5 0 3 0 0 0 0 0 0 0 0 5 4 1 0 0 0 0 0 0 0 0 2 5 5 2 3 5 10 5 4 0 0 0
100 100 100 100 100 100 100 100 100 100 45 5 4 5 19 5 7 3 5 0 0 0 0 0 0 0 0 0 0 0 0 0 0 0 0 2 62 75 6 5 5 5 4 5 36 14 5 1 0
100 100 100 100 100 100 100 74 100 85 98 50 3 5 57 6 5 5 5 5 4 0 0 5 5 5 5 4 4 0 0 0 0 38 48 5 29 67 14 5 5 5 5 5 5 6 5 5 5
100 100 100 100 100 100 83 21 100 100 100 100 81 5 81 5 7 44 5 5 5 2 5 5 5 5 5 5 4 2 1 5 16 72 99 33 61 70 32 7 5 5 5 4 3 28 5 65 76
100 100 100 100 100 100 100 100 100 68 40 100 100 95 48 14 8 5 5 5 2 5 5 0 4 5 5 5 0 2 25 98 98 95 98 64 51 61 31 5 5 5 5 5 5 4 5 13 30
100 100 100 100 62 100 100 100 100 100 65 100 100 100 68 50 30 75 17 5 5 10 30 7 5 0 1 5 70 65 49 49 10 28 79 21 43 93 19 12 35 5 5 7 85 20 5 3 5
100 100 100 100 44 100 100 100 100 100 61 6 87 100 100 100 51 5 49 96 95 90 69 70 28 5 8 46 80 22 10 79 100 58 51 99 100 50 37 6 14 5 5 55 6 5 0 0 3
100 100 100 100 100 100 100 100 100 100 100 100 81 100 100 100 100 100 99 100 100 99 53 14 100 89 40 39 20 70 100 100 100 96 100 100 100 90 100 52 26 16 100 59 5 5 5 5 2
100 100 100 100 99 50 100 100 100 100 100 100 100 100 100 99 100 100 100 100 100 100 99 56 48 93 100 100 100 100 100 100 100 100 23 91 99 87 100 97 100 100 27 5 5 0 0 0 4
100 100 100 100 88 27 100 100 100 100 100 100 100 100 100 100 62 100 100 100 100 100 100 100 100 100 100 100 100 100 100 100 100 100 100 53 3 5 5 48 20 25 97 4 0 1 1 4 20
24 100 100 100 100 78 100 75 100 100 100 100 99 66 100 100 100 100 100 100 100 100 100 100 100 100 100 100 86 87 100 100 100 100 51 8 32 40 5 0 2 6 4 11 0 86 41 6 26
45 69 100 100 100 100 100 11 77 100 100 100 100 100 100 100 100 100 100 100 100 100 100 100 100 100 100 99 99 96 92 76 43 32 80 92 20 22 5 3 3 10 15 4 4 5 39 100 100
70 31 54 100 100 100 100 25 98 87 100 100 100 100 100 100 100 100 100 100 100 100 100 100 100 100 100 100 100 78 98 100 100 49 25 5 5 5 5 6 14 5 5 5 62 92 94 100 100
99 94 74 100 98 100 99 12 38 99 100 100 100 100 100 100 100 100 100 100 100 100 100 100 100 100 100 100 100 98 95 100 100 71 6 8 5 20 24 7 88 64 71 27 5 8 63 48 57
25 61 30 8 46 79 100 100 11 87 100 100 100 97 99 100 100 100 100 100 100 100 100 100 100 100 100 96 84 99 100 97 56 30 34 32 50 11 27 84 98 33 93 5 5 7 84 100 100
94 91 85 82 25 23 62 99 100 97 100 100 100 100 81 58 91 100 100 100 100 100 100 100 100 100 100 100 100 100 100 88 26 86 60 59 21 62 87 100 79 100 34 7 8 37 8 100 100
100 97 94 92 82 58 26 100 100 100 100 100 100 100 99 100 78 78 86 100 100 100 100 100 100 100 100 100 100 97 98 81 97 100 100 89 86 90 100 68 100 60 5 28 26 28 52 97 87
98 94 29 71 90 72 9 100 100 100 100 100 100 100 100 100 100 100 99 100 100 100 100 100 100 100 100 100 100 100 100 100 100 89 91 100 100 99 100 99 92 22 7 16 14 8 48 97 100
100 100 100 100 100 92 32 99 100 100 100 100 100 100 100 100 100 100 100 100 100 100 93 100 100 100 100 100 100 100 100 77 87 100 100 100 100 100 100 78 6 6 5 7 15 96 100 100 100

GFSSGP_prec_cloud_060.txt.gz
Cloud_Cover
96 21 97 100 100 100 100 68 0 0 0 0 0 0 1 5 5 3 0 0 0 35 26 2 0 0 0 1 4 4 12 4 5 16 8 5 5 5 50 100 100 98 92 5 5 4 0 0 0
87 99 69 100 100 100 100 12 0 4 8 0 0 0 0 2 5 5 8 1 0 23 28 17 0 0 0 0 0 0 0 0 0 0 3 3 5 5 5 5 28 16 0 4 5 1 0 0 0
92 70 44 32 100 100 100 98 35 95 7 0 0 0 0 0 0 0 0 0 0 32 5 1 0 0 2 0 0 0 0 0 0 0 0 57 50 5 5 15 28 0 5 0 0 0 0 3 0
100 77 58 5 100 100 85 100 100 87 14 0 0 0 0 0 0 0 0 0 0 0 0 77 92 0 0 0 0 0 0 5 5 5 5 12 5 6 5 29 2 0 0 0 0 0 0 0 0
100 86 62 14 100 100 98 100 100 100 67 0 0 4 0 0 0 0 0 0 0 0 0 74 92 9 0 0 0 0 4 5 5 5 18 7 93 7 100 36 0 0 0 0 0 0 0 0 0
100 94 50 100 100 100 100 100 100 100 64 0 0 4 0 0 0 1 1 0 0 0 0 3 0 76 8 0 0 12 0 0 0 0 13 98 88 100 100 3 0 0 0 0 0 0 1 0 0
100 96 97 100 100 100 100 100 100 100 99 6 2 0 4 5 4 5 0 0 0 0 14 31 2 40 100 100 15 95 0 3 4 5 0 5 0 29 87 4 0 0 0 0 0 0 0 0 0
100 100 100 100 100 100 76 100 100 100 98 5 5 5 2 5 5 5 4 3 0 1 35 34 18 40 94 54 94 0 5 5 4 0 0 0 0 0 0 0 0 0 0 0 0 0 0 0 0
100 100 100 100 100 97 14 86 100 100 74 5 0 4 3 4 5 5 5 5 1 3 0 1 1 0 0 0 0 0 0 0 5 0 0 0 0 0 0 0 0 0 0 0 15 1 0 0 0
100 100 100 100 100 78 5 22 98 100 99 5 5 2 0 5 20 8 5 14 5 2 0 2 0 0 0 0 0 1 0 0 0 0 0 0 0 0 0 0 0 0 0 0 5 3 1 0 0
100 100 100 100 100 100 86 58 59 100 100 19 5 11 4 5 5 5 5 5 5 4 1 0 0 0 0 0 20 33 30 20 1 0 0 0 0 0 0 0 4 2 4 14 4 5 4 0 0
100 100 100 100 100 100 100 87 17 100 100 70 70 60 4 0 5 5 12 45 14 65 5 5 1 0 0 4 5 17 28 30 18 0 0 0 0 0 0 14 8 12 11 20 13 5 5 5 5
100 100 100 100 100 100 100 100 100 100 100 100 5 82 10 4 5 43 15 29 70 5 5 42 57 5 5 5 5 5 5 20 7 5 5 4 1 0 0 1 9 12 10 30 28 10 5 11 25
100 100 100 100 100 100 100 100 100 93 91 99 92 5 5 4 5 5 10 5 5 5 5 5 8 5 5 5 5 4 3 5 7 4 3 0 0 0 3 5 6 31 68 12 7 8 5 16 44
100 100 100 100 100 100 100 100 100 100 91 81 91 11 7 5 5 5 5 5 5 5 10 60 5 5 5 5 4 0 0 5 5 4 4 4 3 5 19 16 28 32 69 49 5 11 5 5 9
100 100 100 100 100 100 100 100 100 100 100 100 25 100 56 41 5 11 5 5 5 5 5 5 6 70 12 5 5 5 5 5 5 5 5 5 5 5 53 22 30 66 64 8 32 8 11 33 8
100 100 100 100 100 100 100 100 100 100 73 53 97 81 100 52 7 32 27 26 49 6 5 8 11 8 5 5 19 5 5 7 5 9 5 5 5 37 82 90 100 100 99 87 74 83 92 8 5
100 100 100 100 100 100 100 100 100 72 8 30 98 89 100 100 100 98 100 100 77 84 38 8 10 36 64 11 5 5 5 37 51 21 5 5 67 93 100 100 100 72 100 95 68 79 45 40 27
100 100 100 100 100 100 100 100 100 24 5 22 76 100 100 100 100 100 100 100 100 100 90 19 5 5 5 34 72 58 12 16 83 63 84 100 97 100 100 100 94 89 67 68 65 21 62 72 46
100 100 100 100 100 100 100 100 100 18 5 8 88 100 98 100 100 100 100 100 100 100 80 19 18 44 5 5 47 92 100 100 99 95 100 100 100 100 100 100 100 100 97 83 26 60 40 14 4
91 100 100 100 100 100 100 100 100 8 5 48 91 100 100 100 100 100 100 100 100 100 100 100 98 100 100 98 67 33 9 62 68 86 100 80 99 100 100 100 100 100 92 22 50 16 9 13 11
56 100 100 100 100 100 100 100 100 100 14 5 32 100 100 94 92 100 100 100 100 100 100 100 100 100 100 100 100 100 100 100 100 100 100 100 92 63 75 96 62 22 27 10 5 5 3 1 7
63 100 100 100 100 100 100 99 100 56 5 29 62 86 100 100 100 100 100 100 100 100 100 99 100 100 100 100 100 100 100 100 100 100 100 100 82 85 92 6 2 28 30 13 8 9 25 9 49
41 8 100 100 100 99 100 100 86 50 76 82 100 100 83 91 100 100 100 100 100 100 100 91 71 37 29 43 76 91 96 77 82 50 60 88 92 66 5 5 16 18 13 13 8 11 16 28 43
50 16 92 100 100 98 100 100 100 38 38 92 95 100 72 5 69 100 100 100 100 100 100 100 100 100 86 54 47 53 42 18 25 55 81 7 18 12 5 10 33 6 16 12 91 5 5 11 34
62 86 31 63 56 100 100 98 100 97 25 11 100 100 100 65 8 72 100 100 100 100 100 100 100 100 100 100 98 98 99 88 32 34 43 9 5 5 5 6 57 90 100 87 73 16 17 26 59
28 91 22 8 5 50 100 100 100 100 100 80 80 100 100 100 97 23 5 67 100 100 100 100 90 96 100 80 60 36 56 78 99 50 66 19 98 67 92 100 98 52 95 76 97 64 97 88 28
80 69 86 69 70 5 65 100 100 100 100 100 95 98 91 97 79 53 33 39 45 91 100 100 95 88 100 100 100 100 100 100 100 100 100 98 99 100 100 97 100 100 92 32 41 18 15 99 99
98 56 23 41 8 5 5 4 100 100 100 100 100 94 29 100 94 58 100 99 85 37 67 90 84 90 92 85 76 100 100 100 100 100 100 100 100 100 100 100 100 62 25 30 20 5 7 15 45
100 91 99 100 14 5 5 4 99 100 100 100 100 100 100 100 99 70 100 100 100 100 88 97 100 100 100 100 100 100 100 100 100 100 100 100 100 100 100 75 54 67 37 17 5 4 11 57 78

GFSSGP_prec_cloud_063.txt.gz
Cloud_Cover
59 97 100 100 94 11 99 100 5 7 94 8 42 26 3 0 0 2 0 0 12 47 26 0 0 0 0 0 0 6 4 51 49 16 6 5 5 5 5 8 9 5 96 71 5 4 0 0 0
100 64 100 100 69 64 100 100 37 5 6 52 77 48 5 2 4 15 9 33 1 20 28 1 0 0 0 0 1 1 13 12 88 44 5 5 5 5 5 16 15 5 5 5 5 0 0 0 0
100 87 95 58 92 100 100 100 100 10 0 0 12 7 5 5 0 5 2 32 40 44 23 2 0 0 0 1 0 0 0 0 0 0 0 0 3 5 5 61 7 1 5 5 5 0 0 0 0
100 100 92 36 76 100 100 100 100 50 5 0 2 0 0 3 0 2 19 42 56 50 10 1 0 0 0 0 0 0 0 0 0 0 1 0 0 0 14 40 5 5 4 4 2 0 0 0 0
100 100 99 91 100 100 100 100 100 93 5 0 5 4 0 0 0 0 28 38 42 26 0 22 0 0 0 0 0 0 0 0 0 0 50 95 24 6 34 12 5 5 4 5 0 0 0 0 0
100 100 88 100 100 100 100 100 100 99 49 6 4 5 18 0 0 0 0 0 0 3 0 76 86 0 0 0 0 0 0 0 0 0 99 23 92 95 100 34 5 2 0 0 0 0 0 0 0
100 75 97 100 100 99 42 100 100 100 100 52 5 6 53 7 0 1 0 0 0 2 2 7 38 2 5 0 0 0 0 0 0 0 0 0 90 100 100 15 0 0 0 0 0 0 0 0 0
100 92 100 100 100 100 21 89 100 100 100 97 5 46 69 30 1 2 8 25 18 29 27 37 18 2 100 65 12 0 0 3 2 0 1 5 5 2 37 0 0 0 0 0 0 0 0 0 0
100 100 100 100 100 100 99 24 98 100 100 100 81 99 93 7 10 28 68 89 94 69 67 44 24 0 21 9 4 2 0 0 0 5 5 5 3 1 0 0 0 0 0 0 0 0 0 0 0
100 100 100 100 100 100 100 100 23 100 100 100 100 100 100 75 32 74 100 100 96 60 45 30 13 0 0 0 0 0 0 0 0 5 0 0 0 0 0 0 0 0 0 0 0 3 1 2 0
100 84 100 100 100 100 100 100 32 92 100 100 100 100 100 97 31 39 50 33 8 2 5 5 5 4 4 5 15 24 18 12 0 0 0 0 0 2 0 2 0 2 1 9 3 5 3 5 5
100 100 100 100 100 100 100 100 98 75 100 100 100 100 100 100 58 5 4 5 0 1 5 5 5 5 5 9 24 26 29 21 18 1 0 0 3 3 3 16 3 12 15 22 26 16 5 40 58
84 100 100 100 100 100 100 100 100 95 100 100 100 100 100 100 100 81 6 5 5 5 5 5 5 15 7 6 23 32 34 28 13 7 1 0 0 0 0 4 8 16 10 25 34 28 8 4 14
91 100 100 100 100 100 100 100 100 67 100 100 100 100 100 100 98 11 5 6 5 5 5 5 5 5 33 31 7 9 25 22 30 21 5 5 2 0 2 4 6 15 15 14 23 28 20 7 5
10 100 100 100 100 100 100 100 100 99 100 100 100 100 100 100 100 84 16 10 5 0 5 5 5 5 32 41 36 28 8 6 17 9 5 4 0 5 5 5 5 5 5 5 15 34 99 20 50
30 86 100 100 100 100 100 100 100 100 100 100 100 100 97 100 100 99 33 5 5 5 5 5 5 5 14 5 23 91 69 94 94 47 5 5 1 4 5 5 5 5 5 9 78 100 90 77 24
98 14 100 100 100 100 100 100 100 100 94 100 100 100 46 11 92 39 5 5 10 15 14 60 24 9 5 5 5 5 5 77 80 65 20 5 5 5 7 5 5 5 11 96 100 56 7 40 14
1 0 100 100 100 100 100 100 100 100 100 100 100 100 100 28 11 93 83 90 100 100 88 100 100 95 47 6 34 41 30 22 46 28 50 63 47 46 19 6 5 16 87 100 78 11 94 98 99
0 0 100 100 100 100 100 100 100 100 100 100 71 80 75 98 6 100 100 100 100 100 76 68 91 86 61 37 5 25 26 17 62 23 5 5 10 10 46 59 94 100 100 100 64 100 100 100 47
0 0 100 100 100 100 100 100 100 100 100 94 6 52 69 39 55 7 100 100 100 100 100 100 87 96 76 100 100 100 99 46 10 10 33 54 35 62 99 100 100 100 100 98 100 100 92 85 54
4 0 100 100 100 100 100 100 100 100 100 100 100 94 7 30 98 95 100 100 100 100 100 100 100 99 100 100 100 100 100 100 86 85 82 95 100 100 100 100 100 92 98 100 100 86 9 49 49
6 3 100 100 100 100 100 100 100 100 100 64 35 5 5 8 100 100 100 100 100 100 100 100 100 100 100 100 100 100 100 100 100 100 100 100 100 100 100 97 89 100 100 97 47 38 24 16 25
8 5 58 100 100 100 100 100 100 100 98 77 27 12 18 5 60 100 100 100 100 100 100 100 100 100 100 100 100 100 100 100 100 100 100 100 88 92 20 52 97 60 46 100 88 99 86 46 18
100 93 7 100 100 100 100 100 100 100 100 45 6 5 12 5 5 22 100 100 100 100 100 100 100 100 100 100 100 100 100 100 100 100 100 100 100 100 100 99 64 92 79 100 78 70 48 93 77
96 100 80 86 100 100 100 100 100 100 48 99 37 16 5 5 5 5 20 76 100 100 100 100 100 100 100 100 100 100 100 100 100 100 100 100 100 100 100 100 100 97 66 82 65 94 100 42 99
100 85 32 22 100 100 100 100 100 100 98 93 100 78 28 5 5 5 5 55 100 100 83 100 100 100 100 100 100 100 100 100 100 100 100 100 100 93 79 73 67 99 90 100 100 100 76 100 96
30 95 45 5 5 100 100 100 100 100 100 97 91 98 69 7 11 5 5 5 40 46 76 89 89 98 100 100 100 100 100 100 100 100 100 100 88 54 38 94 97 100 100 100 100 100 100 100 100
25 74 62 6 5 5 93 100 100 100 100 100 100 54 43 66 56 34 5 5 5 56 56 6 30 73 65 68 81 76 90 100 72 66 100 97 100 100 100 100 100 100 100 100 100 99 26 96 99
89 76 81 84 6 5 5 33 100 100 100 100 100 100 99 91 95 99 30 5 5 23 72 82 67 67 78 84 97 100 100 100 100 94 100 100 100 100 100 100 100 100 100 100 81 53 12 55 100
97 89 82 86 27 5 5 1 1 100 100 100 100 100 81 100 99 99 98 90 41 38 68 91 100 100 100 100 85 87 73 71 91 99 100 100 100 100 100 100 96 100 100 74 63 33 42 6 92

GFSSGP_prec_cloud_066.txt.gz
Cloud_Cover
100 100 100 100 99 5 59 97 100 100 100 70 53 5 2 5 5 2 1 6 13 44 17 0 3 0 0 0 0 0 0 22 50 23 29 49 9 58 5 7 5 5 2 1 4 13 5 5 2
100 100 100 99 62 16 90 100 100 88 47 15 5 5 5 4 3 72 44 44 1 53 14 21 0 0 0 3 0 12 55 19 5 5 71 77 14 10 10 19 5 5 5 5 5 3 0 3 0
100 100 100 98 7 98 100 100 94 5 54 31 11 13 42 5 5 9 2 28 52 48 18 0 0 0 0 15 0 0 0 0 5 5 27 45 11 5 34 30 5 5 5 5 5 5 0 0 0
100 100 100 100 47 100 100 100 90 5 6 6 23 66 60 31 5 0 33 31 37 73 20 4 1 0 0 0 0 0 0 0 0 0 5 1 4 0 66 80 0 2 5 5 5 5 0 0 0
100 100 100 100 100 100 100 100 99 5 0 5 5 38 28 83 7 63 64 37 100 84 36 22 0 0 0 0 0 0 0 0 4 10 81 0 0 28 92 1 5 5 5 5 5 1 2 0 0
100 100 71 60 100 100 100 100 100 26 1 5 13 5 21 6 87 100 100 100 71 40 34 7 0 0 0 0 0 0 0 4 5 8 99 78 31 72 88 26 5 5 5 5 5 2 0 0 0
100 100 100 100 100 100 100 100 100 93 12 5 18 6 5 13 67 80 48 30 9 4 0 44 0 0 0 0 0 0 0 5 2 0 57 63 100 100 98 8 0 0 1 1 0 0 0 0 0
100 100 91 100 100 100 100 100 100 98 58 6 71 99 96 57 92 30 24 27 30 26 9 2 16 0 4 0 0 0 0 2 0 0 0 0 1 2 14 1 3 1 0 0 0 0 0 0 0
97 100 91 100 100 100 100 100 100 100 100 100 100 100 100 100 54 70 95 89 87 88 56 24 16 0 0 0 0 0 0 0 0 0 0 0 4 5 58 64 5 0 0 0 0 0 0 0 0
100 91 93 100 100 100 100 100 100 100 100 100 100 100 86 100 83 100 100 100 100 100 98 37 20 0 0 0 0 2 0 0 0 0 0 2 2 5 10 4 0 0 4 2 2 3 1 3 2
100 69 56 100 100 100 100 100 87 100 100 100 100 100 100 100 99 100 100 100 100 100 56 44 21 0 1 1 19 26 21 16 0 0 0 0 0 2 4 6 0 1 0 8 1 1 5 2 3
86 63 100 100 100 100 100 100 100 100 100 100 100 100 100 100 100 100 100 100 58 17 7 10 8 11 0 13 20 18 25 20 17 5 4 5 12 12 11 21 0 7 10 20 19 32 0 0 5
14 38 76 100 100 100 100 100 100 100 100 100 100 100 100 100 100 100 100 100 88 9 5 5 0 1 6 6 23 26 25 23 10 6 5 5 5 5 5 6 4 11 10 24 26 38 23 2 0
4 48 98 100 100 100 100 99 96 100 100 100 100 100 100 100 100 98 99 96 99 26 23 5 5 5 5 8 11 26 28 18 21 19 9 6 5 5 5 5 5 5 14 7 20 23 30 21 4
66 6 100 100 100 100 100 100 90 100 100 100 100 100 100 100 100 100 90 96 89 93 85 13 5 5 5 5 6 15 22 18 31 31 11 18 5 5 5 5 5 5 6 3 8 16 25 36 34
21 64 67 91 100 100 100 100 100 100 76 100 100 100 100 100 100 100 100 100 28 6 5 5 5 5 5 5 5 7 68 67 46 78 96 56 12 8 6 5 5 5 12 6 10 9 17 27 71
21 5 10 70 100 100 100 100 100 100 96 87 100 100 100 100 100 100 100 100 31 5 5 3 8 36 76 5 6 29 92 44 21 48 41 17 62 5 5 5 5 5 7 5 6 15 24 15 30
6 6 5 100 96 100 100 100 100 100 100 97 100 100 100 99 100 100 100 100 100 55 30 48 100 96 56 42 5 5 61 52 68 65 11 5 5 7 24 8 5 8 24 16 25 38 35 87 79
93 5 4 65 100 100 100 100 100 100 100 100 100 100 100 100 100 87 100 100 100 100 100 100 100 100 100 62 61 59 75 82 74 25 5 10 9 12 19 72 75 100 81 66 16 26 8 100 42
100 32 2 0 5 100 100 100 100 100 100 100 100 100 100 100 100 73 95 100 100 100 100 100 100 100 100 100 100 100 100 64 55 79 100 100 80 74 73 33 57 15 9 61 100 40 94 100 91
100 100 4 1 4 52 100 100 100 100 100 100 100 100 100 100 100 66 54 100 100 100 100 100 100 100 100 100 100 100 100 100 77 73 55 64 89 99 99 56 51 66 99 100 100 100 100 100 100
100 100 59 2 3 30 100 100 99 100 100 100 100 100 100 100 100 100 100 100 100 100 100 100 100 100 100 100 100 100 100 100 100 100 100 100 100 100 100 100 100 100 100 100 100 100 100 100 100
87 100 18 5 17 5 87 100 100 100 100 100 100 100 88 93 82 99 100 90 98 100 100 100 100 100 100 100 100 100 100 100 100 100 100 100 100 100 100 100 100 100 100 100 100 100 98 62 81
89 100 47 5 89 82 62 99 100 100 100 100 100 100 100 100 100 98 72 16 18 64 99 100 100 100 100 100 100 100 100 100 100 100 100 100 100 100 100 100 100 100 100 99 100 100 100 98 96
89 98 76 87 75 71 4 24 100 100 100 100 100 100 100 85 94 77 56 33 6 24 92 100 100 100 100 100 100 100 100 100 100 100 100 100 100 100 100 100 100 100 100 100 100 100 100 100 100
100 33 77 16 46 5 3 2 100 100 100 100 100 100 100 100 100 100 100 58 31 8 17 55 99 100 100 100 100 100 100 100 100 100 100 100 100 100 100 100 100 100 100 100 100 100 100 100 100
94 89 93 84 6 5 2 0 100 100 100 100 98 100 100 100 100 92 17 21 29 5 7 6 5 31 59 94 100 100 100 100 100 100 100 100 100 100 100 100 100 100 100 100 100 100 100 100 100
83 33 31 27 33 5 0 0 0 100 100 100 100 76 99 100 53 8 5 5 5 3 26 97 98 100 99 100 100 100 100 100 100 100 100 100 100 100 100 100 100 100 100 100 100 100 98 100 100
82 87 6 26 5 35 5 0 0 31 100 100 100 100 98 100 100 94 13 5 38 34 5 4 5 50 100 100 100 100 100 100 100 100 100 100 100 100 100 100 100 100 100 100 100 100 100 100 100
5 34 15 95 45 21 34 10 0 0 100 100 100 100 100 100 100 90 47 20 96 90 7 5 5 5 20 89 100 100 100 100 100 100 100 100 100 100 100 100 99 63 100 83 100 100 100 100 96

GFSSGP_prec_cloud_069.txt.gz
Cloud_Cover
91 100 100 100 94 5 100 100 100 100 65 6 9 13 45 5 5 5 3 26 1 8 24 1 0 0 0 1 1 0 0 5 5 6 6 15 13 85 36 40 9 5 6 5 18 5 5 5 3
100 100 100 100 18 28 100 100 100 99 59 5 31 10 5 42 5 89 32 82 0 19 28 9 0 0 0 0 0 1 88 83 1 3 2 5 5 12 21 64 12 5 8 5 10 22 8 5 5
100 100 100 100 100 88 100 100 34 94 100 61 9 26 5 5 9 39 2 54 29 36 1 27 0 0 0 0 0 21 22 1 0 0 3 5 40 83 49 92 28 12 3 6 5 5 5 5 5
100 100 100 100 98 100 100 100 99 80 83 96 5 12 5 5 5 5 39 44 66 30 0 40 0 0 0 0 0 0 0 0 0 0 1 5 5 15 20 28 3 1 0 4 1 5 5 5 5
100 100 100 100 100 100 100 100 100 29 70 30 98 97 74 8 10 68 66 36 67 74 13 1 93 0 0 0 0 0 0 0 0 1 0 0 2 34 84 0 0 1 4 5 0 5 5 5 4
97 100 100 100 100 100 100 100 100 78 7 44 69 91 98 70 100 100 82 34 89 85 34 22 82 0 0 0 0 0 0 0 0 13 0 2 15 63 93 0 5 5 5 2 5 5 5 5 0
74 51 94 100 100 100 100 100 100 100 5 5 5 24 95 100 100 100 100 92 99 54 34 35 19 0 0 0 0 0 0 0 0 2 24 90 100 100 91 11 5 5 5 4 0 0 0 0 0
46 75 100 100 100 100 100 100 100 100 79 53 79 16 100 100 100 100 100 100 64 49 12 10 13 9 0 0 0 0 0 0 0 0 10 99 99 100 7 5 5 5 5 5 5 0 0 0 0
52 90 71 100 100 100 100 100 100 100 80 83 97 97 100 100 100 100 100 100 94 70 37 10 8 14 0 0 2 0 0 0 0 0 0 1 1 5 5 1 3 5 5 5 5 0 0 0 0
65 94 78 92 100 100 100 100 100 100 85 94 99 100 100 100 100 100 100 100 100 100 99 30 21 6 13 3 0 0 0 0 0 0 0 0 0 0 0 3 5 5 5 5 0 0 0 0 0
83 56 60 100 100 100 100 100 100 82 39 5 67 100 100 100 100 100 100 100 100 100 100 65 33 2 0 2 0 0 0 0 0 0 0 0 0 0 0 0 3 3 5 1 0 0 2 0 0
8 19 57 100 100 100 100 100 99 51 54 5 6 100 100 100 100 100 100 100 98 100 97 80 24 14 0 0 0 0 0 0 0 0 0 0 0 0 0 0 0 0 1 1 0 0 4 2 0
21 95 27 100 100 100 100 100 100 97 83 15 16 98 100 100 100 100 100 100 100 100 67 89 62 62 30 5 0 0 0 0 0 0 0 4 3 5 12 5 5 5 5 5 5 2 0 4 5
6 19 27 99 100 100 100 100 100 100 98 99 99 100 100 100 100 100 100 100 100 100 82 5 25 69 67 36 5 0 0 0 4 5 0 5 5 3 5 5 5 15 15 5 5 1 2 5 5
96 1 14 97 100 100 100 100 100 100 100 100 100 100 100 100 100 100 100 100 100 100 100 99 100 94 14 5 5 0 0 0 5 5 5 5 5 5 5 5 5 32 16 6 5 5 5 5 5
100 14 99 100 100 87 100 100 100 100 98 100 100 100 100 100 100 100 100 100 100 100 100 100 100 92 9 5 4 5 5 4 0 5 5 35 70 43 42 43 5 26 27 5 5 5 6 5 5
86 46 37 100 98 88 100 100 100 100 100 99 100 100 100 100 100 100 100 100 100 100 100 100 100 100 89 5 5 13 5 5 5 29 6 16 7 5 41 26 7 33 24 6 5 7 10 8 7
30 80 43 65 100 100 100 100 100 100 100 100 93 100 100 100 100 100 100 100 100 100 100 100 96 98 99 92 80 95 68 84 90 37 27 63 45 8 34 20 13 10 6 20 49 52 56 36 43
100 100 100 42 22 100 100 100 73 100 99 100 91 100 100 100 100 100 100 100 100 100 100 100 100 100 100 100 100 100 100 100 100 98 66 62 28 57 83 100 90 57 62 71 100 100 100 91 9
90 94 99 99 5 100 100 100 100 98 100 95 66 100 100 100 100 100 100 100 62 84 100 100 99 99 99 100 100 100 100 100 100 100 100 100 100 100 100 100 100 100 100 100 100 96 65 17 91
100 100 100 89 4 94 100 80 100 94 100 60 28 98 100 100 100 100 100 100 100 100 99 98 100 94 100 100 100 100 100 100 100 100 100 100 100 100 100 100 100 100 100 100 99 78 87 100 100
100 100 100 100 5 20 16 41 8 100 100 36 10 95 100 100 100 100 100 100 100 100 100 100 93 98 100 100 100 100 100 100 100 100 100 100 100 100 100 100 92 100 91 99 100 100 100 100 100
100 100 100 100 7 4 4 5 0 100 100 100 100 100 100 100 100 100 100 100 100 100 100 100 100 100 100 100 100 100 100 100 100 100 100 100 100 100 100 100 100 100 100 100 100 100 100 100 100
100 92 14 36 52 67 5 48 4 97 100 100 100 100 100 100 100 100 100 100 100 100 100 100 100 100 91 79 100 100 100 100 100 100 100 100 100 100 100 100 100 100 100 100 100 100 100 100 100
88 51 95 100 99 36 4 4 6 9 91 100 100 100 98 100 99 98 100 100 100 100 93 93 100 100 100 100 100 100 100 100 100 100 100 100 100 100 100 100 100 100 100 100 100 100 100 100 100
100 46 5 25 56 5 5 3 0 0 1 100 100 100 19 100 100 100 97 100 100 100 100 82 100 100 100 100 100 100 100 100 100 100 100 100 100 100 100 100 100 100 100 100 100 100 100 100 100
7 59 88 66 92 41 3 0 0 0 0 0 94 100 100 100 100 100 100 100 83 73 100 59 36 21 69 100 100 100 100 100 100 100 100 100 100 100 100 100 100 100 100 100 100 100 100 100 100
26 5 31 5 51 5 5 4 0 0 0 0 100 100 100 100 94 100 100 90 98 13 5 12 5 25 61 93 100 100 100 100 100 100 100 100 100 100 100 100 100 100 100 100 100 100 100 100 100
43 49 41 80 20 5 5 5 0 0 0 0 1 100 100 100 100 100 100 100 100 20 5 5 5 11 96 93 89 100 100 100 100 100 100 100 100 100 100 100 100 100 100 100 100 100 100 100 100
100 94 94 97 60 41 5 5 5 3 0 0 0 0 86 100 100 48 55 100 100 100 97 12 66 46 5 34 100 100 100 100 100 100 100 100 100 100 100 100 100 100 100 100 100 100 100 100 100

GFSSGP_prec_cloud_072.txt.gz
Cloud_Cover
69 100 100 100 96 43 90 100 100 100 75 7 75 80 48 5 5 5 8 3 1 5 69 25 5 5 1 32 5 5 1 0 0 19 4 3 8 1 8 70 88 17 50 39 34 5 5 5 5
100 100 100 100 84 65 99 100 100 100 70 74 78 100 53 66 87 9 5 3 4 4 100 76 5 5 5 5 0 1 13 5 2 1 0 2 16 6 8 20 9 73 35 72 8 5 5 5 5
99 100 99 100 100 23 100 100 100 100 96 82 100 64 94 48 86 77 5 5 0 0 4 64 5 5 3 4 1 56 1 0 0 0 0 0 20 41 40 100 100 100 82 9 5 9 5 5 5
100 95 96 100 81 94 93 100 100 100 100 78 100 100 34 42 14 85 37 5 5 2 0 12 5 4 0 0 0 0 0 0 0 0 0 0 20 73 5 6 5 12 5 5 5 5 5 5 5
61 100 98 100 98 100 100 100 100 100 100 100 100 100 100 62 56 18 71 21 5 5 45 20 0 0 0 0 0 0 0 0 0 0 0 0 10 42 46 0 4 5 0 3 5 5 5 1 0
86 29 98 100 100 100 100 100 100 100 98 100 100 100 100 100 95 87 53 73 32 8 100 19 83 0 0 0 0 0 0 0 0 0 0 0 25 91 91 0 5 1 5 5 5 5 5 2 0
93 5 92 100 100 100 100 100 100 100 100 95 100 100 100 100 100 100 69 13 14 16 95 95 67 2 0 0 0 0 0 0 0 3 0 0 35 100 79 5 5 2 5 5 5 5 5 4 0
12 95 100 100 100 100 100 100 100 100 100 100 100 100 98 100 100 100 100 100 41 86 100 72 93 38 47 1 0 0 0 0 0 0 18 57 42 68 5 1 5 5 5 5 5 5 5 3 0
72 99 56 62 100 100 100 100 100 100 100 99 91 100 100 100 100 100 100 98 100 99 100 100 100 77 100 54 6 0 0 0 4 0 2 0 0 3 6 7 5 5 5 5 5 5 5 5 3
100 23 3 2 98 100 100 100 100 100 100 74 20 80 100 100 100 100 97 100 93 99 91 98 100 99 100 65 19 23 0 0 0 0 0 0 0 0 4 7 0 0 0 0 3 4 4 5 0
58 14 58 99 58 100 100 100 100 100 100 78 26 5 100 100 100 100 100 100 97 96 95 81 82 100 93 52 61 27 5 0 0 0 0 0 0 1 0 0 1 0 9 6 5 5 5 4 5
100 100 100 89 8 100 100 100 100 100 95 71 73 5 96 100 100 100 100 83 100 100 100 41 43 58 80 99 40 37 17 1 0 0 0 0 0 0 0 0 0 0 0 5 5 6 5 5 5
100 96 100 100 24 100 100 100 100 100 91 77 76 64 73 100 100 100 100 100 100 98 94 70 64 54 54 68 78 52 22 0 2 0 0 0 0 0 0 0 5 5 5 5 5 5 5 5 5
81 100 100 98 74 100 100 100 100 100 100 98 85 69 100 100 100 100 100 100 100 83 59 73 92 79 67 55 56 41 21 7 4 0 0 0 0 4 5 4 5 5 5 5 5 5 5 6 5
100 100 100 100 98 100 100 100 100 100 100 100 93 100 100 100 100 100 100 100 100 100 100 82 88 100 88 60 51 34 18 8 7 7 5 5 5 5 11 5 5 22 33 49 18 42 5 5 5
100 100 100 100 16 91 90 77 100 100 100 100 100 100 100 100 100 100 100 100 100 100 100 100 100 100 68 34 57 23 16 8 15 64 46 100 76 15 6 5 5 46 59 13 5 19 42 18 46
100 97 58 95 36 54 98 93 100 99 99 100 100 100 100 100 100 100 100 100 100 100 100 100 100 100 100 100 100 83 48 26 12 66 31 84 80 75 63 46 22 72 41 12 40 38 12 31 40
45 63 19 95 40 93 91 99 100 100 100 100 100 100 100 100 100 100 100 100 100 100 100 100 100 100 100 100 100 100 100 91 88 88 75 82 100 98 81 49 51 94 97 62 38 50 62 84 96
100 99 100 100 92 60 78 100 100 100 100 100 100 100 100 100 100 100 100 100 100 100 100 100 100 100 100 100 100 100 100 100 100 100 100 100 100 100 92 99 86 67 86 99 100 100 100 100 100
98 100 100 100 59 74 89 100 100 100 97 100 100 100 100 100 100 100 100 100 100 100 100 100 100 100 100 100 100 100 100 100 100 100 100 100 100 100 100 100 100 100 100 100 100 100 100 100 100
100 100 100 100 100 86 46 100 100 100 100 100 73 100 100 100 100 100 100 100 100 100 100 100 100 100 100 100 100 100 100 100 100 100 100 100 100 100 100 100 100 100 100 100 100 100 100 100 100
92 100 100 100 100 11 10 80 100 100 100 51 100 94 100 100 100 100 100 100 100 100 72 88 98 100 100 100 100 100 100 100 100 100 100 100 100 100 100 100 100 100 100 100 100 100 100 100 100
74 100 100 100 100 65 2 88 100 100 100 67 99 100 100 100 100 100 100 100 100 100 100 100 78 96 100 100 100 100 100 100 100 100 100 100 100 100 100 100 100 100 100 100 100 100 100 100 100
100 100 100 100 79 96 68 5 20 89 90 100 98 82 100 96 88 100 100 100 100 100 100 100 96 100 100 100 100 100 100 100 100 100 100 100 100 100 100 100 100 100 100 100 100 100 100 100 100
100 100 94 98 83 91 6 18 3 0 40 100 99 99 100 73 99 100 100 100 100 100 100 100 93 81 93 96 100 100 100 100 100 100 100 100 100 100 100 100 100 100 100 100 100 100 100 100 100
55 100 89 88 100 97 97 17 2 0 5 17 11 52 100 61 27 100 100 100 100 100 100 100 100 100 100 100 100 100 100 95 72 100 100 100 100 100 100 100 100 100 100 100 100 100 100 100 100
100 100 100 100 100 100 67 5 0 0 0 0 3 5 10 8 5 46 100 100 100 100 100 100 100 100 100 100 100 100 100 100 100 88 100 100 100 100 100 100 100 100 100 100 100 100 100 100 100
98 90 75 98 100 99 29 5 1 0 0 0 0 0 0 53 80 69 99 100 100 100 100 96 100 100 100 100 100 100 100 74 89 99 100 100 100 100 100 100 100 100 100 100 100 100 100 100 100
96 68 65 88 57 88 35 7 5 5 1 0 0 0 0 4 100 97 83 100 100 100 100 100 100 96 100 100 100 100 100 100 100 100 100 100 100 100 100 100 100 100 100 100 100 100 100 100 100
84 68 33 85 15 5 5 20 5 5 5 5 0 0 0 0 5 100 76 64 100 100 100 100 100 99 92 66 100 100 100 100 100 100 100 100 100 100 100 100 100 100 100 100 100 100 100 100 100

GFSSGP_prec_cloud_075.txt.gz
Cloud_Cover
100 100 100 100 100 100 100 99 97 100 100 96 100 100 98 80 97 54 5 2 1 5 9 5 0 3 18 4 0 1 4 3 4 3 5 5 0 5 3 2 4 16 65 100 86 7 5 5 5
93 100 100 100 100 97 97 71 100 100 70 93 76 100 100 81 72 5 5 5 6 2 10 22 5 4 5 5 0 5 0 0 2 4 6 16 3 16 0 2 5 29 87 100 84 38 5 5 5
5 99 100 100 100 100 100 64 100 86 100 100 97 100 82 87 68 20 5 5 5 1 2 24 5 5 5 5 5 10 0 0 0 0 0 9 24 41 0 0 5 6 46 100 54 7 5 5 5
39 46 100 70 100 100 100 86 100 100 100 100 100 100 100 100 67 6 6 5 5 1 4 15 5 5 5 5 5 5 0 0 0 0 0 1 86 23 0 0 5 30 19 9 8 5 5 5 5
94 41 48 100 100 100 87 100 100 100 93 98 100 100 96 96 73 53 6 6 29 5 22 5 6 4 5 5 5 5 0 0 0 0 0 2 96 11 0 0 4 3 4 5 5 4 5 5 5
92 99 90 98 90 100 75 100 100 100 100 100 100 100 100 100 97 70 78 5 5 8 85 34 32 5 0 3 5 5 4 0 13 0 0 14 32 1 0 0 0 0 0 2 5 4 5 5 5
35 95 32 56 100 100 100 100 100 100 100 100 100 100 100 100 99 100 36 47 27 24 96 45 40 5 5 0 0 0 0 2 0 0 0 61 97 73 50 0 0 0 0 0 3 5 5 5 5
75 19 100 100 100 73 100 100 100 100 100 100 100 100 100 99 100 91 100 100 47 28 100 86 67 29 16 1 0 0 0 0 0 0 0 0 21 45 0 0 0 0 0 0 2 5 5 5 5
100 98 84 98 100 80 100 100 100 100 100 100 100 100 100 100 100 100 100 100 99 95 90 100 100 90 100 35 6 0 0 0 4 1 0 3 8 16 5 4 0 0 0 0 0 0 3 5 5
100 100 11 9 97 85 100 100 100 100 100 100 100 100 100 100 100 100 100 100 100 93 100 100 100 84 100 80 4 6 0 0 0 0 0 0 3 2 9 0 0 0 0 0 0 0 1 0 1
100 78 99 100 100 80 96 100 100 100 100 100 100 100 100 100 100 100 100 100 100 100 100 100 100 100 100 63 13 6 3 0 0 0 0 0 0 0 0 0 0 0 12 2 0 0 0 0 4
100 94 100 100 100 98 90 100 100 100 88 100 100 100 100 100 100 100 100 100 98 91 72 100 100 100 100 100 35 10 4 6 3 0 0 0 0 0 0 0 0 0 0 0 0 2 5 5 5
100 100 100 100 100 18 10 88 100 100 92 100 100 100 100 100 100 100 100 100 100 87 91 59 100 100 100 100 40 22 17 5 8 12 1 0 0 0 0 0 0 0 0 0 4 4 5 5 5
53 100 100 100 96 100 88 13 100 100 100 100 100 100 100 100 100 100 100 100 100 100 68 58 100 100 100 100 100 95 40 15 24 57 12 5 6 2 3 1 0 0 1 5 5 5 5 5 5
100 100 95 100 99 100 88 32 97 100 100 100 100 100 100 100 100 100 100 100 100 100 94 100 100 100 100 100 100 82 73 44 12 12 12 16 57 58 49 60 50 22 5 5 28 13 5 5 5
100 100 100 100 100 100 100 2 64 100 100 100 100 100 100 100 100 100 100 100 100 100 99 99 100 100 100 100 100 100 100 30 29 26 25 19 44 48 97 100 79 40 43 62 71 22 34 71 41
100 100 100 100 100 88 40 75 97 100 100 100 100 100 100 100 100 100 100 100 100 100 100 95 100 100 98 100 100 100 100 98 83 42 31 34 63 59 57 65 65 85 94 92 53 40 44 67 98
100 35 100 100 94 94 91 98 96 93 98 100 100 100 100 100 100 100 100 100 100 100 100 100 100 100 93 97 100 100 100 100 100 70 35 41 69 89 64 52 61 99 100 100 100 95 99 94 100
100 100 100 100 100 100 100 100 100 100 97 100 100 100 100 100 100 100 100 100 100 100 100 100 100 100 100 100 100 100 100 100 100 100 100 100 100 100 100 100 100 100 100 100 100 100 100 100 100
99 100 100 100 100 100 100 72 100 100 100 97 100 100 100 100 100 100 100 100 100 100 100 100 100 100 100 100 100 100 100 100 100 99 66 97 100 100 100 100 100 100 100 100 100 100 100 100 100
98 100 100 100 100 100 76 63 99 100 62 100 100 98 100 100 100 100 100 100 100 100 100 100 100 100 100 100 100 100 100 100 98 100 100 93 100 100 100 100 100 100 100 100 100 100 100 100 100
98 100 100 100 100 100 72 93 6 12 92 99 79 60 100 100 100 100 100 100 100 100 100 100 100 100 100 100 100 100 100 100 100 100 100 100 100 100 100 100 100 100 100 100 100 100 100 100 100
100 94 100 100 100 98 61 24 10 2 100 100 100 91 98 100 100 100 100 100 100 100 100 100 100 100 100 100 100 100 100 100 100 100 100 100 100 100 100 100 100 100 100 100 100 100 100 100 100
100 100 100 100 100 70 69 18 4 3 1 100 68 70 100 99 100 100 100 100 100 100 100 100 100 100 100 100 100 100 100 100 100 100 100 100 100 100 100 100 100 100 100 100 100 100 100 100 100
100 100 100 100 91 66 10 28 5 5 4 99 100 100 96 98 65 99 100 78 100 100 100 100 100 100 100 100 100 96 94 100 100 100 100 100 100 100 100 100 100 100 100 100 100 100 100 100 100
100 100 100 100 100 86 12 17 97 5 5 96 100 84 93 56 12 10 100 94 100 100 100 100 100 100 100 100 100 100 100 100 84 95 100 100 100 100 100 100 100 100 100 100 100 100 100 100 100
99 75 49 38 76 100 98 100 100 93 5 9 5 51 46 79 96 6 14 99 100 100 98 100 100 100 100 100 100 100 100 95 96 99 100 100 100 100 100 100 100 100 100 100 100 100 100 100 100
77 71 100 100 91 100 100 100 100 100 12 2 1 25 58 5 3 74 99 96 92 99 100 100 100 100 100 100 100 100 99 100 100 100 64 100 100 100 100 100 100 100 100 100 100 100 100 100 100
18 93 82 100 78 100 100 100 100 87 5 5 0 0 0 0 0 0 1 21 14 63 86 100 100 100 100 100 100 100 100 100 100 100 100 100 100 100 100 100 100 100 100 100 100 100 100 100 100
92 100 100 100 100 100 100 100 100 51 5 5 0 0 0 0 0 0 0 2 7 100 100 100 99 100 100 100 100 100 100 100 100 100 100 100 100 100 100 100 100 100 100 100 100 100 100 100 100

GFSSGP_prec_cloud_078.txt.gz
Cloud_Cover
2 100 100 100 100 10 96 100 100 100 98 100 100 95 83 100 96 10 9 7 6 5 5 5 5 1 5 1 5 5 3 5 5 9 5 87 24 5 5 2 1 100 100 100 90 14 5 5 6
6 83 100 100 81 70 63 100 100 100 55 97 100 100 100 97 90 93 92 10 16 38 28 7 5 3 2 5 5 64 23 5 5 11 5 5 6 5 5 5 5 100 100 100 16 5 9 56 7
95 72 100 100 98 87 100 100 100 97 99 100 100 100 100 46 96 27 20 12 5 5 5 5 3 2 0 0 2 5 4 5 5 5 11 7 15 5 5 5 3 99 100 42 10 81 60 5 5
100 97 38 93 100 100 100 100 100 100 100 100 100 100 100 100 100 59 5 8 5 5 5 5 0 0 0 0 0 3 5 5 5 5 0 6 50 0 0 0 0 0 6 17 11 5 6 5 1
100 86 54 5 98 100 100 84 100 100 100 100 100 100 100 100 100 86 40 5 5 5 5 5 3 5 0 5 0 0 5 2 0 0 0 64 14 4 0 0 0 0 0 5 5 5 1 0 0
99 98 30 3 39 100 100 100 100 100 100 97 80 100 100 100 100 92 36 83 82 7 5 7 5 5 2 5 0 0 0 0 0 0 0 42 5 0 0 0 0 0 0 5 0 0 0 0 0
48 94 7 2 4 100 96 100 100 100 100 100 100 100 100 98 100 100 87 100 100 58 50 5 5 5 5 5 5 0 0 0 0 0 0 35 0 0 0 0 0 0 0 0 0 0 0 0 0
57 77 72 86 51 100 97 100 100 100 100 97 100 100 100 100 100 100 100 100 100 100 76 65 37 12 5 5 5 5 5 4 0 0 0 0 0 0 0 0 0 0 0 0 0 0 0 0 0
100 52 60 91 100 76 9 100 100 100 100 100 100 100 100 100 100 100 100 100 84 80 100 89 70 38 7 30 8 5 5 47 0 0 0 0 0 0 0 0 0 0 0 0 0 0 0 0 0
100 99 5 99 91 74 25 100 100 100 100 100 100 100 100 100 100 98 98 97 100 100 95 72 76 92 95 8 20 5 5 4 1 0 0 0 7 0 0 0 0 0 0 0 0 0 0 0 0
100 100 70 100 100 95 91 89 100 100 100 100 100 100 100 100 100 100 100 100 100 100 98 100 99 100 100 78 67 8 5 5 4 5 0 0 3 0 0 0 0 0 0 0 0 0 0 0 0
100 99 100 88 99 70 57 80 100 100 100 100 100 100 100 100 100 100 100 100 84 99 97 100 100 100 100 94 23 56 5 5 5 0 0 0 0 0 0 0 0 0 0 0 0 0 0 0 0
100 100 100 100 100 95 100 76 97 100 100 100 100 100 100 100 100 100 100 100 100 59 84 99 100 100 100 100 60 100 5 5 5 0 0 4 3 3 7 3 1 0 0 2 2 4 4 1 0
100 100 100 100 100 100 86 100 90 33 100 100 100 100 100 100 100 100 100 100 100 100 100 100 100 100 100 100 77 100 97 58 28 4 5 5 5 34 17 6 7 14 20 5 5 24 6 5 5
100 100 100 100 100 99 100 82 99 87 93 100 100 100 100 100 100 100 100 100 100 100 98 100 100 91 88 100 100 78 91 100 37 28 7 16 97 56 15 33 55 61 32 61 58 22 5 5 5
100 100 100 100 100 94 100 100 91 94 6 100 100 84 100 100 100 100 100 100 100 100 100 59 100 100 100 100 100 100 100 99 76 24 32 81 88 67 38 54 84 78 15 21 15 33 10 35 60
100 100 100 100 100 70 82 100 100 37 0 49 100 87 86 100 100 100 100 100 100 100 100 88 100 100 100 100 100 100 100 96 90 100 100 100 100 100 97 84 72 80 25 5 6 11 18 47 88
81 72 100 100 93 100 100 100 100 28 5 5 100 100 89 70 100 100 100 100 100 100 100 100 100 100 93 100 100 100 100 100 100 100 100 100 100 100 100 88 52 49 42 50 84 77 78 100 100
100 100 100 100 99 100 100 100 100 74 100 17 8 100 95 95 100 100 100 100 100 100 100 100 100 100 100 100 100 100 100 100 100 100 100 100 100 100 100 100 100 100 100 100 100 100 100 100 100
100 100 100 100 100 100 100 100 100 11 79 62 45 85 100 99 99 100 100 100 100 100 100 100 100 100 100 100 100 100 100 100 100 100 100 100 52 88 97 96 99 98 100 100 100 100 100 100 100
99 100 100 100 100 100 100 97 100 8 94 13 5 6 94 100 77 59 100 100 100 100 100 100 100 100 100 100 100 96 100 100 100 100 100 100 100 100 100 100 100 100 100 100 100 100 100 100 100
100 76 100 100 100 100 100 96 97 86 5 4 40 74 23 100 100 86 99 100 100 100 100 100 100 100 100 100 100 100 100 100 100 100 100 100 100 100 100 100 100 100 100 100 100 100 100 100 100
100 91 100 100 100 100 100 5 98 5 4 5 40 100 98 86 100 100 69 100 100 100 100 100 100 100 100 100 100 100 100 100 100 100 100 100 100 100 100 100 100 100 100 100 100 100 100 100 100
100 100 100 100 100 99 96 87 36 4 5 5 97 100 40 26 42 90 95 100 100 100 100 100 100 100 100 100 100 100 100 100 100 100 100 100 100 100 100 100 100 100 100 100 100 100 100 100 100
40 100 100 100 100 51 6 5 27 0 3 13 85 100 100 59 52 71 41 100 100 100 100 100 100 100 100 100 100 100 100 100 100 100 100 100 100 100 100 100 100 100 100 100 100 100 100 100 100
100 100 98 48 99 5 5 5 5 15 3 5 3 28 45 74 72 100 99 98 100 100 100 100 100 100 100 100 100 100 100 100 100 100 100 100 100 100 100 100 100 100 100 100 100 100 100 100 100
97 56 10 17 8 3 70 6 1 3 3 34 5 0 0 92 74 94 5 85 86 100 100 100 100 100 100 100 100 100 100 100 100 100 100 100 100 100 100 100 100 100 100 100 100 100 100 100 100
98 100 100 100 100 100 100 100 6 26 75 11 5 4 0 1 62 100 88 12 5 21 85 100 100 100 100 100 100 100 100 100 100 100 100 100 95 100 100 100 100 100 100 100 100 100 100 100 100
100 100 100 83 26 100 100 100 45 96 100 94 19 5 5 0 4 14 100 100 15 94 100 95 95 100 100 100 100 100 100 100 100 100 100 100 98 86 90 96 80 87 100 100 100 100 100 100 100
100 100 100 98 94 100 90 74 99 100 100 100 99 6 5 0 0 25 100 100 96 58 8 36 97 63 99 100 100 100 100 100 100 100 100 100 99 100 100 98 53 75 100 100 86 100 100 100 100

GFSSGP_prec_cloud_081.txt.gz
Cloud_Cover
88 100 100 100 100 80 65 99 100 72 100 100 100 100 76 76 30 56 65 6 5 34 8 12 12 3 5 5 5 5 12 5 5 3 5 5 6 5 35 68 100 100 100 99 2 0 50 5 5
100 97 100 100 100 48 48 100 61 100 100 100 98 96 84 100 42 51 66 40 28 21 5 13 10 10 5 5 1 5 5 5 5 5 5 5 5 5 5 7 71 100 87 91 2 5 5 11 9
96 76 95 100 100 99 86 78 100 100 100 100 96 99 70 100 16 56 52 5 5 5 5 5 5 5 5 5 5 0 4 5 9 5 5 5 4 5 5 82 100 86 88 1 2 5 5 24 16
93 30 51 73 17 100 100 100 100 100 100 100 100 100 100 100 72 100 75 5 10 23 52 5 5 5 5 13 5 0 5 5 5 6 5 5 5 5 5 12 95 46 4 0 2 5 19 5 5
97 6 49 21 100 100 100 99 96 96 100 100 100 100 100 100 91 46 67 10 9 23 14 5 24 5 4 4 3 0 0 1 5 25 6 5 5 1 0 1 4 5 1 0 4 1 5 5 0
92 68 27 0 98 100 100 100 100 100 100 100 100 100 100 100 100 100 88 30 21 46 44 12 5 5 5 3 1 0 0 0 0 5 1 3 2 4 0 0 3 4 0 0 0 0 1 5 0
100 57 9 0 36 100 100 100 97 100 100 100 100 100 100 100 100 100 100 50 78 65 48 40 27 5 5 6 5 2 2 0 0 1 0 0 0 0 0 0 0 0 0 0 0 0 0 0 0
100 100 6 5 5 100 100 100 100 94 100 100 100 100 100 100 100 100 100 100 100 50 40 40 12 5 35 66 37 15 5 0 5 5 12 0 0 0 0 0 0 0 0 0 0 0 0 0 0
100 100 68 5 5 88 64 100 100 100 100 100 100 100 100 100 100 100 90 100 100 100 100 90 19 5 30 40 9 10 5 5 4 5 5 4 0 0 0 0 0 0 0 0 0 0 0 0 0
100 100 98 21 73 70 5 97 100 100 100 100 100 100 83 100 100 100 98 100 100 100 100 100 100 82 94 32 5 5 5 5 5 5 5 5 0 3 1 0 0 0 0 0 0 0 0 0 0
100 100 99 99 100 100 66 56 100 100 100 100 100 100 100 100 100 100 100 100 100 100 100 100 100 100 90 100 92 6 5 5 5 5 5 5 3 4 5 12 0 2 0 0 0 0 0 0 0
100 100 100 100 100 100 98 6 96 100 100 100 100 100 100 100 100 100 100 100 100 100 100 100 100 100 100 100 100 42 5 5 5 5 16 29 5 1 2 17 0 1 0 3 0 0 0 3 5
100 100 100 100 100 99 69 5 49 100 100 100 100 100 100 100 100 100 100 100 100 100 100 100 100 100 100 100 94 98 21 9 5 8 45 53 23 5 0 0 3 4 5 5 5 5 5 5 5
100 100 100 100 100 85 100 8 46 70 100 100 100 100 100 100 100 100 100 100 100 100 73 90 100 100 100 100 100 100 96 79 62 46 69 58 14 5 0 3 5 5 14 5 5 5 5 5 5
100 100 100 100 74 100 100 74 5 45 100 100 100 100 100 100 100 100 100 100 98 100 100 100 100 100 100 100 100 100 100 100 88 52 81 81 92 91 36 13 31 34 5 5 5 5 5 6 47
100 100 100 100 100 100 100 100 99 79 96 100 100 99 100 100 100 100 100 100 100 100 100 100 100 100 100 100 100 100 100 100 100 100 98 100 100 78 78 52 12 48 28 23 58 52 78 68 79
100 100 100 100 100 100 100 100 100 100 93 98 100 100 92 100 100 100 100 100 100 100 100 100 100 100 100 100 100 100 100 100 100 100 100 100 100 100 100 98 81 99 99 96 100 100 75 46 76
100 100 100 100 100 100 100 100 100 82 11 8 10 100 96 44 100 100 100 100 100 100 100 100 100 100 100 100 79 100 100 100 100 100 100 100 100 100 100 100 99 100 100 100 100 100 100 100 100
100 100 100 100 100 100 100 100 100 100 22 5 5 32 100 64 78 100 100 100 78 93 100 100 100 96 100 100 99 100 100 100 100 100 100 100 100 100 100 100 100 100 100 100 100 100 100 100 100
100 100 100 100 100 100 93 100 100 100 85 5 5 2 79 100 45 100 100 100 100 100 95 100 100 100 100 100 100 100 100 100 100 100 100 100 100 100 100 100 100 100 100 100 100 100 100 100 100
100 100 100 100 100 100 100 100 100 97 98 52 5 0 2 98 98 58 100 100 100 100 100 100 100 100 100 100 100 100 100 100 100 100 100 100 100 100 100 100 100 100 100 100 100 100 100 100 100
100 100 100 100 100 100 100 100 100 100 99 5 3 0 0 0 100 100 16 99 100 100 100 100 100 100 100 100 100 100 100 100 100 100 100 100 100 100 100 87 100 100 100 100 100 100 100 100 100
100 100 100 100 100 100 100 100 100 71 90 22 5 5 4 0 0 99 100 84 72 98 100 100 100 100 100 100 100 100 100 100 100 100 100 100 100 100 100 100 100 100 100 100 100 100 100 98 83
75 81 100 100 100 100 95 76 100 30 100 45 6 5 5 1 0 0 95 100 100 95 100 100 100 100 100 100 100 96 100 100 100 100 100 100 100 100 100 100 100 99 100 100 100 100 100 100 100
99 66 100 100 100 100 98 100 100 100 86 97 54 7 2 0 0 1 0 34 100 100 98 100 100 100 100 100 100 100 100 100 100 100 100 100 100 100 100 100 100 100 100 100 100 100 100 100 100
73 99 99 100 96 97 50 94 100 81 100 65 5 0 0 0 0 0 23 2 11 100 100 100 100 100 100 100 99 100 100 100 100 100 100 100 100 100 100 100 100 100 98 100 99 100 100 100 100
100 90 13 100 100 100 100 100 100 99 17 0 3 21 5 0 0 0 26 100 4 76 98 100 100 100 100 100 100 100 100 100 100 100 100 100 100 100 100 100 95 85 94 97 96 74 39 100 98
50 32 86 79 100 100 100 71 60 100 6 5 4 0 0 0 0 0 5 80 93 7 46 99 100 100 100 100 100 100 100 100 100 100 100 100 100 100 100 100 91 63 73 35 19 6 30 78 99
56 86 74 90 93 100 100 36 5 27 12 5 5 0 0 0 0 0 0 0 2 32 18 5 66 100 100 100 100 100 100 100 100 100 100 100 100 96 91 95 29 24 24 23 8 5 14 56 99
13 71 64 98 83 24 85 91 54 33 44 11 5 5 0 0 0 0 0 0 0 100 95 5 3 6 7 82 100 100 91 100 100 100 100 100 100 75 86 63 40 13 85 23 20 17 7 56 100

GFSSGP_prec_cloud_084.txt.gz
Cloud_Cover
100 100 92 100 100 100 91 100 100 99 100 100 100 86 68 39 6 5 62 100 100 100 56 52 5 7 8 2 0 0 0 0 4 28 5 5 23 93 100 100 65 89 18 5 33 21 14 1 4
100 97 100 100 100 99 27 100 100 100 100 99 100 100 100 79 21 98 84 51 29 98 95 68 5 5 5 11 0 0 0 0 0 6 4 5 5 55 69 83 100 95 5 5 5 5 4 5 4
100 94 91 96 99 100 73 100 100 100 100 100 98 100 100 100 93 13 26 98 24 29 34 18 5 5 5 12 5 0 4 0 0 0 5 5 5 9 38 96 64 24 5 5 5 0 0 2 5
100 100 98 80 50 100 100 100 100 100 100 100 100 100 81 66 50 10 51 43 36 32 16 5 5 5 5 5 5 5 11 1 9 5 5 5 5 13 100 4 5 3 0 0 1 0 0 2 5
100 100 100 19 0 100 100 100 100 100 100 100 100 100 100 99 30 51 19 5 37 61 33 5 5 5 5 5 5 5 5 20 13 7 5 5 1 1 79 8 0 0 2 0 0 0 0 0 4
100 100 100 6 0 100 100 100 100 93 100 100 100 100 94 100 100 97 100 56 30 59 15 24 5 5 5 5 5 5 4 11 57 3 0 0 0 0 0 2 1 0 3 1 0 0 0 0 0
98 100 88 5 0 100 100 100 100 93 100 100 100 100 100 91 100 100 96 43 32 65 36 68 30 20 40 5 40 6 10 5 99 4 0 0 0 0 0 0 0 8 2 0 0 0 0 0 0
100 100 100 60 5 6 100 100 100 100 100 100 100 100 100 100 100 100 100 100 100 100 100 97 84 99 27 19 5 5 29 9 22 12 20 5 4 5 0 0 0 0 0 0 0 0 0 0 0
100 100 100 100 5 21 96 100 100 100 100 100 100 97 100 100 100 99 100 100 100 100 100 100 100 94 96 89 51 5 5 5 26 66 5 5 5 5 2 0 0 0 0 0 0 0 0 0 0
100 100 100 100 78 69 22 100 100 100 100 100 100 73 100 100 100 100 100 100 100 100 100 100 100 100 100 100 81 20 29 7 7 5 9 5 5 5 5 5 0 0 0 0 0 0 0 0 0
100 98 100 100 92 85 71 81 100 100 99 100 100 100 100 100 100 100 100 100 100 100 100 100 100 100 100 100 97 94 95 29 22 13 21 46 19 5 8 10 5 2 0 0 0 0 0 0 0
100 100 100 100 100 94 20 96 100 100 100 100 100 100 100 100 100 100 100 100 100 100 100 100 100 100 100 100 100 99 40 100 100 30 20 58 60 10 14 22 8 6 5 0 0 0 4 5 5
91 100 100 100 100 100 90 20 58 100 100 100 100 100 100 100 100 99 100 100 100 100 100 100 100 100 100 100 100 100 100 100 97 64 58 56 89 36 10 7 26 6 5 5 4 5 5 39 51
90 100 100 100 100 100 90 40 9 100 100 100 100 100 100 100 100 100 100 100 100 100 100 100 100 100 100 100 100 100 100 100 100 89 64 99 67 45 45 9 14 36 10 12 5 5 5 5 6
100 100 100 100 100 100 100 88 55 90 100 100 100 100 100 100 93 100 100 100 100 100 100 100 100 100 100 99 100 100 100 100 100 100 100 100 100 100 100 26 5 13 11 8 7 8 5 5 11
100 100 100 100 100 100 99 97 96 47 100 100 100 100 100 100 99 97 100 100 100 100 100 100 100 100 100 100 100 100 100 100 100 100 100 100 100 100 100 100 100 61 11 11 44 57 46 63 100
100 100 100 100 100 100 100 88 84 47 15 100 100 100 100 100 100 100 100 100 100 100 100 100 100 100 100 100 100 98 100 100 100 100 100 100 100 100 100 100 100 100 95 49 99 100 100 100 100
100 100 100 100 100 100 100 100 100 72 5 23 100 100 100 100 100 100 100 100 100 100 100 100 100 100 100 100 100 100 100 100 100 100 100 100 100 100 100 100 100 100 100 100 100 100 100 100 100
100 100 100 100 100 100 100 100 100 99 76 72 100 100 92 100 100 100 100 100 100 100 100 100 100 100 100 100 100 100 100 100 100 100 100 100 100 100 100 100 100 100 100 100 100 100 100 100 100
94 98 100 100 100 100 100 100 100 100 100 88 6 100 100 97 100 100 100 100 100 100 100 100 100 100 100 100 100 100 100 100 100 100 100 100 100 100 100 92 99 100 100 100 100 100 100 100 100
88 100 100 100 100 100 100 100 100 97 100 100 25 7 100 100 76 100 100 100 100 100 100 100 100 100 100 100 100 96 100 100 100 100 100 100 100 100 100 100 100 99 100 100 100 100 100 100 100
100 100 100 100 100 100 100 100 100 100 100 46 10 3 1 94 95 65 100 100 100 100 100 100 100 100 100 100 100 100 100 100 100 100 100 100 100 100 100 100 88 98 98 100 100 100 100 100 100
100 100 100 100 100 100 100 100 92 100 100 8 4 1 42 1 94 100 58 100 100 100 96 100 100 100 100 100 100 91 100 100 100 100 100 100 100 100 100 100 100 100 100 100 100 98 100 100 99
100 100 100 100 100 100 100 79 97 56 100 100 73 2 0 0 73 100 100 100 89 100 100 100 100 100 100 99 100 100 97 94 100 100 100 100 100 100 100 100 100 100 100 100 100 100 100 100 100
100 100 100 100 100 100 100 87 40 100 100 100 70 3 0 0 0 24 99 100 100 75 97 100 100 100 100 100 100 100 100 100 100 100 100 100 100 100 100 100 100 100 100 100 100 100 100 97 100
100 100 100 100 100 100 100 71 88 100 100 99 73 4 0 0 0 0 0 7 52 96 94 11 100 100 100 100 100 100 100 100 100 100 100 100 100 100 100 100 99 97 96 98 66 98 52 27 16
100 100 100 100 100 100 100 100 94 100 97 15 22 100 39 2 3 0 0 0 0 1 53 100 86 90 90 100 100 100 100 100 100 100 100 100 100 100 100 100 100 100 100 61 57 100 100 100 100
42 93 99 100 100 100 100 100 100 100 100 100 100 100 97 34 1 0 0 0 0 0 0 6 95 100 94 71 97 100 100 100 100 100 100 100 100 100 100 100 100 100 100 100 100 99 100 99 82
41 15 18 65 100 100 99 100 100 100 99 5 12 47 57 65 11 1 0 0 0 0 0 0 0 0 26 100 100 100 87 100 98 100 100 100 100 100 100 89 80 74 91 57 31 20 7 12 88
6 5 5 41 27 9 48 100 100 99 82 24 41 35 32 2 0 0 0 0 0 0 0 0 0 0 0 5 1 10 84 100 100 100 100 100 100 100 100 100 100 90 65 73 17 5 5 5 22

GFSSGP_prec_cloud_087.txt.gz
Cloud_Cover
70 100 100 98 12 12 38 90 100 90 100 100 76 66 13 12 27 8 68 85 26 100 70 49 46 39 20 5 5 0 0 0 2 96 83 27 24 42 97 99 100 5 5 5 5 3 4 2 5
68 99 100 100 30 4 19 100 100 96 100 100 100 100 5 18 20 100 100 83 34 90 100 100 93 25 24 5 6 5 11 0 0 25 100 100 48 98 100 5 5 5 5 5 4 3 4 3 11
98 100 100 100 20 2 83 100 100 100 100 100 100 100 57 47 100 97 74 99 97 78 100 100 100 94 5 5 5 5 5 5 0 3 37 63 100 100 18 5 5 5 10 12 5 0 0 0 0
100 100 100 100 23 0 100 100 100 72 100 100 100 100 77 99 100 88 97 69 52 100 41 14 60 92 7 5 5 5 68 29 5 5 0 0 1 11 4 5 6 2 0 6 3 0 0 0 0
100 80 100 100 6 0 100 100 100 100 100 100 100 100 66 100 100 100 94 40 59 92 98 8 6 5 5 5 4 33 5 70 93 6 5 5 40 30 5 7 2 16 2 0 0 0 0 0 0
100 100 100 100 5 0 92 100 100 100 100 100 100 100 100 100 100 100 100 50 96 92 42 76 72 5 5 27 8 7 21 23 67 44 5 5 98 44 4 30 7 5 3 10 0 0 0 0 0
97 100 100 54 0 4 48 100 100 100 100 100 100 100 100 100 100 99 75 70 45 49 17 44 45 48 41 89 52 20 43 24 5 5 5 10 8 60 7 2 4 7 3 8 0 0 0 0 0
20 75 85 40 5 0 35 100 100 100 100 100 100 100 93 97 100 100 100 100 76 39 47 87 85 49 53 70 95 96 69 100 46 5 5 5 5 5 5 5 7 21 0 0 0 0 0 0 0
31 100 100 15 68 23 40 100 100 100 100 100 100 100 100 100 100 100 100 100 100 94 73 98 100 100 100 100 100 100 57 81 69 7 5 5 5 5 5 5 5 5 4 1 0 0 0 0 0
99 100 100 90 87 96 96 100 100 100 100 100 100 100 100 93 100 100 100 100 100 100 100 100 100 100 99 100 89 100 100 100 98 80 5 6 5 5 5 5 5 7 5 5 5 5 1 0 0
12 76 100 100 44 100 100 100 100 100 100 100 100 100 100 100 100 100 100 100 100 100 100 100 100 94 100 98 70 100 94 77 100 33 15 8 44 9 5 9 10 65 19 5 5 5 5 0 0
1 13 100 100 89 100 100 100 100 100 100 100 100 100 100 100 100 100 100 100 100 100 100 100 100 100 100 100 100 100 98 80 67 100 80 100 100 100 51 46 54 48 77 5 5 5 5 5 5
4 98 100 100 100 100 100 100 94 100 100 100 100 100 100 100 100 100 100 100 100 100 100 100 100 100 100 100 100 100 100 100 100 100 100 100 100 100 100 35 14 10 6 44 16 27 13 16 24
4 100 100 100 100 100 100 100 86 100 100 100 100 100 100 100 100 100 100 100 100 100 100 100 100 100 100 100 100 100 100 100 100 100 100 100 100 100 100 97 91 71 90 56 39 15 30 55 57
100 100 100 100 100 100 100 100 70 20 100 100 100 100 100 93 100 100 100 100 100 100 100 100 100 100 100 100 100 100 100 97 100 100 100 100 100 100 100 100 100 99 100 92 23 26 63 69 81
100 100 100 100 100 100 100 100 100 35 100 100 100 100 100 100 93 100 100 100 89 100 100 100 100 100 100 100 100 100 100 100 100 100 100 100 100 100 100 100 100 100 100 100 100 100 100 100 100
100 100 100 100 100 100 100 100 100 61 98 100 100 100 100 100 100 100 100 100 100 100 100 100 100 100 100 100 100 100 97 100 100 100 100 100 100 100 100 100 100 100 89 89 100 100 100 100 100
100 100 100 100 100 100 100 100 100 69 6 98 100 100 100 100 100 100 100 100 100 100 100 100 100 100 100 100 100 100 100 100 100 100 100 100 100 100 100 100 100 100 100 100 100 94 100 100 100
5 100 100 100 100 100 100 100 100 98 22 27 100 100 100 100 100 100 100 100 100 100 100 100 100 100 100 100 100 100 100 100 100 100 100 100 100 100 100 100 100 100 100 98 94 75 100 100 100
100 100 100 100 100 100 100 100 100 100 60 10 79 100 100 100 100 100 100 100 100 100 100 100 100 100 100 100 100 100 100 100 100 100 100 100 100 100 100 100 100 100 96 100 98 96 100 100 78
100 100 99 100 100 100 100 100 100 100 85 14 21 100 100 100 100 100 100 100 86 99 100 100 100 100 100 100 100 100 100 100 100 100 100 100 100 100 100 100 100 100 100 90 100 94 99 91 76
100 100 100 100 100 100 100 100 100 100 100 37 19 18 100 100 100 100 100 100 100 100 100 100 100 100 100 100 100 100 100 100 100 100 100 100 100 100 100 100 100 100 100 98 100 100 100 99 100
100 100 100 100 100 100 100 100 100 100 93 96 69 8 61 100 100 100 100 100 100 100 94 100 100 100 100 100 100 100 100 100 100 100 100 100 100 100 100 100 100 100 100 100 100 98 98 100 66
100 100 100 100 100 100 100 100 100 100 100 100 100 99 88 99 100 100 100 100 100 100 99 100 100 100 94 100 100 100 100 100 100 100 100 100 100 100 100 100 100 100 100 100 100 100 100 100 100
100 100 100 100 100 100 100 100 100 100 100 100 45 5 4 2 61 100 100 100 100 100 100 100 100 100 100 100 100 100 100 100 100 100 100 100 100 100 100 100 100 100 100 100 100 100 97 92 94
100 100 100 100 100 100 100 99 100 100 100 100 100 60 13 0 0 9 100 100 100 100 100 100 100 100 100 100 100 100 100 100 100 100 100 100 100 100 100 100 100 100 100 100 90 100 71 99 100
98 100 100 100 100 100 100 100 100 16 45 100 100 94 11 0 0 0 0 87 100 77 100 89 100 100 100 100 100 100 100 100 100 100 100 100 100 100 100 100 99 100 100 100 100 100 100 100 100
92 66 100 92 100 97 100 100 100 88 58 100 100 100 58 60 5 5 0 1 37 100 98 97 83 100 96 100 100 100 100 100 100 100 100 100 99 100 100 100 100 100 100 98 100 100 100 100 100
36 13 34 100 100 14 42 91 100 100 100 85 19 28 32 85 9 4 0 0 0 0 30 100 100 100 99 100 100 100 100 100 100 100 100 100 100 100 100 100 100 100 100 100 100 100 100 100 93
5 94 96 60 99 94 35 89 18 39 15 10 90 77 99 59 13 4 3 0 0 0 0 0 1 66 100 100 100 100 100 100 100 100 100 100 100 100 100 100 100 100 100 100 100 100 100 100 98

GFSSGP_prec_cloud_090.txt.gz
Cloud_Cover
7 0 8 100 10 6 5 1 100 100 100 100 73 63 60 5 5 7 39 98 56 87 98 100 55 5 10 4 2 5 5 25 8 5 1 9 28 9 11 91 92 5 3 1 1 14 56 22 11
73 5 80 100 96 46 0 23 100 100 100 97 100 50 62 13 13 98 100 100 37 92 59 10 81 22 8 5 5 12 5 20 99 28 19 26 14 63 16 98 11 5 16 35 65 99 36 3 0
2 20 99 97 96 72 0 0 100 100 99 100 100 48 57 91 71 93 100 80 44 84 53 6 36 48 5 6 5 22 5 6 99 100 35 24 76 100 16 93 3 7 98 100 100 26 4 0 0
0 19 75 100 100 3 0 0 100 100 100 100 100 98 64 66 81 100 86 50 46 50 88 70 89 100 85 5 5 5 5 5 5 48 100 100 100 29 13 23 7 17 86 97 27 11 3 0 0
0 10 100 100 100 2 0 0 100 100 100 100 100 100 100 99 100 100 97 45 98 84 42 100 100 98 62 9 5 5 5 5 6 7 7 63 43 12 23 24 5 16 43 32 16 10 3 0 0
24 19 100 100 100 3 4 4 100 100 93 100 100 100 100 100 73 100 90 63 100 100 34 62 90 100 65 5 5 5 5 5 5 20 51 100 100 100 6 9 43 12 17 18 11 18 0 0 0
69 40 18 15 99 18 5 16 10 100 100 74 100 100 100 100 100 100 100 97 100 100 29 98 30 59 76 5 22 25 5 5 5 28 82 100 25 98 40 53 84 64 11 24 6 0 0 0 0
8 93 14 90 94 68 82 100 7 96 100 100 100 100 100 100 100 100 100 100 98 76 53 62 34 13 9 57 92 84 68 16 5 5 5 51 100 100 100 18 7 11 12 5 2 0 0 0 0
1 100 21 64 93 5 53 100 100 76 100 100 94 100 100 100 100 100 100 100 100 98 96 98 69 41 26 7 7 34 97 100 100 86 11 5 5 5 3 5 5 5 5 5 5 4 5 4 5
96 100 7 1 5 97 100 100 100 97 100 100 100 100 100 100 100 100 100 100 100 100 100 100 100 74 36 55 95 100 100 99 81 89 100 39 5 5 5 5 5 5 0 5 5 5 5 5 5
66 24 3 5 88 76 100 100 100 84 100 100 100 100 100 100 100 100 100 100 100 100 100 100 97 97 99 100 100 100 99 57 89 100 100 99 11 7 6 13 14 5 5 5 6 29 17 6 5
97 5 22 5 100 100 100 100 100 98 100 100 100 100 100 100 100 100 100 100 100 100 100 100 100 100 100 100 100 98 93 96 100 100 100 66 82 22 92 81 96 100 10 5 5 8 13 52 38
100 4 4 80 100 92 94 99 100 75 100 100 100 100 100 100 100 100 100 100 100 100 100 100 100 100 100 100 100 96 46 100 100 100 100 100 100 100 100 100 100 100 100 62 39 67 83 46 12
11 5 34 97 100 100 100 45 63 26 100 100 100 100 100 100 100 100 100 100 100 100 100 100 100 100 100 98 100 100 98 100 100 100 100 100 100 100 100 100 100 100 100 68 35 52 93 99 69
7 6 62 100 100 100 100 99 88 46 100 100 100 100 100 100 100 100 100 100 100 100 100 100 100 100 100 100 100 100 100 100 100 100 100 100 100 100 100 100 100 84 99 52 93 100 100 99 100
6 58 100 100 100 100 100 100 100 59 100 100 100 100 100 100 100 100 100 100 100 100 100 100 100 100 100 100 100 100 100 100 100 100 100 100 100 98 100 100 100 100 100 100 100 100 100 100 100
43 100 100 100 100 100 100 98 100 68 100 100 100 100 100 100 100 100 100 100 100 100 100 100 100 100 100 100 100 100 100 100 100 85 59 76 86 98 100 100 100 100 100 100 100 100 100 100 100
94 100 100 100 100 100 100 100 100 63 100 100 100 100 100 100 100 100 100 100 100 100 100 100 100 100 100 100 100 100 100 100 100 88 39 62 64 84 100 100 100 100 100 94 21 39 79 80 100
100 100 100 100 100 100 100 100 100 95 84 100 100 100 100 100 100 100 100 100 100 100 100 100 100 100 100 100 100 100 100 100 100 100 89 60 100 65 100 100 100 100 97 64 17 10 20 96 96
100 100 100 100 100 100 100 100 100 99 97 100 100 100 100 100 100 100 100 100 100 100 100 100 100 100 100 100 100 100 100 100 100 100 100 100 100 100 94 94 98 100 96 32 100 96 93 77 77
100 100 100 100 100 100 100 100 99 100 100 100 100 100 100 100 100 100 100 100 100 100 100 100 100 100 100 100 100 100 100 100 100 100 100 100 100 100 100 100 100 100 95 100 92 100 87 97 70
100 100 100 87 100 100 100 100 100 100 100 77 100 100 100 100 100 100 100 100 100 100 100 100 100 100 100 100 100 100 100 100 100 100 100 100 100 100 100 100 100 100 100 100 100 95 89 100 72
100 100 88 69 100 100 100 93 100 100 100 100 70 100 100 100 100 100 100 100 100 100 100 100 100 100 100 100 100 100 100 100 100 100 100 100 100 100 100 100 100 100 100 100 100 100 100 100 100
100 100 100 97 100 100 100 100 100 100 100 100 100 100 100 100 100 100 100 100 100 100 100 100 100 100 100 100 100 100 100 100 100 100 100 100 100 100 100 100 100 100 100 100 100 100 100 100 100
100 100 100 100 100 100 100 100 100 98 99 100 100 100 88 100 100 100 100 100 100 100 100 100 100 85 100 100 100 100 100 100 100 100 100 100 100 100 100 100 100 100 100 100 100 100 100 98 86
100 100 100 100 100 100 100 100 100 100 100 100 100 100 95 100 100 100 100 100 100 100 100 100 100 100 86 100 100 100 100 100 100 100 100 100 100 100 100 100 100 100 100 100 100 100 74 31 77
100 100 94 100 100 100 100 40 100 100 100 100 100 100 83 99 87 100 100 100 100 100 100 100 100 99 96 85 97 100 100 100 100 100 100 100 100 100 100 100 100 100 100 100 100 100 100 100 100
100 100 100 98 100 100 100 76 83 100 100 100 100 99 100 99 78 41 99 100 100 100 100 100 100 100 94 87 100 100 100 100 100 100 100 100 100 100 100 100 100 100 100 100 100 100 100 100 100
100 100 96 100 100 100 100 100 100 100 100 100 100 100 58 24 96 13 5 80 100 100 100 100 100 100 100 100 100 100 100 100 100 100 100 100 100 100 100 100 100 100 100 100 100 100 100 100 99
5 21 100 100 100 100 100 26 99 64 70 50 100 100 100 100 98 96 5 5 46 100 100 100 100 100 100 100 100 100 100 100 100 100 100 100 100 100 92 77 100 100 100 100 100 100 100 100 100

GFSSGP_prec_cloud_093.txt.gz
Cloud_Cover
0 0 0 0 2 14 1 0 0 0 80 100 100 55 5 5 36 10 99 98 74 37 43 19 5 5 5 5 1 0 0 0 0 0 5 5 8 12 80 17 1 2 2 0 54 91 97 1 0
0 0 0 5 4 14 2 0 0 1 8 100 100 89 32 83 100 88 99 96 54 47 51 33 41 5 8 5 4 1 1 0 0 0 5 5 17 20 100 47 0 22 62 43 100 100 40 2 2
16 0 0 1 21 5 4 0 0 0 5 54 100 100 47 6 100 100 100 98 60 84 42 34 93 18 5 5 8 5 4 80 4 2 0 29 11 7 100 8 55 99 100 100 100 7 5 5 0
1 3 9 0 10 5 5 0 0 0 4 12 100 100 80 70 75 100 100 100 52 100 76 66 20 71 11 41 6 5 4 93 95 56 39 96 96 100 100 84 100 100 100 100 14 5 5 0 0
10 41 9 0 4 8 5 2 0 0 0 5 100 100 98 100 19 100 100 100 56 89 100 78 79 99 86 100 21 5 5 39 100 91 100 100 100 100 100 94 94 100 100 64 5 7 0 0 0
1 12 22 9 5 4 5 2 5 5 3 3 100 100 100 100 98 98 100 100 91 78 100 85 68 40 20 24 7 82 25 5 5 64 100 100 100 100 90 100 100 100 96 16 78 22 2 0 0
10 75 7 0 0 5 0 4 5 28 5 2 100 98 100 100 100 100 100 100 100 83 97 100 77 63 57 37 5 5 6 5 5 4 15 100 100 65 100 100 100 100 49 9 4 4 0 0 0
4 57 71 2 4 3 0 9 33 96 15 100 100 96 100 100 100 100 98 100 100 100 17 100 65 70 20 49 12 46 39 6 5 100 100 93 100 100 100 100 100 100 12 13 5 3 0 0 0
0 69 12 11 0 0 0 0 100 92 52 95 100 100 99 100 100 100 100 100 100 100 98 100 31 40 10 5 8 22 21 36 5 19 48 87 100 100 37 3 26 5 5 5 5 4 1 5 5
31 13 5 5 0 0 2 2 100 97 41 100 89 98 100 98 100 100 99 100 100 100 100 100 29 28 51 5 6 59 88 20 5 5 44 89 96 52 98 20 5 3 5 5 5 5 5 5 5
6 14 5 5 2 7 5 89 100 100 5 75 100 100 100 100 100 100 100 100 100 100 100 100 100 81 40 73 98 96 100 80 78 93 100 100 27 6 46 31 5 5 5 6 66 11 5 5 5
2 0 4 3 5 2 90 92 53 100 7 59 51 100 94 100 100 100 100 100 100 100 100 100 100 100 86 100 100 100 100 100 100 100 100 70 44 84 74 68 74 76 45 100 68 44 73 14 5
42 0 1 3 5 25 100 100 100 100 100 99 100 100 100 100 100 100 100 100 100 100 100 100 100 100 100 100 100 100 100 100 100 99 100 57 99 98 100 100 100 100 100 100 100 100 100 98 35
72 75 39 38 5 98 100 98 94 100 100 100 98 100 100 100 100 100 100 100 100 100 100 100 100 100 100 100 100 100 100 100 100 100 99 99 100 100 100 100 100 100 100 100 100 100 100 57 28
100 100 100 67 3 95 100 100 98 100 100 100 100 100 100 100 100 100 100 100 100 100 100 100 100 100 100 100 100 100 100 100 100 100 100 100 100 98 100 84 100 100 97 78 6 22 99 100 99
100 100 100 5 1 24 16 19 99 100 100 100 100 100 68 96 100 100 100 100 100 100 100 100 100 100 70 100 100 100 100 98 100 100 100 100 100 100 100 100 100 100 80 61 100 95 79 90 100
92 100 100 88 94 100 98 84 100 98 5 100 100 100 100 88 100 100 100 100 100 100 100 100 100 100 100 100 100 100 100 100 100 100 100 100 100 93 100 99 100 92 66 46 55 77 36 98 67
38 100 100 100 97 100 100 100 100 91 75 100 100 100 100 100 100 100 100 100 100 100 100 100 100 100 100 100 100 100 100 100 100 100 100 100 100 100 100 94 100 93 94 90 18 99 100 100 100
96 100 100 100 100 100 100 100 100 100 85 100 100 100 100 100 100 100 100 100 100 100 100 100 100 100 100 100 100 100 100 100 100 97 100 100 100 100 100 100 89 100 97 88 100 100 89 72 38
100 100 100 100 100 100 100 100 100 85 100 100 100 100 100 100 100 100 100 100 100 100 100 100 100 100 100 100 100 100 100 100 100 100 100 100 100 100 94 100 99 100 91 64 84 100 55 26 18
100 100 100 100 100 100 100 100 100 89 100 100 100 100 100 100 100 100 100 100 100 100 100 100 100 100 100 100 100 100 100 100 100 100 100 100 100 100 100 100 100 100 100 100 100 91 95 61 100
99 100 100 100 100 100 100 100 100 85 100 100 100 100 100 100 100 100 100 100 100 100 100 100 100 100 100 100 100 100 100 100 100 100 100 100 100 100 100 100 100 100 100 97 100 100 100 66 78
100 100 100 100 100 100 100 100 100 99 100 100 100 100 100 100 100 100 100 100 100 100 100 100 100 100 100 100 100 100 100 100 100 100 100 100 100 100 100 100 100 100 100 100 100 100 100 100 100
100 100 100 100 100 100 100 100 100 100 100 100 100 100 100 100 100 100 100 100 100 100 100 100 100 100 100 98 100 100 100 100 100 100 100 100 100 100 100 100 100 100 100 100 100 100 100 100 100
100 100 100 95 100 100 100 100 100 100 86 88 100 100 100 100 100 100 100 100 100 100 100 100 100 100 100 95 100 100 100 100 100 100 100 100 100 100 100 100 100 100 100 100 100 100 100 100 100
100 100 100 98 97 100 100 80 87 49 100 92 100 100 100 100 100 100 100 100 100 100 100 100 100 100 100 100 100 100 100 100 100 100 100 100 100 100 100 100 100 100 100 100 100 100 100 100 100
100 100 100 100 100 100 100 100 100 66 90 100 100 100 100 100 100 100 100 98 100 100 100 100 100 100 100 100 100 100 100 100 100 100 100 100 100 100 100 100 100 100 100 100 100 100 100 100 100
100 95 97 100 100 100 100 100 98 100 100 100 100 100 100 100 100 100 100 100 98 100 100 100 100 100 96 96 100 100 100 100 100 100 100 100 100 100 100 100 100 100 100 100 100 100 99 100 100
90 99 33 12 31 100 100 79 100 100 100 100 100 100 100 100 100 100 100 100 100 100 100 100 100 100 100 85 87 100 100 100 100 100 100 100 100 100 100 100 100 100 100 100 100 100 100 100 100
100 100 100 100 100 6 80 89 100 100 79 100 100 100 97 99 100 100 100 100 100 100 100 100 100 100 100 100 98 100 100 100 100 100 100 100 100 100 100 100 100 100 100 100 100 100 100 100 100

GFSSGP_prec_cloud_096.txt.gz
Cloud_Cover
36 12 0 0 0 0 0 3 1 0 0 8 0 5 40 6 16 85 44 55 100 99 99 40 24 0 0 0 23 3 0 0 0 0 0 3 31 15 25 3 0 0 3 44 21 91 0 4 0
93 56 0 7 0 0 0 1 31 0 0 2 54 4 98 27 5 62 97 73 100 100 100 77 5 5 5 2 28 8 3 1 0 0 0 9 35 35 11 3 2 15 96 100 100 2 4 5 5
99 46 18 0 5 1 3 7 5 0 0 0 29 6 99 50 26 38 100 97 100 100 99 74 5 5 5 16 21 5 4 1 0 0 4 11 33 40 74 5 68 100 99 96 13 0 4 5 5
0 14 4 3 0 3 5 5 98 0 0 0 1 24 30 98 5 36 83 100 94 87 100 100 5 20 5 5 5 5 0 0 0 5 5 16 7 100 92 46 100 100 100 100 4 4 5 5 5
0 16 2 0 0 2 5 8 98 1 0 0 0 0 96 100 66 31 54 74 88 78 100 100 95 99 32 69 6 7 54 5 0 6 90 84 99 100 100 100 100 99 100 61 5 6 5 5 5
48 3 4 1 0 0 5 36 5 2 0 13 0 42 92 100 100 82 100 100 63 75 99 89 90 68 100 100 62 41 97 90 97 99 78 100 100 100 100 100 100 95 100 3 7 5 5 2 4
76 5 0 0 0 0 5 5 5 0 4 2 20 5 81 100 100 100 100 85 99 99 100 100 100 73 100 100 100 54 7 75 99 92 100 100 100 100 100 100 100 100 56 39 3 0 1 1 3
5 78 5 5 1 0 2 5 5 0 4 5 69 15 76 100 100 100 100 100 100 100 100 100 100 72 81 100 100 68 7 5 5 5 12 97 86 100 100 100 100 100 11 2 0 0 0 5 1
5 10 5 5 5 5 0 5 5 0 4 41 87 5 100 100 100 100 100 100 100 100 99 100 100 35 5 93 100 100 89 6 5 5 47 99 5 6 31 73 100 86 7 0 0 0 5 1 5
5 5 5 4 5 5 5 5 4 5 0 55 39 70 100 100 100 100 100 100 100 100 100 100 100 100 84 81 71 100 63 17 38 35 32 28 22 5 5 40 38 5 5 5 0 5 4 0 5
5 5 3 5 5 7 73 57 5 51 5 5 100 90 51 100 100 100 100 100 100 100 100 100 100 100 100 100 64 61 100 77 97 95 21 90 37 54 87 100 91 5 13 4 0 5 3 94 91
5 0 5 5 5 40 95 16 74 52 4 3 100 22 96 100 100 100 100 100 100 100 100 100 100 100 100 100 100 87 82 100 100 100 22 27 38 100 100 100 100 48 63 53 24 91 91 100 93
30 4 5 5 5 10 8 65 34 26 3 11 99 84 94 100 100 100 100 100 100 100 100 100 100 100 100 100 100 86 98 100 100 100 100 100 100 100 100 100 100 89 83 94 98 90 70 98 100
87 95 5 5 5 5 31 2 99 2 2 16 94 45 74 100 100 100 100 100 100 100 100 100 100 100 100 100 100 100 100 100 100 100 100 100 100 100 100 98 100 100 98 100 100 72 66 93 19
30 61 12 15 2 6 24 57 36 14 69 8 100 50 100 100 100 100 100 100 100 100 100 100 100 100 100 100 100 100 100 100 100 100 100 100 100 100 100 100 100 100 100 100 40 40 81 5 81
10 72 90 5 11 89 50 19 5 23 97 100 100 99 100 100 100 100 100 100 100 100 100 100 100 100 100 100 100 100 100 100 100 100 100 100 100 100 100 100 100 100 88 100 28 6 5 5 60
91 100 100 100 49 36 56 95 92 67 90 100 100 23 100 100 100 100 100 100 100 100 100 100 100 100 100 100 100 100 100 100 100 100 100 100 100 100 100 100 100 95 100 46 5 12 21 5 13
95 97 100 100 22 54 23 62 80 100 100 100 100 93 100 100 100 100 100 100 100 100 100 100 100 100 100 100 100 100 100 100 100 100 100 100 100 100 100 100 100 100 72 79 51 32 25 19 67
100 100 100 100 67 67 10 39 100 100 100 100 100 100 100 100 100 100 100 100 100 100 100 100 100 100 100 100 100 100 100 100 100 100 100 100 100 100 100 100 100 100 72 73 71 90 100 6 78
100 100 100 100 100 84 52 100 100 93 95 100 100 100 100 100 100 100 100 100 100 100 100 100 100 100 100 100 100 100 100 100 100 100 100 100 100 100 100 100 100 100 100 100 100 100 100 77 43
100 100 100 100 100 100 100 100 100 97 82 100 100 100 100 100 100 100 100 100 100 100 100 100 100 100 100 100 100 100 100 100 100 100 100 100 100 100 100 100 100 100 100 100 99 70 86 66 80
100 100 100 100 100 100 100 100 100 100 100 100 100 100 100 100 100 100 100 100 100 100 100 100 100 100 100 100 100 100 100 100 100 100 100 100 100 100 100 100 100 100 100 100 100 100 100 100 81
100 100 100 100 100 100 100 100 100 100 100 100 100 100 100 100 100 100 100 100 100 100 100 100 100 100 100 100 100 100 100 100 100 100 100 100 100 100 100 100 100 100 100 100 100 100 100 100 100
100 100 100 100 100 100 100 100 100 100 100 100 100 100 100 100 100 100 100 100 100 100 100 100 100 100 100 100 100 100 100 100 100 100 100 100 100 100 100 100 100 100 100 100 100 100 100 100 100
100 100 100 100 100 100 100 96 96 100 100 100 100 100 100 100 100 100 100 100 100 100 100 100 100 100 100 100 100 100 100 100 100 100 100 100 100 100 100 100 100 100 100 100 100 100 100 100 100
100 100 100 100 100 100 100 100 100 98 78 100 100 100 100 100 100 100 100 100 100 100 100 100 100 100 100 100 100 100 100 100 100 100 100 100 100 100 100 100 100 100 100 100 100 100 100 100 100
100 100 100 100 100 100 98 96 100 100 99 100 100 100 100 100 100 100 100 100 100 100 100 100 100 100 100 100 100 100 100 100 100 100 100 100 100 100 100 100 100 100 100 100 100 100 100 100 100
100 100 100 100 100 100 100 88 100 100 100 100 100 100 100 100 100 100 100 100 100 100 100 100 100 100 100 100 100 100 100 100 100 100 100 100 100 100 100 100 100 100 100 100 100 100 100 100 100
100 100 100 100 89 83 80 97 100 100 99 100 100 100 100 100 100 100 100 100 100 100 100 100 100 100 100 100 100 100 99 99 100 100 99 100 100 100 100 100 100 100 100 100 100 100 100 100 100
100 100 100 16 100 9 29 89 95 95 96 98 100 100 100 100 100 100 100 100 100 100 100 100 100 100 100 98 100 100 100 100 100 100 100 100 100 100 100 100 100 100 100 100 100 100 100 100 100

GFSSGP_prec_cloud_099.txt.gz
Cloud_Cover
3 0 2 63 4 4 0 0 0 0 4 5 84 97 35 12 100 83 17 1 77 50 91 44 31 5 5 0 15 8 0 0 0 0 0 5 6 20 5 5 17 13 0 2 0 0 0 0 1
4 0 2 4 5 4 0 0 0 0 3 5 83 4 2 9 61 46 44 7 20 100 96 98 94 5 5 5 17 10 0 0 0 0 0 5 35 56 5 5 5 3 8 12 2 0 0 0 0
0 0 3 5 5 4 0 0 4 5 5 5 18 35 49 5 32 39 86 4 2 88 89 98 100 52 5 20 21 12 0 0 0 0 0 5 23 99 4 5 32 5 97 67 5 4 1 0 0
5 5 4 5 5 0 2 0 0 18 30 5 5 75 14 0 0 10 100 58 34 64 100 100 38 65 5 52 16 5 5 0 0 0 0 5 5 39 13 39 6 98 5 10 4 5 5 2 0
5 3 5 0 0 1 0 5 0 5 5 5 73 8 41 0 0 1 94 100 92 72 34 100 5 100 50 6 61 25 5 5 0 0 0 2 15 95 38 100 100 100 94 5 2 2 5 5 5
4 5 2 0 0 0 0 0 4 5 5 26 37 27 32 5 0 3 18 100 100 98 96 78 18 31 100 100 84 5 5 20 5 7 18 11 59 100 100 100 100 100 72 4 4 6 3 3 1
5 5 0 0 0 0 1 4 5 5 5 5 6 96 34 60 0 0 96 68 100 100 44 89 98 25 14 100 100 64 6 5 5 100 72 98 100 100 100 100 100 100 50 1 16 0 0 0 0
5 4 4 2 3 2 0 3 5 5 5 44 11 54 100 62 6 4 99 100 100 100 93 54 71 54 42 16 100 100 57 47 50 83 100 100 99 100 100 100 100 100 100 100 50 5 3 0 0
5 5 1 3 5 4 4 2 0 5 5 5 5 92 37 98 89 0 98 100 100 98 100 98 58 79 35 8 50 100 100 100 100 95 75 99 28 99 100 100 100 100 79 94 5 5 4 0 0
5 5 4 5 5 5 5 5 5 4 8 7 12 48 83 50 7 5 100 100 100 100 100 100 97 100 76 81 66 100 100 100 100 82 36 8 5 9 7 60 100 93 14 7 34 5 4 0 0
56 4 5 5 5 5 5 5 13 5 14 96 5 98 29 80 82 89 100 100 100 100 100 100 100 100 94 100 98 100 100 51 73 100 95 23 5 5 20 45 62 18 37 100 98 5 5 0 0
6 5 5 1 4 44 58 24 100 20 99 94 21 95 93 6 73 95 100 100 100 100 100 100 100 100 100 100 100 100 100 100 70 96 99 100 58 66 49 12 5 66 100 100 100 19 66 92 16
78 4 3 5 5 5 5 23 100 5 83 55 100 83 85 35 94 83 100 100 100 100 100 100 100 100 100 100 100 100 100 100 60 8 25 48 96 100 100 25 62 96 100 100 100 90 74 44 52
50 100 76 12 5 28 5 5 15 74 2 62 99 57 90 99 100 100 97 100 100 100 100 100 100 100 100 100 100 100 100 100 100 91 84 92 100 100 100 100 100 100 100 100 100 100 64 76 34
46 85 88 15 14 75 18 42 50 27 66 38 98 2 4 90 96 100 100 100 100 100 100 100 100 100 100 100 100 100 100 100 100 100 100 100 100 100 100 100 100 100 100 100 100 100 99 67 5
100 66 5 56 84 20 100 5 5 58 97 60 88 88 1 12 100 100 100 97 82 100 100 100 100 100 100 100 100 100 100 100 100 100 100 100 100 100 100 100 100 100 100 99 100 100 68 91 6
94 67 37 85 56 100 91 59 93 90 7 56 0 1 1 82 100 100 100 100 100 100 100 100 100 100 100 100 100 100 100 100 100 100 100 100 100 100 100 100 100 88 100 100 100 100 31 100 15
96 98 75 100 100 31 95 100 30 97 49 3 0 0 24 100 100 100 100 100 100 100 100 100 100 100 100 100 100 100 100 100 100 100 100 100 100 100 100 100 100 100 100 100 100 100 90 94 97
100 69 37 100 100 96 100 100 100 100 100 7 5 13 84 100 100 100 100 100 100 100 100 100 100 100 100 100 100 100 100 100 100 100 100 100 100 100 100 98 100 100 100 100 100 100 100 68 41
100 69 72 100 96 100 100 99 92 91 76 8 95 100 100 100 100 100 100 100 100 100 100 100 100 100 100 100 100 100 100 100 100 100 100 100 100 100 100 100 100 100 100 100 100 100 100 82 91
65 73 100 100 98 97 98 88 82 70 99 100 100 100 99 100 100 100 100 100 100 100 100 100 100 100 100 100 100 100 100 100 100 100 100 100 100 100 100 100 100 100 100 100 100 100 100 100 100
81 99 100 100 100 100 100 100 100 100 100 100 100 100 100 100 100 100 100 100 100 100 100 100 100 100 100 100 100 100 100 100 100 100 100 100 100 100 100 100 100 100 100 100 100 100 100 100 100
64 100 100 100 100 100 100 100 100 100 100 100 100 100 100 100 100 100 100 100 100 100 100 100 100 100 100 100 100 100 100 100 100 100 100 100 100 100 100 100 100 100 100 100 100 100 100 100 100
100 100 100 100 100 100 100 100 100 100 100 100 100 100 100 100 100 100 100 100 100 100 100 100 100 100 100 100 100 100 100 100 100 100 100 100 100 100 100 100 100 100 100 100 100 100 100 100 100
100 100 100 100 100 100 100 100 100 100 100 100 98 100 100 100 100 100 100 100 100 100 100 100 100 100 100 100 100 100 100 100 100 100 100 100 100 100 100 100 100 100 100 100 100 100 100 100 100
100 100 100 100 100 100 100 100 100 100 100 100 100 100 100 100 100 100 100 100 100 100 100 100 100 100 100 100 100 100 100 100 100 100 100 100 100 100 100 100 100 100 100 100 100 100 100 100 100
100 100 100 100 100 100 100 100 100 100 100 100 100 100 100 100 100 100 100 100 100 100 100 100 100 100 100 100 100 100 100 100 100 100 100 100 100 100 100 100 100 100 100 100 100 100 100 100 100
100 100 100 100 100 100 100 100 100 100 100 100 100 100 100 100 100 100 100 100 100 100 100 100 100 100 100 100 100 100 100 100 100 100 100 100 100 100 100 100 100 100 100 100 100 100 100 100 100
100 100 98 99 100 99 100 100 100 100 100 100 100 100 100 100 100 100 100 100 100 94 100 100 100 100 100 100 100 100 100 100 100 100 100 100 100 100 100 100 100 100 100 100 100 100 100 100 100
100 100 98 72 100 50 53 100 87 25 63 100 100 100 100 100 100 100 100 100 100 100 100 100 100 100 100 100 100 100 100 100 100 100 100 100 100 100 100 100 100 100 100 100 100 100 100 100 100

GFSSGP_prec_cloud_102.txt.gz
Cloud_Cover
2 3 0 0 9 0 3 1 0 0 0 0 2 38 68 4 2 55 33 4 34 8 5 0 5 5 5 1 0 0 0 0 0 2 6 11 5 5 5 6 5 11 35 3 1 0 30 92 100
0 0 3 0 6 3 68 94 0 0 0 0 5 5 5 4 5 2 11 5 2 0 2 4 4 5 5 5 6 5 5 0 0 0 0 0 15 5 41 12 5 6 5 5 1 1 0 0 0
0 0 2 3 6 4 4 13 4 0 0 0 5 5 84 6 4 0 0 8 14 0 0 16 5 3 5 6 10 5 5 5 0 0 0 0 4 6 34 5 5 5 5 5 5 2 1 0 4
0 0 0 4 3 0 0 5 5 1 5 0 0 3 5 5 5 1 0 5 63 7 0 0 4 5 5 40 40 5 2 5 2 0 0 0 26 0 5 85 72 13 18 22 5 5 0 0 2
0 0 3 1 0 0 1 0 0 0 0 5 19 0 3 2 1 2 0 0 0 4 5 6 0 5 5 10 68 80 5 5 15 62 2 4 2 2 4 61 99 40 54 45 48 5 5 0 0
76 1 4 2 0 0 0 0 0 0 0 4 72 100 60 2 0 46 3 0 36 16 27 18 74 0 4 5 50 61 48 5 81 5 5 5 78 20 51 100 90 100 5 5 5 5 3 0 0
5 4 2 0 0 0 0 0 0 0 0 1 70 75 2 60 2 0 4 0 7 2 92 66 24 5 5 5 8 92 67 5 2 2 3 33 99 100 100 100 100 100 81 7 12 8 17 5 1
1 3 3 1 4 1 2 0 0 3 2 0 2 56 65 90 27 90 0 0 1 2 34 100 100 35 5 5 4 12 100 100 100 30 5 75 96 100 97 100 100 100 46 31 5 54 74 5 4
5 4 1 5 3 0 0 0 0 0 0 0 0 51 98 43 4 8 38 1 0 31 56 100 100 100 36 10 8 60 49 91 100 100 100 100 99 100 100 100 100 100 32 5 5 5 20 5 4
5 5 2 5 0 0 0 1 0 0 0 0 5 6 100 59 53 4 81 16 0 12 80 74 100 100 100 65 32 32 57 90 82 100 94 95 100 100 100 100 100 100 98 53 5 26 100 100 6
5 2 0 2 1 1 3 0 0 4 0 0 5 12 4 62 6 0 7 93 4 0 10 100 100 100 100 100 66 30 100 99 100 99 100 100 87 73 100 100 100 100 98 5 5 30 100 99 14
1 2 4 5 5 2 0 0 0 3 0 0 5 30 77 5 3 0 1 57 5 5 8 100 100 100 100 100 52 100 41 100 33 100 100 100 100 100 27 31 99 22 26 21 8 90 100 100 96
42 4 3 2 5 0 0 0 0 0 4 5 1 93 99 8 54 0 20 57 15 13 90 100 100 100 100 100 100 100 100 85 100 92 99 100 96 22 100 97 92 55 85 96 86 50 100 100 100
5 6 7 18 5 5 6 0 0 0 0 4 0 18 78 81 79 2 6 14 19 91 100 100 100 100 100 100 100 100 100 100 100 100 100 100 100 90 70 71 65 50 100 100 100 100 100 100 100
24 7 5 5 5 5 30 23 5 0 0 0 0 5 10 7 0 5 0 8 100 47 97 100 100 100 100 100 100 99 100 100 100 100 100 100 100 100 100 100 100 100 100 100 100 100 100 100 100
5 40 65 0 2 15 92 2 0 0 0 0 0 4 5 83 62 74 46 100 100 100 100 100 100 100 100 100 100 99 100 100 100 100 100 100 100 100 100 100 100 100 100 100 100 100 100 100 100
7 44 34 8 39 97 86 1 0 0 3 0 0 18 68 29 5 98 73 100 95 100 100 100 100 100 100 100 100 100 100 100 100 100 100 100 100 100 100 100 100 100 100 100 100 100 100 100 100
97 98 52 23 20 99 12 5 0 62 39 0 2 5 98 3 2 65 100 98 92 100 100 100 100 100 100 100 100 100 100 100 100 92 85 100 100 100 100 100 100 100 100 100 100 100 92 100 100
34 100 96 2 44 100 8 0 3 68 79 41 89 100 25 1 0 100 100 100 100 100 100 100 100 100 100 100 100 100 100 100 100 100 100 100 100 100 100 100 100 100 100 100 100 100 100 100 100
100 100 99 8 74 5 6 4 6 92 100 98 49 78 69 1 9 100 100 100 100 100 100 100 100 100 100 100 100 100 100 100 100 100 100 100 100 100 100 100 100 100 100 100 100 98 100 100 100
100 100 69 98 86 58 92 17 5 100 91 6 98 4 8 10 92 100 100 100 100 100 100 100 100 100 100 100 100 100 100 100 100 100 99 100 100 100 100 100 100 100 100 100 100 100 100 100 100
92 80 74 99 100 100 92 86 94 76 39 99 3 53 76 69 100 100 100 100 100 100 100 100 100 100 100 100 100 100 100 100 100 100 100 100 100 100 100 100 100 100 100 100 100 100 100 100 100
87 74 66 96 100 100 100 100 100 100 100 47 82 28 49 100 100 100 100 100 100 100 100 100 100 100 100 100 100 100 100 100 100 100 100 100 100 100 100 100 100 100 100 100 100 100 100 100 100
100 98 100 95 100 100 100 100 100 100 100 100 97 97 100 100 100 100 100 100 100 100 100 100 100 100 100 100 100 100 100 100 100 100 100 100 100 100 100 100 100 100 100 100 100 100 100 100 100
100 100 100 100 100 100 100 100 100 100 100 100 100 100 100 100 100 100 100 100 100 100 100 100 100 100 100 100 100 100 100 100 100 100 100 100 100 100 100 100 100 100 100 100 100 100 100 100 100
100 100 100 100 100 100 100 100 100 100 100 100 100 100 100 100 100 100 100 100 100 100 100 100 100 100 100 100 100 100 100 100 100 100 100 100 100 100 100 100 100 100 100 100 100 100 100 100 100
99 100 100 100 100 100 100 100 100 100 100 100 100 100 100 100 100 100 100 100 100 100 100 100 100 100 100 100 100 100 100 100 100 100 100 100 100 100 100 100 100 100 100 100 100 100 100 100 100
100 86 100 100 100 100 100 92 100 100 100 100 100 100 100 100 100 100 100 100 100 100 100 100 100 100 100 100 100 100 100 100 100 100 100 100 100 100 100 100 100 100 100 100 100 100 100 100 100
100 100 100 96 100 100 100 100 100 100 100 100 100 100 100 100 100 100 100 100 100 100 100 100 100 100 100 100 100 100 100 100 100 100 100 100 100 100 100 100 100 100 100 100 100 100 100 100 100
97 100 100 99 98 94 100 100 100 100 100 100 100 100 100 100 100 100 100 100 100 100 100 100 100 100 100 100 100 100 100 100 100 100 100 100 100 100 100 100 100 100 100 100 100 100 100 100 100

GFSSGP_prec_cloud_105.txt.gz
Cloud_Cover
6 5 5 5 31 2 2 16 30 5 0 0 0 3 6 10 27 12 0 3 7 78 1 6 2 0 0 0 0 0 0 0 0 0 2 4 1 0 1 0 31 72 98 28 0 99 100 86 0
0 0 5 5 13 31 4 5 5 5 0 0 0 2 13 5 1 0 0 0 4 100 3 1 2 4 0 0 0 0 0 0 0 0 0 0 0 0 7 0 55 21 7 11 0 22 56 27 0
0 0 0 0 5 56 4 5 5 5 0 0 0 0 0 1 1 0 0 0 1 76 78 4 0 0 1 0 0 0 0 4 4 5 1 0 0 0 21 0 5 5 12 7 5 5 2 2 0
0 0 0 29 5 79 18 5 5 3 0 0 0 0 0 0 0 0 0 0 0 8 100 5 0 0 0 0 0 0 2 5 5 5 4 0 0 4 15 0 0 6 5 5 5 5 5 5 3
0 0 0 0 0 1 28 1 0 0 0 0 0 2 2 1 5 2 0 0 0 3 14 85 4 0 0 5 1 0 0 1 2 5 0 1 3 0 0 0 0 1 5 5 5 6 5 5 4
0 0 2 6 0 0 0 0 0 0 0 0 0 1 4 5 3 2 0 0 0 3 46 60 5 5 2 5 4 0 0 0 0 1 3 4 3 0 0 3 5 4 2 5 8 5 5 0 0
0 0 0 0 0 0 0 1 0 0 0 0 1 0 0 5 5 0 1 3 5 10 33 77 78 86 44 4 5 5 0 0 0 5 8 5 25 5 5 54 25 5 4 0 5 5 5 4 3
1 0 2 2 2 0 0 0 0 0 0 0 0 0 5 58 100 79 11 51 30 29 45 56 100 100 53 5 14 5 4 3 0 77 5 6 100 71 57 27 57 42 19 0 3 10 5 5 5
0 0 4 0 1 0 0 0 0 0 0 0 2 0 4 5 5 5 8 48 62 54 26 84 100 99 33 30 52 10 5 0 5 5 8 86 91 100 93 94 97 5 5 5 5 5 5 5 5
0 2 0 0 0 0 0 0 0 0 0 0 5 5 5 5 5 5 5 5 14 44 78 33 72 100 80 59 24 96 21 48 5 5 97 100 100 100 100 100 100 16 5 5 5 5 5 5 68
0 2 0 0 0 0 0 0 0 0 0 0 0 4 5 1 5 5 5 5 0 11 41 41 38 100 96 100 86 37 99 100 92 95 100 100 100 99 96 100 100 100 74 30 20 5 5 13 89
0 0 0 0 0 0 0 0 0 0 0 2 0 0 0 0 0 2 9 5 0 46 79 31 5 18 91 100 100 92 85 100 100 100 100 99 100 100 100 100 100 85 84 31 5 96 56 80 99
5 3 0 0 0 0 0 0 0 0 0 0 0 0 0 0 5 5 5 5 0 7 16 48 21 24 54 100 100 100 100 100 100 100 100 100 100 100 100 100 96 99 100 39 5 5 21 100 100
1 2 1 1 5 3 0 0 1 0 0 0 0 0 0 0 3 5 4 2 22 1 16 18 28 2 5 100 100 100 100 100 100 100 100 100 100 100 100 91 58 70 31 19 60 17 70 100 100
54 8 0 0 0 0 0 3 0 0 0 0 0 0 0 0 0 0 4 0 5 0 9 5 6 19 13 100 100 100 100 100 100 100 100 100 100 100 100 100 100 100 100 100 97 100 100 100 100
5 4 13 0 0 0 4 1 0 0 0 0 0 0 0 0 5 0 61 1 0 4 50 17 5 78 68 100 100 100 100 100 100 100 100 100 100 100 100 100 100 100 100 100 100 100 100 100 100
5 7 9 3 0 5 24 11 0 0 0 0 0 0 0 0 34 2 81 6 15 6 14 20 86 100 97 100 100 100 100 100 100 100 100 100 100 100 100 100 100 100 100 100 100 100 100 100 100
5 12 8 5 1 29 5 6 5 5 5 2 0 0 0 0 10 6 13 1 34 59 95 100 100 100 100 100 100 100 100 100 100 100 97 100 100 100 100 100 100 100 100 100 100 100 100 100 100
5 5 11 5 4 46 12 15 0 0 15 5 3 0 0 0 0 96 7 33 86 72 100 100 100 100 100 100 100 100 100 100 100 100 100 100 100 100 100 100 100 100 100 100 100 100 100 100 100
12 81 100 8 5 58 50 5 0 5 4 16 3 7 4 1 38 5 5 97 100 100 100 100 100 100 100 100 100 100 100 100 100 100 100 100 100 100 100 100 100 100 100 100 100 100 98 100 100
59 78 9 39 10 6 31 20 0 6 5 9 13 8 27 95 88 8 3 70 100 100 100 100 100 100 100 100 100 100 100 100 100 100 100 100 100 100 100 100 100 100 100 100 100 100 100 100 77
100 36 88 98 100 90 77 89 96 97 18 5 5 5 5 21 48 81 66 100 100 100 100 100 100 100 100 100 100 100 100 100 100 100 100 100 100 100 100 100 100 100 100 100 100 100 100 100 100
60 55 82 70 89 100 100 100 100 100 96 5 4 2 100 28 100 88 100 100 100 100 100 100 100 100 100 100 100 100 100 100 100 100 100 100 100 100 100 100 100 100 100 100 100 100 100 100 100
41 73 97 89 82 100 100 100 100 100 100 54 5 31 92 100 100 100 100 100 100 100 100 100 100 100 100 100 100 100 100 100 100 100 100 100 100 100 100 100 100 100 100 100 100 100 100 100 100
100 97 100 100 100 100 100 100 100 100 100 100 78 100 100 100 100 100 100 100 100 100 100 100 100 100 100 100 100 100 100 100 100 100 100 100 100 100 100 100 100 100 100 100 100 100 100 100 100
100 100 100 100 100 100 100 100 100 100 100 100 100 100 100 100 100 100 100 100 100 100 100 100 100 100 100 100 100 100 100 100 100 100 100 100 100 100 100 100 100 100 100 100 100 100 100 100 100
100 100 100 100 100 100 100 100 100 100 100 100 100 100 100 100 100 100 100 100 100 100 100 100 100 100 100 100 100 100 100 100 100 100 100 100 100 100 100 100 100 100 100 100 100 100 100 100 97
100 100 100 97 100 100 100 100 100 100 100 100 100 100 100 100 100 100 100 100 100 100 100 100 100 100 100 100 100 100 100 100 100 100 100 100 100 100 100 100 100 100 100 100 100 100 100 100 100
93 100 100 100 100 100 100 100 100 100 100 100 100 100 100 100 100 100 100 100 100 100 100 100 100 100 100 100 100 100 100 100 100 100 100 100 100 100 100 100 100 100 100 100 100 100 100 100 100
80 100 100 100 100 100 100 100 100 100 100 100 100 100 100 100 100 100 100 100 100 100 100 100 100 100 100 100 100 100 100 100 100 100 100 100 100 100 100 100 100 100 100 100 100 100 100 100 100

GFSSGP_prec_cloud_108.txt.gz
Cloud_Cover
0 0 0 0 0 1 10 1 5 26 5 0 0 0 0 0 0 0 0 0 9 100 13 2 19 5 0 0 0 0 0 0 0 1 58 0 0 0 1 15 18 16 35 0 97 100 0 10 1
0 0 0 2 0 20 7 0 0 17 0 0 0 0 0 0 0 0 0 0 0 40 97 8 5 1 0 0 0 0 0 0 0 0 7 0 4 0 7 24 2 100 36 8 100 100 0 12 8
0 0 0 0 0 58 78 6 5 0 0 0 0 0 0 0 0 0 0 0 0 0 15 44 5 3 0 0 0 0 0 0 0 0 0 0 0 0 0 54 0 50 4 6 22 13 1 0 0
0 0 0 0 12 62 72 5 5 0 0 0 0 0 0 0 0 0 0 0 4 8 1 3 5 5 3 0 0 0 5 0 0 0 0 0 0 0 0 9 0 5 5 5 8 7 5 4 4
4 0 0 3 0 0 1 3 0 5 0 0 0 0 0 0 0 0 0 0 13 20 1 33 4 5 5 0 5 4 0 0 0 0 0 0 0 4 8 0 0 0 5 5 4 5 14 5 4
89 4 2 5 0 0 0 0 0 0 0 0 0 0 0 0 0 0 1 0 0 6 7 6 70 39 5 0 0 3 5 4 0 0 0 0 0 0 20 0 0 0 0 1 3 3 5 5 5
2 20 0 0 0 0 0 0 0 0 0 0 0 0 0 0 1 10 28 6 8 23 33 24 1 16 5 5 1 0 3 4 2 0 0 0 4 0 1 0 3 5 5 1 0 5 0 4 5
0 0 2 0 0 0 0 0 0 0 0 0 0 0 0 0 39 60 61 100 77 73 54 36 27 0 2 20 5 3 0 2 5 2 0 1 2 5 0 0 5 5 2 1 5 4 3 0 0
0 0 1 0 0 0 0 0 0 0 0 0 0 0 0 0 82 72 100 100 100 97 40 26 0 3 52 42 14 71 12 5 2 5 5 5 74 10 5 2 2 1 0 0 5 5 6 5 5
0 0 1 0 0 0 0 0 0 0 0 4 0 0 0 0 0 0 24 100 100 100 85 37 0 4 4 38 68 92 96 48 5 5 5 27 100 76 42 94 84 18 99 5 4 5 7 93 24
0 0 0 0 0 0 0 0 0 0 0 33 37 0 0 0 0 0 0 15 66 100 98 32 0 5 4 15 97 39 100 88 76 82 5 72 100 92 100 98 100 100 23 32 24 5 3 66 60
0 0 0 0 0 0 0 0 0 0 0 0 97 15 0 0 0 0 0 0 8 98 92 32 37 20 6 17 80 92 29 98 99 47 30 96 94 100 100 100 100 100 72 24 6 7 6 26 73
0 0 0 0 0 0 0 0 0 0 0 0 0 81 35 0 0 0 0 0 0 11 5 68 28 5 5 6 100 100 100 96 100 98 69 100 100 94 100 100 100 100 98 30 18 3 64 100 23
1 2 0 0 0 0 0 0 0 0 0 0 0 0 0 0 0 0 5 2 0 31 5 16 36 21 5 5 36 100 73 100 100 100 69 100 100 100 100 100 100 100 100 96 16 73 32 22 36
16 7 3 0 0 0 0 0 0 0 0 0 0 0 0 0 0 0 0 2 0 0 4 6 12 0 17 12 4 8 67 100 100 100 100 100 100 100 100 100 100 100 58 94 88 98 98 99 100
5 12 32 0 0 0 5 4 0 0 0 1 0 0 0 0 0 0 0 0 0 10 25 4 5 51 43 19 4 1 16 100 100 100 100 100 100 100 100 100 100 100 76 100 100 100 99 100 100
5 5 10 5 0 0 4 4 0 0 3 5 3 0 0 0 0 0 0 0 0 4 24 23 0 11 65 56 14 10 0 94 100 100 100 100 100 100 100 100 100 100 100 100 100 100 100 100 100
5 13 5 5 0 0 4 1 0 0 0 1 0 0 0 0 0 0 0 0 0 10 11 5 19 24 100 36 45 82 45 6 100 100 100 100 100 100 100 100 100 100 100 100 100 100 100 100 100
5 57 98 5 4 7 4 1 0 0 0 0 0 1 0 0 0 0 0 0 5 24 25 20 49 71 47 15 98 100 100 55 100 100 100 100 100 100 100 100 100 100 100 100 100 100 100 100 100
86 100 78 5 5 47 5 2 0 0 0 0 0 11 0 0 0 0 0 2 25 2 5 1 58 49 87 100 76 100 100 100 100 98 100 100 100 100 100 100 100 100 100 100 100 100 100 100 100
100 100 98 22 8 5 30 28 0 0 0 0 0 4 0 2 0 0 0 3 3 21 8 3 90 87 42 100 77 99 100 100 100 92 100 100 100 100 100 100 100 100 100 100 100 100 100 100 100
100 94 65 100 64 97 53 75 5 52 8 2 0 0 5 6 5 5 2 12 1 0 54 51 95 80 74 100 100 100 100 100 100 100 100 100 100 100 100 100 100 100 100 100 100 100 100 99 100
53 76 15 6 99 98 99 100 81 93 100 4 0 0 0 91 34 41 50 5 64 53 48 100 100 99 100 100 100 100 100 100 100 100 100 100 100 100 100 100 100 100 100 100 100 100 100 100 100
99 100 100 92 100 98 100 100 37 100 100 90 2 2 50 98 88 89 55 100 100 100 100 100 100 100 100 100 100 100 100 100 100 100 100 100 100 100 100 100 100 100 100 100 100 100 100 100 100
100 100 100 89 100 100 100 100 100 100 100 100 100 100 94 100 100 100 100 100 100 100 100 100 100 100 100 100 100 100 100 100 100 100 100 100 100 100 100 100 100 100 100 100 100 100 100 100 100
100 88 100 98 100 100 100 100 100 100 100 100 100 100 100 100 100 100 100 100 100 100 100 100 100 100 100 100 100 100 100 100 100 100 100 100 100 100 100 100 100 100 100 97 100 100 100 100 100
99 100 100 100 100 100 100 100 100 100 100 100 100 100 100 100 100 100 100 100 100 100 100 100 100 100 100 100 100 100 100 100 100 100 100 100 100 100 100 100 100 100 100 100 100 100 100 100 100
100 100 100 100 100 100 100 100 100 100 100 100 100 100 100 100 100 100 100 100 100 100 100 100 100 100 100 100 100 100 100 100 100 100 100 100 100 100 100 100 100 100 100 100 100 100 100 100 100
100 100 100 100 100 100 100 100 100 100 100 100 100 100 100 100 100 100 100 100 100 100 100 100 100 100 100 100 100 100 100 100 100 100 100 100 100 100 100 100 100 100 100 100 100 100 100 100 100
100 100 100 100 100 100 100 100 100 100 100 100 100 100 100 100 100 100 100 100 100 100 100 100 100 100 100 100 100 100 100 100 100 100 100 100 100 100 100 100 100 100 100 100 100 100 100 100 100

GFSSGP_prec_cloud_111.txt.gz
Cloud_Cover
0 0 0 0 0 0 0 1 5 0 0 0 0 0 0 0 0 0 3 0 3 39 8 34 5 5 3 0 0 0 0 0 0 94 100 71 0 0 25 14 6 2 8 2 67 46 50 100 19
0 0 0 0 0 0 0 0 0 0 0 0 0 0 0 0 0 0 0 0 0 16 82 13 5 5 5 6 15 0 0 0 0 2 100 5 0 0 6 11 8 37 5 96 92 11 59 0 0
2 0 0 0 0 1 1 0 0 0 0 0 0 0 0 0 0 0 0 0 0 21 25 5 5 5 5 5 12 9 0 0 0 0 2 0 0 0 17 6 1 89 4 87 6 2 7 0 0
5 0 0 0 99 0 3 4 0 0 0 0 0 0 0 0 0 0 0 0 1 35 43 7 3 5 5 4 1 7 7 0 0 0 0 0 0 0 15 0 0 0 0 88 2 11 0 0 0
6 4 2 2 3 0 0 0 0 0 0 0 0 0 0 0 0 0 10 45 10 27 12 20 0 0 4 5 5 5 5 0 0 0 0 0 0 0 33 0 0 0 0 2 0 0 4 0 1
6 5 5 5 5 5 2 0 0 0 0 0 0 0 0 0 0 20 0 20 64 75 47 20 0 2 22 3 5 4 5 5 4 0 1 0 4 4 23 0 0 0 0 0 0 0 0 3 0
84 5 2 0 2 5 41 5 0 0 0 0 0 0 0 0 11 78 56 26 49 82 94 34 14 2 3 27 5 5 5 5 5 5 1 0 0 0 15 5 2 5 5 0 0 0 0 3 2
48 92 6 3 2 5 16 7 5 0 0 0 0 0 0 0 0 99 100 95 99 99 57 100 76 40 27 6 5 3 96 5 5 5 5 5 1 0 5 5 4 5 1 5 5 5 5 4 5
2 0 4 2 5 5 5 5 0 4 0 0 0 0 0 0 0 0 54 100 100 100 98 57 100 66 7 12 2 6 7 13 5 5 3 5 9 15 2 0 4 5 5 5 5 5 5 5 5
0 0 0 0 0 0 2 5 4 0 0 0 0 0 0 0 0 0 0 50 100 100 100 89 7 5 5 3 0 4 8 22 12 13 5 5 57 100 5 5 0 5 5 5 15 97 83 32 22
0 0 0 0 0 0 0 0 2 0 0 0 0 0 0 0 0 0 0 0 33 100 100 100 38 3 4 5 3 57 95 71 32 25 32 91 17 100 28 14 8 46 38 31 17 12 23 50 99
0 0 0 0 0 0 0 0 0 0 0 0 0 2 0 0 0 0 0 0 0 44 98 73 76 11 5 4 4 5 63 100 97 15 59 7 90 100 59 67 28 33 95 100 79 18 5 5 8
0 0 0 0 0 0 0 0 0 0 0 0 0 0 0 0 0 0 0 0 0 30 59 49 19 54 16 11 5 5 11 100 96 98 84 46 86 100 100 90 91 82 91 97 100 58 5 6 66
1 2 0 0 0 0 0 0 0 0 0 0 0 0 0 0 0 0 0 0 0 0 2 13 8 41 73 11 4 13 77 24 100 35 97 26 15 98 98 94 100 93 92 100 22 70 11 57 80
5 5 0 0 0 0 0 0 0 0 0 0 0 0 0 0 0 0 0 0 0 0 0 2 5 0 4 0 15 94 90 100 99 81 100 46 49 100 100 77 100 100 100 98 60 47 5 5 68
5 9 32 0 0 0 2 4 0 0 0 0 0 0 0 0 0 0 0 0 0 0 0 0 0 9 0 0 2 41 73 90 100 100 95 89 96 100 100 99 68 100 100 96 100 89 100 96 78
5 5 19 4 0 0 1 1 0 0 0 0 0 0 0 0 0 0 0 0 0 0 0 5 2 10 2 1 6 4 4 5 55 94 76 60 42 100 100 100 100 100 100 100 100 100 100 100 100
5 26 5 5 0 2 5 1 0 0 0 0 0 0 0 0 0 0 0 0 0 0 6 4 16 16 75 38 54 65 48 26 4 28 55 86 77 100 100 100 100 100 100 100 100 100 100 100 100
93 100 100 84 5 80 5 5 0 0 0 0 0 0 0 0 0 0 0 0 0 0 29 38 58 43 44 85 100 100 98 100 50 29 71 7 34 94 100 100 100 100 100 100 100 100 100 100 100
100 100 100 42 0 35 5 6 0 0 0 0 0 0 0 0 0 0 0 0 0 0 4 54 80 100 70 100 66 51 15 100 80 23 98 53 95 100 95 100 100 100 100 100 100 100 100 100 100
15 100 99 88 13 10 77 11 0 0 0 0 0 0 0 0 0 0 0 0 0 0 22 32 42 100 41 34 41 53 27 69 100 87 95 98 81 98 100 100 100 100 100 100 100 100 100 100 100
61 9 94 100 100 100 95 78 5 5 3 0 2 4 0 0 0 0 0 0 38 7 0 5 48 45 27 22 27 14 54 91 79 96 92 53 19 100 100 100 100 100 100 100 100 100 100 100 100
11 29 14 72 100 100 100 100 100 8 10 8 5 0 0 0 0 5 5 0 0 14 14 5 12 21 0 10 87 53 98 99 99 100 100 100 100 100 100 100 100 100 100 100 100 100 100 100 100
45 51 64 80 100 100 100 100 73 100 100 100 14 0 1 5 5 39 27 27 1 7 45 31 32 30 10 39 73 77 81 100 100 100 100 100 100 100 100 100 100 100 100 100 100 100 100 100 100
49 99 72 100 100 100 100 100 100 100 100 100 74 100 86 99 56 95 100 96 13 56 85 36 51 99 77 100 100 100 100 100 100 100 100 100 100 100 100 100 100 100 100 100 100 100 100 100 100
100 100 100 100 100 100 100 100 100 100 100 100 100 100 100 100 100 100 100 100 100 99 100 100 99 100 100 100 100 100 100 100 100 100 100 100 100 100 100 100 100 100 100 100 100 100 100 100 100
100 100 100 100 100 100 100 100 100 100 100 100 100 100 100 100 100 100 100 100 100 100 100 100 100 100 100 100 100 100 100 100 100 100 100 100 100 100 100 100 100 100 100 100 100 100 100 100 100
100 100 100 100 100 100 100 100 100 100 100 100 100 100 100 100 100 100 100 100 100 100 100 100 100 100 100 100 100 100 100 100 100 100 100 100 100 100 100 100 100 100 100 100 100 99 100 100 100
100 100 100 100 100 100 100 100 100 100 100 100 100 100 100 100 100 100 100 100 100 100 100 100 100 100 100 100 100 100 100 100 100 100 100 100 100 100 100 100 100 100 100 100 100 100 100 100 100
100 100 100 100 100 100 100 100 100 100 100 100 100 100 100 100 100 100 100 100 100 100 100 100 100 100 100 100 100 100 100 100 100 100 100 100 100 100 100 100 100 100 100 100 100 100 100 100 100

GFSSGP_prec_cloud_114.txt.gz
Cloud_Cover
0 0 0 0 0 0 0 0 0 0 0 0 0 0 0 0 0 0 0 0 0 20 44 4 4 5 54 19 5 4 2 4 1 100 100 46 9 0 6 6 0 78 56 84 4 0 100 100 100
0 0 0 0 0 0 0 0 0 0 0 0 0 0 0 0 0 0 0 0 0 22 15 5 5 4 5 6 23 5 6 2 1 99 100 16 1 2 2 3 2 4 7 14 17 83 100 22 1
0 0 0 0 0 0 0 0 0 0 0 0 0 0 0 0 0 0 0 0 6 31 8 5 5 1 4 5 5 5 5 5 5 1 23 5 1 0 11 17 0 4 4 85 0 24 3 0 0
4 0 0 0 0 0 0 0 0 0 0 0 0 0 0 0 0 4 0 0 5 44 14 0 1 5 0 1 15 4 8 5 5 5 5 5 5 9 6 5 3 5 5 5 4 0 0 1 0
28 3 4 5 0 0 0 0 0 0 0 0 0 0 0 0 0 12 79 16 40 74 64 2 0 0 4 0 5 5 5 4 3 5 5 5 4 2 51 5 5 5 5 13 8 2 0 0 0
72 55 25 94 5 0 0 0 0 0 0 0 0 0 0 0 0 8 98 54 5 73 22 0 0 0 0 0 4 5 5 5 1 0 4 5 3 4 24 5 5 5 5 9 5 5 5 2 3
100 86 97 100 92 5 4 0 0 2 0 0 0 0 0 0 0 0 53 100 72 41 2 100 80 2 0 0 16 4 5 5 3 3 5 5 4 1 9 5 5 5 5 5 5 5 10 10 5
100 86 92 100 99 99 35 2 0 5 0 0 0 0 0 0 0 0 0 80 100 100 38 46 100 100 100 21 1 10 5 5 5 5 6 5 5 5 5 4 5 5 5 5 5 5 5 5 5
92 30 97 100 43 27 23 5 5 2 5 0 0 0 0 0 0 0 0 3 54 92 100 98 100 100 100 100 92 3 5 5 5 0 28 100 78 5 5 27 9 55 5 6 20 5 5 5 11
13 22 100 66 4 5 10 37 26 5 4 2 0 0 0 0 0 0 0 0 1 89 100 100 99 87 73 100 100 15 47 7 5 5 9 100 100 99 10 6 25 5 48 5 55 80 5 5 25
0 0 15 67 5 4 7 5 5 5 5 5 0 0 0 0 0 0 0 0 3 15 77 100 99 48 11 26 37 18 38 30 88 59 18 58 82 100 100 99 83 10 5 16 28 66 20 18 5
0 0 0 0 3 3 0 1 5 5 3 2 5 0 0 0 0 0 0 0 0 0 0 31 90 100 66 20 53 20 10 23 98 99 59 37 24 46 72 96 99 100 59 47 40 32 95 78 66
0 0 0 0 0 0 0 0 0 0 0 0 0 0 0 0 0 0 0 0 0 0 2 8 100 99 99 56 86 100 92 5 81 44 20 44 6 78 100 90 30 55 95 100 51 64 100 99 90
1 0 0 0 0 0 0 0 0 0 0 0 0 0 0 0 0 0 0 0 0 0 0 22 50 44 38 85 84 17 49 5 13 99 100 100 94 24 100 100 49 67 41 39 100 100 93 100 100
5 3 0 0 0 0 0 0 0 0 0 0 0 0 0 0 0 0 0 0 0 0 0 11 23 1 16 6 5 11 5 0 5 6 98 100 89 16 19 85 99 100 100 96 95 95 93 96 99
4 4 3 0 0 0 0 3 0 0 0 0 0 0 0 0 0 0 0 0 0 0 0 0 0 20 6 2 32 13 5 0 7 24 33 93 100 99 23 96 100 92 100 90 100 51 100 99 96
5 5 8 4 0 0 0 1 0 0 0 0 0 0 0 0 0 0 0 0 0 0 0 0 1 1 1 0 15 24 0 10 0 27 67 88 97 93 54 52 100 72 96 100 100 100 100 100 55
5 29 62 25 2 1 5 5 0 0 0 0 0 0 0 0 0 0 0 0 0 0 0 0 13 1 12 11 13 30 43 46 10 2 40 50 100 100 98 100 87 100 100 100 100 100 100 100 71
55 100 84 6 4 63 5 4 0 0 0 0 0 0 0 0 0 0 0 0 0 0 0 0 18 31 58 100 100 75 29 100 100 51 0 18 40 98 100 100 100 100 100 100 100 100 100 100 100
38 14 5 2 4 23 5 4 0 0 0 0 0 0 0 0 0 0 0 0 0 0 0 0 0 8 57 76 99 63 55 88 99 86 24 90 80 62 70 78 100 98 100 100 100 100 100 100 100
7 12 5 43 57 64 24 5 0 0 0 0 0 0 0 0 0 0 0 0 0 0 0 0 0 0 88 93 40 100 100 78 61 92 57 100 100 100 90 27 6 99 100 100 100 100 100 100 100
53 4 49 100 100 98 43 76 5 0 4 5 5 3 0 0 0 0 0 0 0 0 0 0 32 26 100 41 70 100 100 74 41 42 50 75 100 80 95 52 70 99 100 100 100 100 100 100 100
5 34 5 52 100 100 60 100 17 50 57 82 52 5 0 0 0 0 0 0 0 0 2 4 44 66 96 100 100 100 100 5 6 25 60 97 42 99 90 74 100 100 100 100 100 100 100 100 100
5 5 18 60 100 100 100 100 100 100 100 100 100 96 84 78 53 4 1 2 5 5 33 32 46 99 58 56 82 85 36 13 53 81 90 100 100 100 100 100 100 100 100 100 100 100 100 100 100
24 99 100 100 100 100 100 100 100 100 100 100 100 100 100 98 100 97 65 99 14 22 100 100 76 52 58 76 86 42 31 6 12 30 54 100 97 100 100 100 100 100 100 100 100 100 100 100 100
100 100 100 100 100 100 100 100 100 100 100 100 100 100 100 100 100 100 100 100 100 94 73 94 94 100 77 78 99 100 100 92 89 97 100 100 98 100 100 100 100 100 100 100 100 100 100 100 100
100 100 100 100 100 100 100 100 100 100 100 100 100 100 100 100 100 100 99 100 100 100 100 100 100 100 100 100 98 100 100 100 100 100 100 100 100 100 100 100 100 100 100 100 100 100 100 100 100
100 100 100 100 100 100 100 100 100 100 100 100 100 100 100 100 100 100 100 100 100 100 100 100 100 100 100 100 100 100 100 100 100 100 100 100 100 100 100 100 100 100 100 100 100 100 100 100 100
100 100 100 100 100 100 100 100 100 100 100 100 100 100 100 100 100 100 100 100 100 100 100 100 100 100 100 100 100 100 100 100 100 100 100 100 100 100 100 100 100 100 100 100 100 100 100 100 100
100 100 100 100 100 100 100 100 100 100 100 100 100 100 100 100 100 100 100 100 100 100 100 100 100 100 100 100 100 100 100 100 100 100 100 100 100 100 100 100 100 100 100 100 100 100 100 100 100

GFSSGP_prec_cloud_117.txt.gz
Cloud_Cover
0 0 0 0 0 0 0 0 0 0 0 0 0 0 0 0 0 0 0 3 19 9 26 2 5 5 5 1 4 5 5 5 4 80 100 62 5 11 3 2 1 24 100 0 0 0 11 100 49
4 0 0 0 0 0 0 0 0 0 0 0 0 0 0 0 0 0 0 5 16 56 73 7 0 5 5 5 5 5 5 5 5 100 100 86 14 1 8 2 5 90 30 1 0 23 98 86 0
30 26 0 0 0 0 0 0 0 0 0 0 0 0 0 0 0 2 0 32 14 66 61 42 47 1 5 5 5 5 5 7 5 53 6 27 13 4 6 6 5 22 5 5 10 98 0 0 0
100 83 5 0 4 0 0 0 0 0 0 0 0 0 0 0 0 0 53 83 59 68 34 5 4 3 5 5 5 5 5 5 5 5 56 5 9 5 13 61 39 4 5 5 85 5 5 4 0
100 100 100 6 5 0 0 0 0 0 0 0 0 0 0 0 0 0 100 100 65 76 52 16 0 0 2 5 5 13 52 5 4 5 3 5 34 6 5 99 57 5 5 5 5 5 7 5 5
100 100 100 75 5 5 0 0 0 0 0 0 0 0 0 0 0 0 60 100 99 71 43 46 0 0 0 0 0 2 5 5 5 0 0 3 5 5 5 100 59 6 5 9 14 5 44 38 33
5 56 96 100 100 100 49 2 0 0 0 0 0 0 0 0 0 0 1 52 100 94 11 100 98 0 0 0 0 0 0 4 5 4 1 1 1 3 5 5 19 95 43 58 13 5 5 5 5
12 5 62 49 5 6 5 7 5 1 0 0 0 0 0 0 0 0 0 0 2 91 100 65 100 100 100 69 41 16 0 0 5 5 4 5 5 0 4 5 21 5 5 19 5 5 22 5 95
100 71 95 38 45 64 10 13 9 4 5 5 0 0 0 0 0 0 0 0 0 0 80 100 100 100 100 100 90 90 97 5 7 4 5 19 12 57 5 9 23 5 5 5 5 6 46 91 82
92 100 100 100 52 78 68 51 54 11 5 5 0 0 0 0 0 0 0 0 0 0 0 33 100 100 100 100 100 95 92 92 13 12 6 10 2 5 12 10 30 95 58 7 5 5 13 58 88
66 28 55 100 99 100 94 99 72 15 29 36 5 0 0 0 0 0 0 0 0 0 0 0 46 100 100 100 100 100 100 100 90 30 29 24 18 23 7 32 43 62 100 100 90 69 70 50 82
55 93 72 78 70 63 99 99 100 98 98 13 5 4 0 0 0 0 0 0 0 0 0 0 6 68 87 46 98 100 100 100 98 28 28 41 59 65 68 56 88 98 100 100 100 99 98 85 54
3 4 5 52 5 5 5 4 8 82 26 78 8 4 4 0 0 0 0 0 0 0 0 0 10 25 12 5 33 84 100 100 64 23 7 22 15 27 37 53 35 100 57 100 100 100 100 89 49
3 0 0 5 4 5 2 0 0 0 0 1 96 4 5 3 2 0 0 0 0 0 0 0 0 26 73 13 4 49 100 100 99 35 66 71 73 27 20 58 49 100 22 73 95 100 100 100 100
100 28 5 0 0 0 0 0 0 0 0 0 0 0 1 2 0 4 1 0 0 0 0 0 0 23 59 33 4 8 94 98 100 36 8 13 70 100 37 25 96 14 89 62 98 96 96 8 100
24 96 5 2 0 0 0 0 0 0 0 0 0 0 0 0 0 0 0 0 0 0 0 0 0 17 38 51 23 25 85 73 100 99 70 1 60 100 100 86 78 87 81 90 35 100 99 50 94
5 5 5 5 0 0 2 3 0 0 0 0 0 0 0 0 0 0 0 0 0 0 0 0 0 0 18 41 37 16 5 6 70 16 50 4 5 18 63 87 96 61 87 86 71 51 95 100 66
23 24 5 5 1 0 1 4 0 0 0 0 0 0 0 0 0 0 0 0 0 0 0 0 0 0 0 16 55 49 32 3 5 5 5 19 3 4 30 72 55 74 78 73 99 100 98 100 100
5 7 5 0 0 4 0 1 0 0 0 0 0 0 0 0 0 0 0 0 0 0 0 0 0 0 0 75 80 87 17 0 4 35 13 12 24 31 37 67 95 85 99 66 100 100 100 100 100
5 9 10 2 0 5 4 1 0 0 0 0 0 0 0 0 0 0 0 0 0 0 0 0 0 0 0 24 17 0 10 3 0 4 59 48 30 50 42 56 100 100 100 100 100 100 99 100 100
5 9 5 5 4 4 14 4 0 0 0 0 0 0 0 0 0 0 0 0 0 0 0 0 0 0 0 10 98 88 69 19 48 27 82 73 49 24 86 100 100 100 92 100 100 86 97 100 100
5 1 5 5 60 42 17 65 0 2 0 4 4 5 4 0 0 0 0 0 0 0 0 0 0 0 0 0 100 100 100 22 43 68 33 92 41 89 100 100 100 100 85 89 99 73 98 100 98
3 5 5 13 100 100 62 100 1 12 97 78 100 100 100 87 70 4 0 0 0 0 0 0 0 0 0 0 100 100 100 100 100 94 98 58 81 43 92 100 100 100 63 88 63 42 100 100 100
5 5 6 66 94 100 100 89 100 100 100 100 100 98 88 74 97 99 4 0 0 0 0 0 11 2 35 87 100 100 100 100 100 91 100 100 100 96 100 100 99 57 89 98 100 94 100 100 96
10 86 41 64 93 76 63 100 100 100 100 100 100 100 100 100 96 100 100 76 100 54 11 97 99 35 84 100 100 100 100 100 100 80 100 100 100 100 100 100 100 91 99 100 100 94 99 100 100
7 83 96 94 43 100 100 100 100 100 100 100 100 100 100 100 100 100 100 100 100 100 85 100 100 52 93 90 64 77 53 98 93 64 80 100 68 98 98 100 100 100 100 100 100 100 100 100 100
100 100 95 100 100 100 100 100 100 100 100 100 100 100 100 100 100 100 100 100 100 100 100 100 93 100 98 100 93 100 100 99 85 100 87 100 100 100 100 90 99 100 100 100 100 100 100 100 100
100 100 100 100 100 100 100 100 100 100 100 100 100 100 100 100 100 100 100 100 100 100 100 100 100 100 100 98 100 100 100 100 100 100 100 100 100 100 100 100 100 100 100 100 100 100 100 100 100
100 100 100 100 100 100 100 100 100 100 100 100 100 100 100 100 100 100 100 100 100 100 100 100 100 100 100 100 100 100 100 100 100 100 100 100 100 100 100 100 100 100 100 100 100 100 100 100 100
100 100 100 100 100 100 100 100 100 100 100 100 100 100 100 100 100 100 100 100 100 100 100 100 100 100 100 100 100 100 100 100 100 100 100 100 100 100 100 100 100 100 100 100 100 100 100 100 100

GFSSGP_prec_cloud_120.txt.gz
Cloud_Cover
5 5 0 0 0 0 0 0 0 0 0 0 0 0 0 0 0 0 49 72 68 71 100 2 4 24 5 5 5 4 0 3 5 5 9 100 14 1 4 6 1 5 13 3 3 4 1 8 0
20 8 3 3 0 0 0 0 0 0 0 0 0 0 0 0 0 0 68 5 96 95 92 72 0 1 5 5 4 5 1 0 1 4 13 99 52 12 5 4 5 19 0 5 5 5 93 8 8
21 53 40 56 16 0 0 0 0 0 0 0 0 0 0 0 0 0 5 5 73 66 77 100 0 0 1 4 5 5 5 2 0 4 42 99 13 98 94 12 55 24 5 0 4 58 5 5 0
98 81 53 86 70 30 4 0 0 0 0 0 0 0 0 0 0 0 30 100 86 95 53 63 0 0 0 0 1 5 5 5 5 5 5 7 6 6 96 98 90 5 5 5 5 5 5 5 4
98 59 31 86 73 6 5 5 0 0 0 0 0 0 0 0 0 0 97 100 98 85 97 63 0 0 0 0 0 0 94 40 5 5 5 5 5 5 4 100 100 100 96 26 26 58 5 9 5
57 85 69 100 81 46 24 43 3 0 0 0 0 0 0 0 0 0 33 98 76 94 55 88 0 0 35 0 0 0 7 100 78 8 5 5 5 5 5 3 76 100 100 95 31 5 63 60 89
88 40 90 30 46 12 5 21 6 4 0 0 0 0 0 0 0 0 0 61 100 89 74 29 17 82 94 63 1 0 0 80 100 100 91 36 6 5 5 5 5 13 12 73 100 52 14 6 35
8 52 86 100 9 7 26 58 37 6 5 0 0 0 0 0 0 0 0 0 28 82 98 69 50 17 94 100 16 18 1 0 0 2 11 6 6 1 4 5 5 5 5 5 28 5 7 35 26
88 18 19 50 5 5 5 5 44 94 34 5 13 4 0 0 0 0 0 0 0 0 64 98 77 57 52 100 100 100 100 89 100 46 12 67 6 14 13 5 33 22 5 5 5 75 93 100 100
100 96 33 20 5 5 5 4 4 7 9 13 7 24 2 0 0 0 0 0 0 0 0 15 60 79 59 100 100 100 100 100 100 100 26 11 53 96 96 44 2 63 13 7 5 50 93 62 92
100 72 74 99 77 14 5 5 5 5 5 5 0 0 4 5 0 0 0 0 0 0 0 0 2 61 97 87 96 100 100 100 100 100 58 52 26 27 41 86 53 54 7 60 87 35 6 90 100
100 98 25 48 96 72 89 81 32 14 22 5 2 5 5 5 5 2 0 0 0 0 0 0 0 20 38 33 18 100 100 100 100 100 100 100 52 43 39 84 99 94 25 59 82 100 98 62 70
27 86 66 20 5 5 5 6 50 79 18 6 5 4 5 5 7 0 1 4 4 0 0 0 0 0 45 51 9 58 100 100 84 98 87 50 44 53 36 44 99 96 66 41 25 31 53 100 100
0 2 12 41 46 76 14 5 5 3 5 5 5 5 45 59 43 9 5 5 8 1 0 0 0 0 3 48 36 2 52 100 100 92 68 47 62 49 87 22 66 65 100 99 70 11 73 51 100
0 0 0 0 5 4 10 93 6 4 5 5 5 6 42 5 10 24 5 5 0 0 0 0 0 0 0 2 49 32 0 7 60 100 100 100 62 66 40 53 42 42 35 28 98 53 5 89 87
4 0 0 0 0 0 0 0 1 75 47 5 5 5 2 4 4 2 0 0 0 3 4 4 1 0 0 0 92 84 42 2 4 5 53 83 70 60 39 77 71 29 36 84 55 48 99 10 100
9 5 4 0 0 0 1 0 5 3 0 0 0 0 0 2 0 0 0 0 0 0 0 0 0 4 0 0 94 100 98 58 24 1 0 100 90 65 5 6 58 98 59 97 74 24 41 92 95
16 6 5 4 4 0 0 1 0 0 0 0 0 0 0 0 0 0 0 0 0 0 0 0 0 0 1 4 52 100 100 93 71 24 0 18 74 91 80 84 9 39 66 91 99 67 44 28 70
30 5 5 5 3 1 0 1 4 1 0 0 0 0 0 0 0 0 0 0 0 0 0 0 0 0 0 0 0 100 100 82 67 62 9 0 65 5 25 7 15 91 100 100 100 82 100 64 81
100 96 20 60 5 5 0 1 0 0 0 0 0 0 0 0 0 0 0 0 0 0 0 0 0 0 0 0 0 0 16 24 18 31 20 0 0 5 17 53 100 96 72 100 99 100 100 85 95
82 41 17 8 5 5 5 0 0 0 0 0 0 0 1 0 0 0 0 0 0 0 0 0 0 0 0 0 0 4 92 72 34 1 2 3 4 0 20 48 100 87 40 100 100 80 100 76 98
5 8 5 5 72 53 50 55 5 4 5 0 4 5 5 28 9 46 0 0 0 0 0 0 0 0 0 0 0 11 100 46 0 0 11 69 20 5 18 54 57 46 93 100 100 100 100 93 100
5 5 5 51 100 100 72 99 6 15 71 100 82 95 100 83 76 99 100 11 0 0 0 0 0 0 0 0 0 0 16 96 49 78 62 69 53 56 75 46 54 100 100 100 100 100 100 100 100
9 7 51 92 100 97 20 64 65 100 100 100 100 100 100 100 98 55 46 98 9 0 0 0 0 0 0 0 0 0 0 58 94 20 66 72 100 87 92 94 69 78 96 100 100 100 100 100 100
13 90 86 90 100 77 13 92 99 91 99 100 100 100 100 100 100 99 100 100 93 80 24 0 0 0 0 0 0 0 1 93 100 63 97 98 100 100 100 100 99 91 99 100 100 83 87 100 100
77 76 98 100 93 94 79 74 100 100 100 100 100 100 100 100 100 100 100 100 100 98 100 84 36 2 1 28 82 86 99 100 100 100 100 92 100 100 44 63 100 98 96 100 100 71 100 99 100
100 100 79 100 100 100 100 100 100 100 100 100 100 100 100 100 100 100 100 100 100 100 100 100 48 95 59 40 39 65 58 100 100 100 98 100 83 64 74 60 100 100 100 100 100 100 100 100 100
100 100 100 100 98 96 90 100 100 100 100 100 100 100 100 100 100 100 100 100 100 100 100 100 100 100 100 100 99 90 100 78 100 86 100 98 100 100 100 100 100 100 100 100 100 100 100 100 100
100 100 100 96 100 100 100 100 100 100 100 100 100 100 100 100 100 100 100 100 100 100 100 100 100 100 95 100 100 100 100 100 100 100 100 100 100 100 100 100 100 100 100 100 100 100 100 100 100
100 56 82 100 100 100 100 100 100 100 100 100 100 100 100 100 100 100 100 100 100 100 100 100 100 100 100 100 100 100 100 100 100 100 100 100 100 100 100 100 100 100 100 100 100 100 100 100 100

GFSSGP_prec_cloud_123.txt.gz
Cloud_Cover
0 0 0 0 0 0 0 0 0 0 0 0 0 0 0 0 0 4 3 1 39 100 100 1 0 0 0 5 5 4 4 5 5 5 21 98 73 2 0 1 0 0 0 10 8 10 0 20 50
0 0 0 0 0 0 0 0 0 0 0 0 0 0 0 0 0 1 43 0 21 100 97 80 12 3 0 0 2 0 0 1 2 5 5 98 15 6 5 14 5 1 4 5 4 2 11 5 4
5 0 0 0 3 0 0 0 0 0 0 0 0 0 0 0 0 0 0 0 4 100 73 95 2 2 0 0 0 5 0 0 0 2 10 99 9 17 5 10 40 10 5 5 5 5 5 5 19
54 8 3 0 5 1 0 1 0 0 0 0 0 0 0 0 0 0 10 34 92 73 97 83 0 0 0 0 0 0 0 0 0 0 2 12 5 6 5 8 18 17 5 5 5 12 8 5 5
17 64 29 18 3 0 0 4 2 1 0 0 0 0 0 0 0 0 52 79 88 96 98 52 0 0 0 0 0 0 0 5 0 1 0 5 4 5 5 23 84 8 99 100 88 78 12 62 5
100 100 76 37 19 5 4 5 5 5 5 25 4 0 0 0 0 0 0 76 54 100 100 100 6 0 0 0 56 4 0 0 5 5 5 5 5 5 5 5 24 32 25 23 100 100 92 8 9
86 100 100 93 27 5 10 5 5 5 8 19 5 5 0 0 0 0 0 2 19 82 89 96 64 0 0 0 52 95 97 25 0 0 12 95 61 6 6 5 90 54 13 91 98 87 59 32 27
100 19 14 88 100 97 92 96 38 51 52 83 33 25 4 0 0 0 0 0 4 36 35 54 90 96 12 1 1 95 100 89 11 0 3 99 100 100 32 7 20 48 19 5 49 66 28 57 31
86 100 100 79 7 5 18 32 97 96 59 7 18 22 35 6 0 0 0 0 0 0 10 21 67 44 100 100 46 11 100 100 100 98 88 100 55 39 54 88 19 39 42 5 47 22 44 96 100
22 76 38 77 78 91 6 4 4 9 21 5 70 22 27 62 21 1 0 0 0 0 0 0 72 43 17 100 84 7 72 100 100 100 100 100 34 80 72 87 37 2 3 2 1 46 19 5 14
60 8 85 9 29 5 0 0 2 5 89 59 5 1 4 14 84 94 6 4 0 0 0 0 0 48 60 41 67 99 40 89 100 100 100 100 99 100 90 5 19 44 12 0 0 0 10 10 7
75 7 5 5 46 21 5 5 0 0 2 2 5 5 0 0 4 5 46 74 5 0 0 0 0 0 90 72 57 51 19 46 100 100 100 100 100 100 5 60 60 56 36 0 0 15 39 0 5
96 51 5 5 5 28 5 5 5 5 5 3 5 5 1 0 0 0 0 2 0 0 0 0 0 0 3 100 41 95 100 49 78 100 100 100 100 100 84 9 75 74 58 76 3 11 20 22 3
5 6 5 5 52 50 12 5 5 7 5 5 70 49 5 0 4 3 0 0 0 0 0 0 0 0 0 43 72 64 100 99 27 79 100 100 100 100 96 99 29 49 9 93 33 45 18 5 60
0 0 5 4 5 6 5 52 96 28 5 5 5 16 5 5 2 2 0 0 0 0 0 0 0 0 0 0 36 84 94 100 58 19 93 100 100 100 66 14 97 10 16 100 56 8 100 47 5
0 0 0 0 0 0 0 3 20 13 5 5 0 4 0 0 0 2 0 0 0 0 0 0 0 5 1 0 0 51 50 100 45 27 23 95 100 100 100 61 88 100 48 13 69 84 64 59 62
100 41 1 0 0 0 0 0 0 0 0 4 4 4 4 4 1 0 1 0 0 0 0 0 0 0 5 5 0 0 35 14 94 93 40 16 69 100 100 100 100 93 41 65 78 41 57 86 50
6 5 6 0 0 0 0 0 0 0 0 0 0 0 0 0 0 0 0 0 0 2 0 0 0 2 4 30 3 0 36 100 40 99 45 28 2 30 30 29 26 17 17 78 99 100 99 90 77
90 100 22 2 0 3 5 0 0 0 1 0 0 0 0 4 0 0 0 0 0 0 0 0 0 0 0 0 0 0 44 99 100 37 60 39 54 3 1 4 5 7 25 97 87 73 13 100 32
100 100 92 95 100 55 8 5 5 0 0 0 2 4 4 0 1 22 14 0 0 0 0 0 0 0 0 0 0 0 0 89 100 97 61 26 32 3 1 8 5 5 34 57 100 96 3 21 51
99 100 100 100 71 23 8 5 1 2 2 5 1 12 21 71 94 81 25 4 21 0 0 0 0 0 0 0 0 0 0 13 46 48 32 99 56 8 0 0 3 8 5 60 34 25 10 98 54
27 53 46 27 26 16 5 38 2 4 5 4 0 16 82 36 73 100 84 40 0 66 1 0 0 0 0 0 0 0 0 3 9 10 46 33 49 39 11 0 6 5 9 100 71 26 10 11 99
4 5 5 6 70 92 16 54 5 4 5 5 36 100 100 48 48 25 98 77 21 5 1 0 0 0 0 0 0 0 0 0 0 3 47 84 63 20 21 17 27 67 48 16 36 54 97 100 100
4 5 10 85 92 89 21 32 6 89 47 11 87 100 100 90 56 99 94 88 8 3 28 0 0 0 0 0 0 0 0 0 3 8 20 100 99 100 83 19 6 49 45 54 91 100 100 100 100
28 49 81 97 80 58 7 39 8 34 71 100 100 100 100 100 100 100 100 100 98 100 68 9 4 0 0 0 0 0 0 0 0 0 4 4 96 100 100 92 46 27 100 100 82 90 100 100 100
100 86 67 95 98 95 89 55 87 80 99 70 100 100 100 100 100 100 100 100 100 100 100 100 57 42 1 0 0 0 0 0 7 70 54 8 96 100 100 100 99 48 55 69 98 100 100 100 100
93 78 78 97 30 88 100 100 100 90 94 66 100 100 100 100 100 100 100 100 100 100 100 100 94 97 78 50 4 24 26 94 100 100 100 22 100 98 23 75 100 100 100 100 100 100 100 100 100
40 99 99 99 87 100 100 100 99 100 100 100 100 100 100 95 90 100 100 100 100 100 100 98 100 100 100 100 76 93 82 92 97 100 85 100 100 100 100 88 55 55 100 100 100 100 100 100 100
100 100 100 100 100 100 96 98 100 100 100 100 100 100 100 100 100 100 100 100 100 100 100 100 97 100 100 100 100 100 100 100 100 85 100 100 100 100 100 97 100 100 100 100 100 100 100 100 100
67 100 100 100 100 100 100 100 100 100 100 100 100 100 95 100 100 100 100 100 100 100 100 100 100 100 100 100 100 100 97 100 100 100 100 100 100 100 100 100 100 100 100 100 100 100 100 100 100